<?xml version="1.0" encoding="UTF-8" standalone="no" ?>
<gpx xmlns="http://www.topografix.com/GPX/1/1" xmlns:xsi="http://www.w3.org/2001/XMLSchema-instance" xsi:schemaLocation="http://www.topografix.com/GPX/1/1 http://www.topografix.com/GPX/1/1/gpx.xsd" version="1.1" creator="VisuGPX - https://www.visugpx.com">
  <metadata>
    <name>Tour du plateau d'Ambel et Pas de l'Infernet</name>
    <desc><![CDATA[Rando CAF Valence du 23 septembre 2021 organisée par Chantal.]]></desc>
  </metadata>
  <trk>
    <name><![CDATA[2021-09-23 17:08:56]]></name>
    <trkseg>
      <trkpt lat="44.89819" lon="5.23315">
        <ele>1320.03</ele>
        <time>2021-09-23T07:23:36Z</time>
      </trkpt>
      <trkpt lat="44.89818" lon="5.23317">
        <ele>1320.03</ele>
        <time>2021-09-23T07:23:57Z</time>
      </trkpt>
      <trkpt lat="44.89816" lon="5.23322">
        <ele>1320.03</ele>
        <time>2021-09-23T07:24:02Z</time>
      </trkpt>
      <trkpt lat="44.89804" lon="5.23348">
        <ele>1317.62</ele>
        <time>2021-09-23T07:24:23Z</time>
      </trkpt>
      <trkpt lat="44.89789" lon="5.23367">
        <ele>1316.18</ele>
        <time>2021-09-23T07:24:42Z</time>
      </trkpt>
      <trkpt lat="44.89773" lon="5.23384">
        <ele>1315.22</ele>
        <time>2021-09-23T07:25:01Z</time>
      </trkpt>
      <trkpt lat="44.89752" lon="5.23388">
        <ele>1314.26</ele>
        <time>2021-09-23T07:25:20Z</time>
      </trkpt>
      <trkpt lat="44.89735" lon="5.23392">
        <ele>1313.78</ele>
        <time>2021-09-23T07:25:35Z</time>
      </trkpt>
      <trkpt lat="44.89732" lon="5.23391">
        <ele>1313.78</ele>
        <time>2021-09-23T07:25:52Z</time>
      </trkpt>
      <trkpt lat="44.89729" lon="5.23392">
        <ele>1313.78</ele>
        <time>2021-09-23T07:26:13Z</time>
      </trkpt>
      <trkpt lat="44.89725" lon="5.23395">
        <ele>1315.22</ele>
        <time>2021-09-23T07:26:23Z</time>
      </trkpt>
      <trkpt lat="44.8972" lon="5.23399">
        <ele>1317.14</ele>
        <time>2021-09-23T07:26:39Z</time>
      </trkpt>
      <trkpt lat="44.89711" lon="5.23407">
        <ele>1320.51</ele>
        <time>2021-09-23T07:27:00Z</time>
      </trkpt>
      <trkpt lat="44.89705" lon="5.23411">
        <ele>1321.95</ele>
        <time>2021-09-23T07:27:16Z</time>
      </trkpt>
      <trkpt lat="44.89692" lon="5.23417">
        <ele>1322.91</ele>
        <time>2021-09-23T07:27:33Z</time>
      </trkpt>
      <trkpt lat="44.89681" lon="5.23424">
        <ele>1325.8</ele>
        <time>2021-09-23T07:27:51Z</time>
      </trkpt>
      <trkpt lat="44.89669" lon="5.23431">
        <ele>1327.24</ele>
        <time>2021-09-23T07:28:09Z</time>
      </trkpt>
      <trkpt lat="44.89658" lon="5.23438">
        <ele>1329.64</ele>
        <time>2021-09-23T07:28:27Z</time>
      </trkpt>
      <trkpt lat="44.89649" lon="5.23444">
        <ele>1333.01</ele>
        <time>2021-09-23T07:28:43Z</time>
      </trkpt>
      <trkpt lat="44.89638" lon="5.2345">
        <ele>1334.45</ele>
        <time>2021-09-23T07:29:01Z</time>
      </trkpt>
      <trkpt lat="44.89628" lon="5.23456">
        <ele>1337.33</ele>
        <time>2021-09-23T07:29:20Z</time>
      </trkpt>
      <trkpt lat="44.89617" lon="5.23463">
        <ele>1339.73</ele>
        <time>2021-09-23T07:29:38Z</time>
      </trkpt>
      <trkpt lat="44.89607" lon="5.23469">
        <ele>1341.66</ele>
        <time>2021-09-23T07:29:57Z</time>
      </trkpt>
      <trkpt lat="44.89599" lon="5.23474">
        <ele>1343.58</ele>
        <time>2021-09-23T07:30:15Z</time>
      </trkpt>
      <trkpt lat="44.89591" lon="5.23482">
        <ele>1346.46</ele>
        <time>2021-09-23T07:30:32Z</time>
      </trkpt>
      <trkpt lat="44.89579" lon="5.23484">
        <ele>1347.91</ele>
        <time>2021-09-23T07:30:47Z</time>
      </trkpt>
      <trkpt lat="44.89573" lon="5.23489">
        <ele>1350.31</ele>
        <time>2021-09-23T07:31:04Z</time>
      </trkpt>
      <trkpt lat="44.89562" lon="5.23496">
        <ele>1351.75</ele>
        <time>2021-09-23T07:31:22Z</time>
      </trkpt>
      <trkpt lat="44.89549" lon="5.23503">
        <ele>1353.67</ele>
        <time>2021-09-23T07:31:39Z</time>
      </trkpt>
      <trkpt lat="44.89537" lon="5.23507">
        <ele>1355.12</ele>
        <time>2021-09-23T07:31:56Z</time>
      </trkpt>
      <trkpt lat="44.89525" lon="5.23511">
        <ele>1356.56</ele>
        <time>2021-09-23T07:32:12Z</time>
      </trkpt>
      <trkpt lat="44.89514" lon="5.23516">
        <ele>1357.04</ele>
        <time>2021-09-23T07:32:29Z</time>
      </trkpt>
      <trkpt lat="44.89502" lon="5.23521">
        <ele>1358.48</ele>
        <time>2021-09-23T07:32:46Z</time>
      </trkpt>
      <trkpt lat="44.89491" lon="5.23526">
        <ele>1360.88</ele>
        <time>2021-09-23T07:33:02Z</time>
      </trkpt>
      <trkpt lat="44.89482" lon="5.23531">
        <ele>1362.33</ele>
        <time>2021-09-23T07:33:16Z</time>
      </trkpt>
      <trkpt lat="44.89469" lon="5.23533">
        <ele>1364.73</ele>
        <time>2021-09-23T07:33:34Z</time>
      </trkpt>
      <trkpt lat="44.89464" lon="5.23539">
        <ele>1366.65</ele>
        <time>2021-09-23T07:33:49Z</time>
      </trkpt>
      <trkpt lat="44.89452" lon="5.23544">
        <ele>1368.57</ele>
        <time>2021-09-23T07:34:06Z</time>
      </trkpt>
      <trkpt lat="44.89441" lon="5.23548">
        <ele>1370.5</ele>
        <time>2021-09-23T07:34:21Z</time>
      </trkpt>
      <trkpt lat="44.8944" lon="5.23548">
        <ele>1370.5</ele>
        <time>2021-09-23T07:34:22Z</time>
      </trkpt>
      <trkpt lat="44.89431" lon="5.23552">
        <ele>1372.42</ele>
        <time>2021-09-23T07:34:37Z</time>
      </trkpt>
      <trkpt lat="44.89422" lon="5.23554">
        <ele>1374.82</ele>
        <time>2021-09-23T07:34:51Z</time>
      </trkpt>
      <trkpt lat="44.89409" lon="5.23554">
        <ele>1374.82</ele>
        <time>2021-09-23T07:35:05Z</time>
      </trkpt>
      <trkpt lat="44.89395" lon="5.23556">
        <ele>1376.26</ele>
        <time>2021-09-23T07:35:21Z</time>
      </trkpt>
      <trkpt lat="44.89386" lon="5.23556">
        <ele>1376.26</ele>
        <time>2021-09-23T07:35:30Z</time>
      </trkpt>
      <trkpt lat="44.89369" lon="5.23555">
        <ele>1377.23</ele>
        <time>2021-09-23T07:35:48Z</time>
      </trkpt>
      <trkpt lat="44.89357" lon="5.23557">
        <ele>1378.19</ele>
        <time>2021-09-23T07:36:02Z</time>
      </trkpt>
      <trkpt lat="44.89351" lon="5.23558">
        <ele>1379.15</ele>
        <time>2021-09-23T07:36:09Z</time>
      </trkpt>
      <trkpt lat="44.89339" lon="5.23561">
        <ele>1380.59</ele>
        <time>2021-09-23T07:36:23Z</time>
      </trkpt>
      <trkpt lat="44.89333" lon="5.23561">
        <ele>1381.07</ele>
        <time>2021-09-23T07:36:29Z</time>
      </trkpt>
      <trkpt lat="44.89326" lon="5.23563">
        <ele>1381.07</ele>
        <time>2021-09-23T07:36:36Z</time>
      </trkpt>
      <trkpt lat="44.89321" lon="5.23564">
        <ele>1382.03</ele>
        <time>2021-09-23T07:36:42Z</time>
      </trkpt>
      <trkpt lat="44.89308" lon="5.23567">
        <ele>1382.99</ele>
        <time>2021-09-23T07:36:57Z</time>
      </trkpt>
      <trkpt lat="44.89295" lon="5.23573">
        <ele>1383.96</ele>
        <time>2021-09-23T07:37:12Z</time>
      </trkpt>
      <trkpt lat="44.89281" lon="5.23578">
        <ele>1385.88</ele>
        <time>2021-09-23T07:37:27Z</time>
      </trkpt>
      <trkpt lat="44.8927" lon="5.23581">
        <ele>1386.36</ele>
        <time>2021-09-23T07:37:38Z</time>
      </trkpt>
      <trkpt lat="44.89268" lon="5.23581">
        <ele>1386.36</ele>
        <time>2021-09-23T07:37:40Z</time>
      </trkpt>
      <trkpt lat="44.89257" lon="5.23583">
        <ele>1386.84</ele>
        <time>2021-09-23T07:37:51Z</time>
      </trkpt>
      <trkpt lat="44.89243" lon="5.23582">
        <ele>1387.8</ele>
        <time>2021-09-23T07:38:05Z</time>
      </trkpt>
      <trkpt lat="44.8923" lon="5.23586">
        <ele>1389.72</ele>
        <time>2021-09-23T07:38:21Z</time>
      </trkpt>
      <trkpt lat="44.89221" lon="5.23588">
        <ele>1391.65</ele>
        <time>2021-09-23T07:38:33Z</time>
      </trkpt>
      <trkpt lat="44.89203" lon="5.23589">
        <ele>1391.65</ele>
        <time>2021-09-23T07:38:50Z</time>
      </trkpt>
      <trkpt lat="44.89184" lon="5.23592">
        <ele>1390.68</ele>
        <time>2021-09-23T07:39:08Z</time>
      </trkpt>
      <trkpt lat="44.89169" lon="5.23599">
        <ele>1389.72</ele>
        <time>2021-09-23T07:39:24Z</time>
      </trkpt>
      <trkpt lat="44.89167" lon="5.236">
        <ele>1389.72</ele>
        <time>2021-09-23T07:39:26Z</time>
      </trkpt>
      <trkpt lat="44.89147" lon="5.23601">
        <ele>1389.72</ele>
        <time>2021-09-23T07:39:45Z</time>
      </trkpt>
      <trkpt lat="44.89128" lon="5.23601">
        <ele>1388.76</ele>
        <time>2021-09-23T07:40:03Z</time>
      </trkpt>
      <trkpt lat="44.89125" lon="5.23602">
        <ele>1388.28</ele>
        <time>2021-09-23T07:40:06Z</time>
      </trkpt>
      <trkpt lat="44.89108" lon="5.23609">
        <ele>1388.28</ele>
        <time>2021-09-23T07:40:24Z</time>
      </trkpt>
      <trkpt lat="44.89107" lon="5.23609">
        <ele>1388.28</ele>
        <time>2021-09-23T07:40:25Z</time>
      </trkpt>
      <trkpt lat="44.89093" lon="5.23614">
        <ele>1389.72</ele>
        <time>2021-09-23T07:40:38Z</time>
      </trkpt>
      <trkpt lat="44.89089" lon="5.23618">
        <ele>1389.72</ele>
        <time>2021-09-23T07:40:44Z</time>
      </trkpt>
      <trkpt lat="44.89074" lon="5.23629">
        <ele>1390.2</ele>
        <time>2021-09-23T07:40:59Z</time>
      </trkpt>
      <trkpt lat="44.8906" lon="5.23636">
        <ele>1392.13</ele>
        <time>2021-09-23T07:41:15Z</time>
      </trkpt>
      <trkpt lat="44.89058" lon="5.23636">
        <ele>1392.61</ele>
        <time>2021-09-23T07:41:20Z</time>
      </trkpt>
      <trkpt lat="44.89038" lon="5.23634">
        <ele>1392.61</ele>
        <time>2021-09-23T07:41:37Z</time>
      </trkpt>
      <trkpt lat="44.89029" lon="5.23642">
        <ele>1392.61</ele>
        <time>2021-09-23T07:41:47Z</time>
      </trkpt>
      <trkpt lat="44.89027" lon="5.23646">
        <ele>1392.61</ele>
        <time>2021-09-23T07:41:51Z</time>
      </trkpt>
      <trkpt lat="44.89024" lon="5.23649">
        <ele>1393.09</ele>
        <time>2021-09-23T07:41:55Z</time>
      </trkpt>
      <trkpt lat="44.89019" lon="5.23649">
        <ele>1393.09</ele>
        <time>2021-09-23T07:41:59Z</time>
      </trkpt>
      <trkpt lat="44.89013" lon="5.23645">
        <ele>1394.05</ele>
        <time>2021-09-23T07:42:04Z</time>
      </trkpt>
      <trkpt lat="44.89011" lon="5.23645">
        <ele>1394.05</ele>
        <time>2021-09-23T07:42:06Z</time>
      </trkpt>
      <trkpt lat="44.89008" lon="5.23646">
        <ele>1394.05</ele>
        <time>2021-09-23T07:42:08Z</time>
      </trkpt>
      <trkpt lat="44.88988" lon="5.23648">
        <ele>1394.53</ele>
        <time>2021-09-23T07:42:27Z</time>
      </trkpt>
      <trkpt lat="44.88984" lon="5.23648">
        <ele>1393.09</ele>
        <time>2021-09-23T07:42:30Z</time>
      </trkpt>
      <trkpt lat="44.88965" lon="5.23655">
        <ele>1392.61</ele>
        <time>2021-09-23T07:42:47Z</time>
      </trkpt>
      <trkpt lat="44.88956" lon="5.2366">
        <ele>1393.57</ele>
        <time>2021-09-23T07:42:55Z</time>
      </trkpt>
      <trkpt lat="44.88944" lon="5.23664">
        <ele>1392.61</ele>
        <time>2021-09-23T07:43:06Z</time>
      </trkpt>
      <trkpt lat="44.88941" lon="5.23667">
        <ele>1392.61</ele>
        <time>2021-09-23T07:43:09Z</time>
      </trkpt>
      <trkpt lat="44.88922" lon="5.23673">
        <ele>1392.13</ele>
        <time>2021-09-23T07:43:26Z</time>
      </trkpt>
      <trkpt lat="44.8891" lon="5.23677">
        <ele>1391.17</ele>
        <time>2021-09-23T07:43:37Z</time>
      </trkpt>
      <trkpt lat="44.88894" lon="5.23677">
        <ele>1390.2</ele>
        <time>2021-09-23T07:43:49Z</time>
      </trkpt>
      <trkpt lat="44.88876" lon="5.23677">
        <ele>1387.8</ele>
        <time>2021-09-23T07:44:05Z</time>
      </trkpt>
      <trkpt lat="44.88866" lon="5.23679">
        <ele>1385.88</ele>
        <time>2021-09-23T07:44:15Z</time>
      </trkpt>
      <trkpt lat="44.88852" lon="5.23679">
        <ele>1382.51</ele>
        <time>2021-09-23T07:44:26Z</time>
      </trkpt>
      <trkpt lat="44.88844" lon="5.23683">
        <ele>1382.03</ele>
        <time>2021-09-23T07:44:33Z</time>
      </trkpt>
      <trkpt lat="44.8884" lon="5.23687">
        <ele>1382.03</ele>
        <time>2021-09-23T07:44:39Z</time>
      </trkpt>
      <trkpt lat="44.88834" lon="5.23691">
        <ele>1383.96</ele>
        <time>2021-09-23T07:44:46Z</time>
      </trkpt>
      <trkpt lat="44.8883" lon="5.23694">
        <ele>1383.96</ele>
        <time>2021-09-23T07:44:50Z</time>
      </trkpt>
      <trkpt lat="44.88814" lon="5.23697">
        <ele>1384.44</ele>
        <time>2021-09-23T07:45:05Z</time>
      </trkpt>
      <trkpt lat="44.88811" lon="5.23698">
        <ele>1384.44</ele>
        <time>2021-09-23T07:45:08Z</time>
      </trkpt>
      <trkpt lat="44.88806" lon="5.23702">
        <ele>1384.92</ele>
        <time>2021-09-23T07:45:22Z</time>
      </trkpt>
      <trkpt lat="44.88799" lon="5.23705">
        <ele>1384.92</ele>
        <time>2021-09-23T07:45:39Z</time>
      </trkpt>
      <trkpt lat="44.88789" lon="5.2371">
        <ele>1385.88</ele>
        <time>2021-09-23T07:45:54Z</time>
      </trkpt>
      <trkpt lat="44.88785" lon="5.2371">
        <ele>1386.36</ele>
        <time>2021-09-23T07:46:07Z</time>
      </trkpt>
      <trkpt lat="44.88783" lon="5.23709">
        <ele>1386.84</ele>
        <time>2021-09-23T07:46:29Z</time>
      </trkpt>
      <trkpt lat="44.8878" lon="5.23709">
        <ele>1386.84</ele>
        <time>2021-09-23T07:47:02Z</time>
      </trkpt>
      <trkpt lat="44.88773" lon="5.23708">
        <ele>1386.84</ele>
        <time>2021-09-23T07:47:19Z</time>
      </trkpt>
      <trkpt lat="44.88763" lon="5.23717">
        <ele>1386.84</ele>
        <time>2021-09-23T07:47:34Z</time>
      </trkpt>
      <trkpt lat="44.88755" lon="5.23728">
        <ele>1387.8</ele>
        <time>2021-09-23T07:47:49Z</time>
      </trkpt>
      <trkpt lat="44.88742" lon="5.23734">
        <ele>1389.24</ele>
        <time>2021-09-23T07:48:03Z</time>
      </trkpt>
      <trkpt lat="44.88732" lon="5.23743">
        <ele>1390.2</ele>
        <time>2021-09-23T07:48:16Z</time>
      </trkpt>
      <trkpt lat="44.88723" lon="5.23744">
        <ele>1390.2</ele>
        <time>2021-09-23T07:48:24Z</time>
      </trkpt>
      <trkpt lat="44.88711" lon="5.23749">
        <ele>1390.2</ele>
        <time>2021-09-23T07:48:40Z</time>
      </trkpt>
      <trkpt lat="44.88706" lon="5.23753">
        <ele>1390.2</ele>
        <time>2021-09-23T07:48:47Z</time>
      </trkpt>
      <trkpt lat="44.88704" lon="5.23754">
        <ele>1388.76</ele>
        <time>2021-09-23T07:48:49Z</time>
      </trkpt>
      <trkpt lat="44.88693" lon="5.23765">
        <ele>1386.84</ele>
        <time>2021-09-23T07:49:04Z</time>
      </trkpt>
      <trkpt lat="44.88692" lon="5.2377">
        <ele>1386.36</ele>
        <time>2021-09-23T07:49:18Z</time>
      </trkpt>
      <trkpt lat="44.8869" lon="5.2377">
        <ele>1386.36</ele>
        <time>2021-09-23T07:49:32Z</time>
      </trkpt>
      <trkpt lat="44.88679" lon="5.23776">
        <ele>1384.92</ele>
        <time>2021-09-23T07:49:49Z</time>
      </trkpt>
      <trkpt lat="44.8867" lon="5.23785">
        <ele>1381.55</ele>
        <time>2021-09-23T07:50:02Z</time>
      </trkpt>
      <trkpt lat="44.88655" lon="5.2379">
        <ele>1378.67</ele>
        <time>2021-09-23T07:50:16Z</time>
      </trkpt>
      <trkpt lat="44.88646" lon="5.23799">
        <ele>1375.3</ele>
        <time>2021-09-23T07:50:29Z</time>
      </trkpt>
      <trkpt lat="44.8864" lon="5.23809">
        <ele>1372.9</ele>
        <time>2021-09-23T07:50:42Z</time>
      </trkpt>
      <trkpt lat="44.88631" lon="5.23817">
        <ele>1371.46</ele>
        <time>2021-09-23T07:50:55Z</time>
      </trkpt>
      <trkpt lat="44.88619" lon="5.23827">
        <ele>1370.02</ele>
        <time>2021-09-23T07:51:11Z</time>
      </trkpt>
      <trkpt lat="44.88603" lon="5.23838">
        <ele>1368.57</ele>
        <time>2021-09-23T07:51:25Z</time>
      </trkpt>
      <trkpt lat="44.88592" lon="5.23845">
        <ele>1367.61</ele>
        <time>2021-09-23T07:51:38Z</time>
      </trkpt>
      <trkpt lat="44.88579" lon="5.23857">
        <ele>1366.17</ele>
        <time>2021-09-23T07:51:54Z</time>
      </trkpt>
      <trkpt lat="44.88567" lon="5.23863">
        <ele>1365.69</ele>
        <time>2021-09-23T07:52:07Z</time>
      </trkpt>
      <trkpt lat="44.88555" lon="5.23869">
        <ele>1363.77</ele>
        <time>2021-09-23T07:52:19Z</time>
      </trkpt>
      <trkpt lat="44.88544" lon="5.23875">
        <ele>1363.77</ele>
        <time>2021-09-23T07:52:26Z</time>
      </trkpt>
      <trkpt lat="44.88529" lon="5.23886">
        <ele>1363.77</ele>
        <time>2021-09-23T07:52:42Z</time>
      </trkpt>
      <trkpt lat="44.8852" lon="5.23893">
        <ele>1365.69</ele>
        <time>2021-09-23T07:52:56Z</time>
      </trkpt>
      <trkpt lat="44.88506" lon="5.23903">
        <ele>1364.25</ele>
        <time>2021-09-23T07:53:11Z</time>
      </trkpt>
      <trkpt lat="44.88485" lon="5.23904">
        <ele>1367.13</ele>
        <time>2021-09-23T07:53:26Z</time>
      </trkpt>
      <trkpt lat="44.88473" lon="5.23915">
        <ele>1369.54</ele>
        <time>2021-09-23T07:53:39Z</time>
      </trkpt>
      <trkpt lat="44.88466" lon="5.23925">
        <ele>1370.02</ele>
        <time>2021-09-23T07:53:50Z</time>
      </trkpt>
      <trkpt lat="44.88464" lon="5.23931">
        <ele>1370.02</ele>
        <time>2021-09-23T07:54:04Z</time>
      </trkpt>
      <trkpt lat="44.88462" lon="5.23933">
        <ele>1370.02</ele>
        <time>2021-09-23T07:57:53Z</time>
      </trkpt>
      <trkpt lat="44.8846" lon="5.23935">
        <ele>1369.05</ele>
        <time>2021-09-23T07:58:04Z</time>
      </trkpt>
      <trkpt lat="44.88459" lon="5.23944">
        <ele>1367.13</ele>
        <time>2021-09-23T07:58:17Z</time>
      </trkpt>
      <trkpt lat="44.88458" lon="5.23958">
        <ele>1365.21</ele>
        <time>2021-09-23T07:58:28Z</time>
      </trkpt>
      <trkpt lat="44.88455" lon="5.23976">
        <ele>1363.29</ele>
        <time>2021-09-23T07:58:43Z</time>
      </trkpt>
      <trkpt lat="44.88452" lon="5.23986">
        <ele>1359.92</ele>
        <time>2021-09-23T07:58:52Z</time>
      </trkpt>
      <trkpt lat="44.88446" lon="5.24002">
        <ele>1357.04</ele>
        <time>2021-09-23T07:59:04Z</time>
      </trkpt>
      <trkpt lat="44.88438" lon="5.24019">
        <ele>1353.67</ele>
        <time>2021-09-23T07:59:18Z</time>
      </trkpt>
      <trkpt lat="44.88437" lon="5.2402">
        <ele>1353.67</ele>
        <time>2021-09-23T07:59:20Z</time>
      </trkpt>
      <trkpt lat="44.88432" lon="5.24043">
        <ele>1351.27</ele>
        <time>2021-09-23T07:59:35Z</time>
      </trkpt>
      <trkpt lat="44.88426" lon="5.24056">
        <ele>1349.83</ele>
        <time>2021-09-23T07:59:47Z</time>
      </trkpt>
      <trkpt lat="44.88412" lon="5.24058">
        <ele>1348.39</ele>
        <time>2021-09-23T08:00:02Z</time>
      </trkpt>
      <trkpt lat="44.88411" lon="5.24058">
        <ele>1348.39</ele>
        <time>2021-09-23T08:00:03Z</time>
      </trkpt>
      <trkpt lat="44.884" lon="5.2406">
        <ele>1348.39</ele>
        <time>2021-09-23T08:00:19Z</time>
      </trkpt>
      <trkpt lat="44.88387" lon="5.24062">
        <ele>1347.91</ele>
        <time>2021-09-23T08:00:34Z</time>
      </trkpt>
      <trkpt lat="44.88386" lon="5.24063">
        <ele>1347.91</ele>
        <time>2021-09-23T08:00:37Z</time>
      </trkpt>
      <trkpt lat="44.88377" lon="5.24055">
        <ele>1349.83</ele>
        <time>2021-09-23T08:00:48Z</time>
      </trkpt>
      <trkpt lat="44.88366" lon="5.2405">
        <ele>1350.31</ele>
        <time>2021-09-23T08:01:00Z</time>
      </trkpt>
      <trkpt lat="44.8835" lon="5.24044">
        <ele>1351.27</ele>
        <time>2021-09-23T08:01:16Z</time>
      </trkpt>
      <trkpt lat="44.88335" lon="5.24039">
        <ele>1353.67</ele>
        <time>2021-09-23T08:01:31Z</time>
      </trkpt>
      <trkpt lat="44.88321" lon="5.24035">
        <ele>1355.6</ele>
        <time>2021-09-23T08:01:46Z</time>
      </trkpt>
      <trkpt lat="44.88305" lon="5.24032">
        <ele>1356.56</ele>
        <time>2021-09-23T08:02:02Z</time>
      </trkpt>
      <trkpt lat="44.88303" lon="5.24031">
        <ele>1357.04</ele>
        <time>2021-09-23T08:02:04Z</time>
      </trkpt>
      <trkpt lat="44.88301" lon="5.24031">
        <ele>1357.04</ele>
        <time>2021-09-23T08:02:06Z</time>
      </trkpt>
      <trkpt lat="44.88297" lon="5.24029">
        <ele>1358</ele>
        <time>2021-09-23T08:02:11Z</time>
      </trkpt>
      <trkpt lat="44.88279" lon="5.24027">
        <ele>1358.96</ele>
        <time>2021-09-23T08:02:28Z</time>
      </trkpt>
      <trkpt lat="44.88278" lon="5.24027">
        <ele>1358.96</ele>
        <time>2021-09-23T08:02:29Z</time>
      </trkpt>
      <trkpt lat="44.88259" lon="5.24029">
        <ele>1359.44</ele>
        <time>2021-09-23T08:02:47Z</time>
      </trkpt>
      <trkpt lat="44.88243" lon="5.24032">
        <ele>1359.44</ele>
        <time>2021-09-23T08:03:04Z</time>
      </trkpt>
      <trkpt lat="44.88239" lon="5.24033">
        <ele>1358.48</ele>
        <time>2021-09-23T08:03:08Z</time>
      </trkpt>
      <trkpt lat="44.88224" lon="5.24037">
        <ele>1356.56</ele>
        <time>2021-09-23T08:03:23Z</time>
      </trkpt>
      <trkpt lat="44.88212" lon="5.24036">
        <ele>1355.12</ele>
        <time>2021-09-23T08:03:37Z</time>
      </trkpt>
      <trkpt lat="44.882" lon="5.24032">
        <ele>1353.19</ele>
        <time>2021-09-23T08:03:54Z</time>
      </trkpt>
      <trkpt lat="44.88193" lon="5.24024">
        <ele>1351.27</ele>
        <time>2021-09-23T08:04:10Z</time>
      </trkpt>
      <trkpt lat="44.88187" lon="5.24025">
        <ele>1351.27</ele>
        <time>2021-09-23T08:04:28Z</time>
      </trkpt>
      <trkpt lat="44.88179" lon="5.24028">
        <ele>1350.79</ele>
        <time>2021-09-23T08:04:44Z</time>
      </trkpt>
      <trkpt lat="44.88165" lon="5.24026">
        <ele>1348.87</ele>
        <time>2021-09-23T08:05:00Z</time>
      </trkpt>
      <trkpt lat="44.88152" lon="5.24024">
        <ele>1347.91</ele>
        <time>2021-09-23T08:05:14Z</time>
      </trkpt>
      <trkpt lat="44.88133" lon="5.24021">
        <ele>1346.94</ele>
        <time>2021-09-23T08:05:31Z</time>
      </trkpt>
      <trkpt lat="44.88112" lon="5.2402">
        <ele>1344.54</ele>
        <time>2021-09-23T08:05:49Z</time>
      </trkpt>
      <trkpt lat="44.88093" lon="5.24026">
        <ele>1342.62</ele>
        <time>2021-09-23T08:06:04Z</time>
      </trkpt>
      <trkpt lat="44.88073" lon="5.2403">
        <ele>1341.66</ele>
        <time>2021-09-23T08:06:20Z</time>
      </trkpt>
      <trkpt lat="44.88054" lon="5.24033">
        <ele>1341.66</ele>
        <time>2021-09-23T08:06:36Z</time>
      </trkpt>
      <trkpt lat="44.88033" lon="5.24043">
        <ele>1338.77</ele>
        <time>2021-09-23T08:06:57Z</time>
      </trkpt>
      <trkpt lat="44.88018" lon="5.24045">
        <ele>1336.37</ele>
        <time>2021-09-23T08:07:13Z</time>
      </trkpt>
      <trkpt lat="44.87998" lon="5.24053">
        <ele>1333.01</ele>
        <time>2021-09-23T08:07:32Z</time>
      </trkpt>
      <trkpt lat="44.87983" lon="5.24051">
        <ele>1333.01</ele>
        <time>2021-09-23T08:07:45Z</time>
      </trkpt>
      <trkpt lat="44.87969" lon="5.24053">
        <ele>1333.01</ele>
        <time>2021-09-23T08:07:58Z</time>
      </trkpt>
      <trkpt lat="44.8796" lon="5.24055">
        <ele>1332.52</ele>
        <time>2021-09-23T08:08:07Z</time>
      </trkpt>
      <trkpt lat="44.87942" lon="5.2405">
        <ele>1330.12</ele>
        <time>2021-09-23T08:08:24Z</time>
      </trkpt>
      <trkpt lat="44.87924" lon="5.24043">
        <ele>1329.16</ele>
        <time>2021-09-23T08:08:40Z</time>
      </trkpt>
      <trkpt lat="44.87907" lon="5.2403">
        <ele>1328.68</ele>
        <time>2021-09-23T08:08:57Z</time>
      </trkpt>
      <trkpt lat="44.879" lon="5.24024">
        <ele>1328.2</ele>
        <time>2021-09-23T08:09:04Z</time>
      </trkpt>
      <trkpt lat="44.87895" lon="5.24022">
        <ele>1327.24</ele>
        <time>2021-09-23T08:09:09Z</time>
      </trkpt>
      <trkpt lat="44.8789" lon="5.24019">
        <ele>1326.28</ele>
        <time>2021-09-23T08:09:13Z</time>
      </trkpt>
      <trkpt lat="44.87876" lon="5.24014">
        <ele>1323.39</ele>
        <time>2021-09-23T08:09:29Z</time>
      </trkpt>
      <trkpt lat="44.87865" lon="5.24011">
        <ele>1321.47</ele>
        <time>2021-09-23T08:09:38Z</time>
      </trkpt>
      <trkpt lat="44.87857" lon="5.2401">
        <ele>1320.51</ele>
        <time>2021-09-23T08:09:45Z</time>
      </trkpt>
      <trkpt lat="44.8783" lon="5.24009">
        <ele>1318.59</ele>
        <time>2021-09-23T08:10:04Z</time>
      </trkpt>
      <trkpt lat="44.87817" lon="5.24">
        <ele>1318.59</ele>
        <time>2021-09-23T08:10:18Z</time>
      </trkpt>
      <trkpt lat="44.87814" lon="5.23999">
        <ele>1318.59</ele>
        <time>2021-09-23T08:10:31Z</time>
      </trkpt>
      <trkpt lat="44.87814" lon="5.23997">
        <ele>1318.59</ele>
        <time>2021-09-23T08:10:51Z</time>
      </trkpt>
      <trkpt lat="44.87809" lon="5.23996">
        <ele>1318.1</ele>
        <time>2021-09-23T08:11:10Z</time>
      </trkpt>
      <trkpt lat="44.87802" lon="5.23996">
        <ele>1318.1</ele>
        <time>2021-09-23T08:11:17Z</time>
      </trkpt>
      <trkpt lat="44.87781" lon="5.23998">
        <ele>1318.1</ele>
        <time>2021-09-23T08:11:36Z</time>
      </trkpt>
      <trkpt lat="44.87767" lon="5.24002">
        <ele>1320.03</ele>
        <time>2021-09-23T08:11:53Z</time>
      </trkpt>
      <trkpt lat="44.87753" lon="5.24">
        <ele>1322.43</ele>
        <time>2021-09-23T08:12:08Z</time>
      </trkpt>
      <trkpt lat="44.87737" lon="5.24001">
        <ele>1322.91</ele>
        <time>2021-09-23T08:12:24Z</time>
      </trkpt>
      <trkpt lat="44.87729" lon="5.23999">
        <ele>1323.39</ele>
        <time>2021-09-23T08:12:32Z</time>
      </trkpt>
      <trkpt lat="44.87723" lon="5.23998">
        <ele>1325.31</ele>
        <time>2021-09-23T08:12:39Z</time>
      </trkpt>
      <trkpt lat="44.87719" lon="5.23999">
        <ele>1323.39</ele>
        <time>2021-09-23T08:12:43Z</time>
      </trkpt>
      <trkpt lat="44.87702" lon="5.23999">
        <ele>1323.39</ele>
        <time>2021-09-23T08:13:00Z</time>
      </trkpt>
      <trkpt lat="44.87683" lon="5.24002">
        <ele>1321.47</ele>
        <time>2021-09-23T08:13:18Z</time>
      </trkpt>
      <trkpt lat="44.87661" lon="5.24003">
        <ele>1319.55</ele>
        <time>2021-09-23T08:13:38Z</time>
      </trkpt>
      <trkpt lat="44.87647" lon="5.24001">
        <ele>1319.55</ele>
        <time>2021-09-23T08:13:51Z</time>
      </trkpt>
      <trkpt lat="44.87642" lon="5.24001">
        <ele>1319.55</ele>
        <time>2021-09-23T08:13:55Z</time>
      </trkpt>
      <trkpt lat="44.87624" lon="5.24005">
        <ele>1319.55</ele>
        <time>2021-09-23T08:14:12Z</time>
      </trkpt>
      <trkpt lat="44.87606" lon="5.24003">
        <ele>1320.51</ele>
        <time>2021-09-23T08:14:29Z</time>
      </trkpt>
      <trkpt lat="44.87589" lon="5.24004">
        <ele>1319.55</ele>
        <time>2021-09-23T08:14:45Z</time>
      </trkpt>
      <trkpt lat="44.87575" lon="5.24008">
        <ele>1319.07</ele>
        <time>2021-09-23T08:14:59Z</time>
      </trkpt>
      <trkpt lat="44.87557" lon="5.24015">
        <ele>1319.07</ele>
        <time>2021-09-23T08:15:16Z</time>
      </trkpt>
      <trkpt lat="44.87542" lon="5.24024">
        <ele>1318.59</ele>
        <time>2021-09-23T08:15:32Z</time>
      </trkpt>
      <trkpt lat="44.87523" lon="5.24035">
        <ele>1317.62</ele>
        <time>2021-09-23T08:15:51Z</time>
      </trkpt>
      <trkpt lat="44.87508" lon="5.24045">
        <ele>1316.66</ele>
        <time>2021-09-23T08:16:06Z</time>
      </trkpt>
      <trkpt lat="44.87489" lon="5.24056">
        <ele>1315.22</ele>
        <time>2021-09-23T08:16:24Z</time>
      </trkpt>
      <trkpt lat="44.87473" lon="5.24068">
        <ele>1312.34</ele>
        <time>2021-09-23T08:16:41Z</time>
      </trkpt>
      <trkpt lat="44.87451" lon="5.24082">
        <ele>1308.49</ele>
        <time>2021-09-23T08:17:00Z</time>
      </trkpt>
      <trkpt lat="44.87429" lon="5.24096">
        <ele>1306.57</ele>
        <time>2021-09-23T08:17:19Z</time>
      </trkpt>
      <trkpt lat="44.87414" lon="5.24105">
        <ele>1303.2</ele>
        <time>2021-09-23T08:17:32Z</time>
      </trkpt>
      <trkpt lat="44.87398" lon="5.24113">
        <ele>1300.8</ele>
        <time>2021-09-23T08:17:47Z</time>
      </trkpt>
      <trkpt lat="44.8738" lon="5.24115">
        <ele>1300.32</ele>
        <time>2021-09-23T08:18:03Z</time>
      </trkpt>
      <trkpt lat="44.87363" lon="5.24111">
        <ele>1299.84</ele>
        <time>2021-09-23T08:18:18Z</time>
      </trkpt>
      <trkpt lat="44.87337" lon="5.2411">
        <ele>1298.88</ele>
        <time>2021-09-23T08:18:41Z</time>
      </trkpt>
      <trkpt lat="44.87335" lon="5.24109">
        <ele>1299.84</ele>
        <time>2021-09-23T08:18:43Z</time>
      </trkpt>
      <trkpt lat="44.87318" lon="5.24097">
        <ele>1298.88</ele>
        <time>2021-09-23T08:19:00Z</time>
      </trkpt>
      <trkpt lat="44.87297" lon="5.24096">
        <ele>1297.44</ele>
        <time>2021-09-23T08:19:16Z</time>
      </trkpt>
      <trkpt lat="44.87291" lon="5.24096">
        <ele>1297.44</ele>
        <time>2021-09-23T08:19:22Z</time>
      </trkpt>
      <trkpt lat="44.87277" lon="5.24096">
        <ele>1297.44</ele>
        <time>2021-09-23T08:19:34Z</time>
      </trkpt>
      <trkpt lat="44.87263" lon="5.24096">
        <ele>1297.44</ele>
        <time>2021-09-23T08:19:47Z</time>
      </trkpt>
      <trkpt lat="44.87248" lon="5.24103">
        <ele>1297.44</ele>
        <time>2021-09-23T08:20:00Z</time>
      </trkpt>
      <trkpt lat="44.87232" lon="5.24113">
        <ele>1297.44</ele>
        <time>2021-09-23T08:20:16Z</time>
      </trkpt>
      <trkpt lat="44.87221" lon="5.2412">
        <ele>1298.88</ele>
        <time>2021-09-23T08:20:31Z</time>
      </trkpt>
      <trkpt lat="44.8722" lon="5.2412">
        <ele>1298.88</ele>
        <time>2021-09-23T08:20:32Z</time>
      </trkpt>
      <trkpt lat="44.87213" lon="5.24122">
        <ele>1300.32</ele>
        <time>2021-09-23T08:20:40Z</time>
      </trkpt>
      <trkpt lat="44.87199" lon="5.2413">
        <ele>1302.24</ele>
        <time>2021-09-23T08:20:55Z</time>
      </trkpt>
      <trkpt lat="44.87188" lon="5.24134">
        <ele>1304.65</ele>
        <time>2021-09-23T08:21:09Z</time>
      </trkpt>
      <trkpt lat="44.87177" lon="5.24141">
        <ele>1308.01</ele>
        <time>2021-09-23T08:21:23Z</time>
      </trkpt>
      <trkpt lat="44.87167" lon="5.24147">
        <ele>1310.9</ele>
        <time>2021-09-23T08:21:37Z</time>
      </trkpt>
      <trkpt lat="44.87158" lon="5.24155">
        <ele>1312.82</ele>
        <time>2021-09-23T08:21:52Z</time>
      </trkpt>
      <trkpt lat="44.87158" lon="5.24157">
        <ele>1313.3</ele>
        <time>2021-09-23T08:22:05Z</time>
      </trkpt>
      <trkpt lat="44.87155" lon="5.24158">
        <ele>1313.3</ele>
        <time>2021-09-23T08:22:27Z</time>
      </trkpt>
      <trkpt lat="44.87145" lon="5.24157">
        <ele>1316.18</ele>
        <time>2021-09-23T08:22:42Z</time>
      </trkpt>
      <trkpt lat="44.87134" lon="5.24159">
        <ele>1319.07</ele>
        <time>2021-09-23T08:22:57Z</time>
      </trkpt>
      <trkpt lat="44.87125" lon="5.2416">
        <ele>1321.47</ele>
        <time>2021-09-23T08:23:11Z</time>
      </trkpt>
      <trkpt lat="44.87114" lon="5.24162">
        <ele>1323.39</ele>
        <time>2021-09-23T08:23:25Z</time>
      </trkpt>
      <trkpt lat="44.87102" lon="5.24165">
        <ele>1325.8</ele>
        <time>2021-09-23T08:23:40Z</time>
      </trkpt>
      <trkpt lat="44.87091" lon="5.24166">
        <ele>1326.76</ele>
        <time>2021-09-23T08:23:53Z</time>
      </trkpt>
      <trkpt lat="44.87078" lon="5.24165">
        <ele>1328.2</ele>
        <time>2021-09-23T08:24:08Z</time>
      </trkpt>
      <trkpt lat="44.87064" lon="5.24166">
        <ele>1330.6</ele>
        <time>2021-09-23T08:24:22Z</time>
      </trkpt>
      <trkpt lat="44.87049" lon="5.24166">
        <ele>1332.04</ele>
        <time>2021-09-23T08:24:37Z</time>
      </trkpt>
      <trkpt lat="44.87036" lon="5.24167">
        <ele>1333.49</ele>
        <time>2021-09-23T08:24:52Z</time>
      </trkpt>
      <trkpt lat="44.87019" lon="5.24167">
        <ele>1335.89</ele>
        <time>2021-09-23T08:25:09Z</time>
      </trkpt>
      <trkpt lat="44.87004" lon="5.24168">
        <ele>1337.81</ele>
        <time>2021-09-23T08:25:26Z</time>
      </trkpt>
      <trkpt lat="44.8699" lon="5.24168">
        <ele>1339.25</ele>
        <time>2021-09-23T08:25:40Z</time>
      </trkpt>
      <trkpt lat="44.86975" lon="5.24173">
        <ele>1340.7</ele>
        <time>2021-09-23T08:25:55Z</time>
      </trkpt>
      <trkpt lat="44.86967" lon="5.24177">
        <ele>1341.18</ele>
        <time>2021-09-23T08:26:04Z</time>
      </trkpt>
      <trkpt lat="44.86953" lon="5.24182">
        <ele>1342.62</ele>
        <time>2021-09-23T08:26:19Z</time>
      </trkpt>
      <trkpt lat="44.86939" lon="5.24188">
        <ele>1344.06</ele>
        <time>2021-09-23T08:26:33Z</time>
      </trkpt>
      <trkpt lat="44.86938" lon="5.24189">
        <ele>1344.54</ele>
        <time>2021-09-23T08:26:34Z</time>
      </trkpt>
      <trkpt lat="44.86935" lon="5.2419">
        <ele>1344.54</ele>
        <time>2021-09-23T08:26:37Z</time>
      </trkpt>
      <trkpt lat="44.86933" lon="5.2419">
        <ele>1344.54</ele>
        <time>2021-09-23T08:26:39Z</time>
      </trkpt>
      <trkpt lat="44.86912" lon="5.24199">
        <ele>1345.5</ele>
        <time>2021-09-23T08:26:59Z</time>
      </trkpt>
      <trkpt lat="44.86908" lon="5.24201">
        <ele>1346.46</ele>
        <time>2021-09-23T08:27:03Z</time>
      </trkpt>
      <trkpt lat="44.86891" lon="5.24209">
        <ele>1346.46</ele>
        <time>2021-09-23T08:27:19Z</time>
      </trkpt>
      <trkpt lat="44.86877" lon="5.2422">
        <ele>1346.94</ele>
        <time>2021-09-23T08:27:35Z</time>
      </trkpt>
      <trkpt lat="44.86864" lon="5.24227">
        <ele>1347.91</ele>
        <time>2021-09-23T08:27:48Z</time>
      </trkpt>
      <trkpt lat="44.86848" lon="5.24235">
        <ele>1349.35</ele>
        <time>2021-09-23T08:28:03Z</time>
      </trkpt>
      <trkpt lat="44.86833" lon="5.24241">
        <ele>1350.79</ele>
        <time>2021-09-23T08:28:19Z</time>
      </trkpt>
      <trkpt lat="44.86832" lon="5.2424">
        <ele>1351.27</ele>
        <time>2021-09-23T08:28:20Z</time>
      </trkpt>
      <trkpt lat="44.86822" lon="5.2424">
        <ele>1354.15</ele>
        <time>2021-09-23T08:28:35Z</time>
      </trkpt>
      <trkpt lat="44.86812" lon="5.2424">
        <ele>1357.52</ele>
        <time>2021-09-23T08:28:48Z</time>
      </trkpt>
      <trkpt lat="44.86798" lon="5.24241">
        <ele>1359.92</ele>
        <time>2021-09-23T08:29:05Z</time>
      </trkpt>
      <trkpt lat="44.86788" lon="5.2424">
        <ele>1361.84</ele>
        <time>2021-09-23T08:29:17Z</time>
      </trkpt>
      <trkpt lat="44.86776" lon="5.24237">
        <ele>1364.73</ele>
        <time>2021-09-23T08:29:34Z</time>
      </trkpt>
      <trkpt lat="44.86767" lon="5.24234">
        <ele>1367.61</ele>
        <time>2021-09-23T08:29:47Z</time>
      </trkpt>
      <trkpt lat="44.86755" lon="5.24229">
        <ele>1368.09</ele>
        <time>2021-09-23T08:30:03Z</time>
      </trkpt>
      <trkpt lat="44.86749" lon="5.24228">
        <ele>1369.05</ele>
        <time>2021-09-23T08:30:10Z</time>
      </trkpt>
      <trkpt lat="44.86735" lon="5.2423">
        <ele>1370.02</ele>
        <time>2021-09-23T08:30:25Z</time>
      </trkpt>
      <trkpt lat="44.86728" lon="5.24232">
        <ele>1371.46</ele>
        <time>2021-09-23T08:30:33Z</time>
      </trkpt>
      <trkpt lat="44.86719" lon="5.24235">
        <ele>1370.5</ele>
        <time>2021-09-23T08:30:43Z</time>
      </trkpt>
      <trkpt lat="44.86716" lon="5.24236">
        <ele>1372.42</ele>
        <time>2021-09-23T08:30:46Z</time>
      </trkpt>
      <trkpt lat="44.86713" lon="5.24237">
        <ele>1372.42</ele>
        <time>2021-09-23T08:30:49Z</time>
      </trkpt>
      <trkpt lat="44.86711" lon="5.24239">
        <ele>1370.98</ele>
        <time>2021-09-23T08:30:52Z</time>
      </trkpt>
      <trkpt lat="44.86704" lon="5.24244">
        <ele>1372.42</ele>
        <time>2021-09-23T08:31:02Z</time>
      </trkpt>
      <trkpt lat="44.86704" lon="5.24246">
        <ele>1370.98</ele>
        <time>2021-09-23T08:31:08Z</time>
      </trkpt>
      <trkpt lat="44.86704" lon="5.24245">
        <ele>1370.98</ele>
        <time>2021-09-23T08:31:17Z</time>
      </trkpt>
      <trkpt lat="44.86704" lon="5.24245">
        <ele>1374.34</ele>
        <time>2021-09-23T08:31:19Z</time>
      </trkpt>
      <trkpt lat="44.86703" lon="5.24244">
        <ele>1372.42</ele>
        <time>2021-09-23T08:31:42Z</time>
      </trkpt>
      <trkpt lat="44.86703" lon="5.24245">
        <ele>1372.42</ele>
        <time>2021-09-23T08:32:08Z</time>
      </trkpt>
      <trkpt lat="44.86703" lon="5.24247">
        <ele>1371.46</ele>
        <time>2021-09-23T08:32:37Z</time>
      </trkpt>
      <trkpt lat="44.86699" lon="5.24253">
        <ele>1372.42</ele>
        <time>2021-09-23T08:32:55Z</time>
      </trkpt>
      <trkpt lat="44.86697" lon="5.24255">
        <ele>1371.46</ele>
        <time>2021-09-23T08:33:02Z</time>
      </trkpt>
      <trkpt lat="44.86694" lon="5.24257">
        <ele>1373.38</ele>
        <time>2021-09-23T08:33:10Z</time>
      </trkpt>
      <trkpt lat="44.86693" lon="5.24259">
        <ele>1371.46</ele>
        <time>2021-09-23T08:33:16Z</time>
      </trkpt>
      <trkpt lat="44.86692" lon="5.24262">
        <ele>1372.9</ele>
        <time>2021-09-23T08:33:19Z</time>
      </trkpt>
      <trkpt lat="44.86683" lon="5.24275">
        <ele>1372.42</ele>
        <time>2021-09-23T08:33:34Z</time>
      </trkpt>
      <trkpt lat="44.86677" lon="5.24284">
        <ele>1370.98</ele>
        <time>2021-09-23T08:33:43Z</time>
      </trkpt>
      <trkpt lat="44.86675" lon="5.24286">
        <ele>1372.42</ele>
        <time>2021-09-23T08:33:45Z</time>
      </trkpt>
      <trkpt lat="44.86662" lon="5.24304">
        <ele>1373.86</ele>
        <time>2021-09-23T08:34:03Z</time>
      </trkpt>
      <trkpt lat="44.86648" lon="5.24323">
        <ele>1374.34</ele>
        <time>2021-09-23T08:34:20Z</time>
      </trkpt>
      <trkpt lat="44.86635" lon="5.2434">
        <ele>1374.82</ele>
        <time>2021-09-23T08:34:37Z</time>
      </trkpt>
      <trkpt lat="44.86624" lon="5.24356">
        <ele>1376.26</ele>
        <time>2021-09-23T08:34:51Z</time>
      </trkpt>
      <trkpt lat="44.86612" lon="5.24373">
        <ele>1377.23</ele>
        <time>2021-09-23T08:35:07Z</time>
      </trkpt>
      <trkpt lat="44.86602" lon="5.24389">
        <ele>1378.67</ele>
        <time>2021-09-23T08:35:22Z</time>
      </trkpt>
      <trkpt lat="44.86596" lon="5.24402">
        <ele>1378.19</ele>
        <time>2021-09-23T08:35:36Z</time>
      </trkpt>
      <trkpt lat="44.86592" lon="5.24409">
        <ele>1377.23</ele>
        <time>2021-09-23T08:35:43Z</time>
      </trkpt>
      <trkpt lat="44.86589" lon="5.24413">
        <ele>1376.75</ele>
        <time>2021-09-23T08:35:47Z</time>
      </trkpt>
      <trkpt lat="44.86582" lon="5.24429">
        <ele>1376.75</ele>
        <time>2021-09-23T08:35:58Z</time>
      </trkpt>
      <trkpt lat="44.86573" lon="5.24449">
        <ele>1378.19</ele>
        <time>2021-09-23T08:36:14Z</time>
      </trkpt>
      <trkpt lat="44.86564" lon="5.24472">
        <ele>1378.67</ele>
        <time>2021-09-23T08:36:30Z</time>
      </trkpt>
      <trkpt lat="44.86554" lon="5.24496">
        <ele>1379.63</ele>
        <time>2021-09-23T08:36:47Z</time>
      </trkpt>
      <trkpt lat="44.86545" lon="5.2452">
        <ele>1380.11</ele>
        <time>2021-09-23T08:37:04Z</time>
      </trkpt>
      <trkpt lat="44.86535" lon="5.24539">
        <ele>1380.59</ele>
        <time>2021-09-23T08:37:19Z</time>
      </trkpt>
      <trkpt lat="44.86531" lon="5.24547">
        <ele>1382.03</ele>
        <time>2021-09-23T08:37:25Z</time>
      </trkpt>
      <trkpt lat="44.86522" lon="5.24568">
        <ele>1383.96</ele>
        <time>2021-09-23T08:37:42Z</time>
      </trkpt>
      <trkpt lat="44.86512" lon="5.24591">
        <ele>1385.88</ele>
        <time>2021-09-23T08:37:59Z</time>
      </trkpt>
      <trkpt lat="44.86503" lon="5.24616">
        <ele>1386.36</ele>
        <time>2021-09-23T08:38:17Z</time>
      </trkpt>
      <trkpt lat="44.86494" lon="5.24643">
        <ele>1386.84</ele>
        <time>2021-09-23T08:38:35Z</time>
      </trkpt>
      <trkpt lat="44.86484" lon="5.2467">
        <ele>1385.4</ele>
        <time>2021-09-23T08:38:54Z</time>
      </trkpt>
      <trkpt lat="44.86482" lon="5.24675">
        <ele>1386.84</ele>
        <time>2021-09-23T08:38:58Z</time>
      </trkpt>
      <trkpt lat="44.86473" lon="5.24695">
        <ele>1385.88</ele>
        <time>2021-09-23T08:39:12Z</time>
      </trkpt>
      <trkpt lat="44.86463" lon="5.24719">
        <ele>1387.32</ele>
        <time>2021-09-23T08:39:28Z</time>
      </trkpt>
      <trkpt lat="44.86448" lon="5.2474">
        <ele>1388.28</ele>
        <time>2021-09-23T08:39:47Z</time>
      </trkpt>
      <trkpt lat="44.86441" lon="5.24749">
        <ele>1386.84</ele>
        <time>2021-09-23T08:39:56Z</time>
      </trkpt>
      <trkpt lat="44.86432" lon="5.2476">
        <ele>1390.2</ele>
        <time>2021-09-23T08:40:07Z</time>
      </trkpt>
      <trkpt lat="44.86421" lon="5.24774">
        <ele>1391.65</ele>
        <time>2021-09-23T08:40:22Z</time>
      </trkpt>
      <trkpt lat="44.86408" lon="5.24785">
        <ele>1393.57</ele>
        <time>2021-09-23T08:40:38Z</time>
      </trkpt>
      <trkpt lat="44.86396" lon="5.24795">
        <ele>1395.49</ele>
        <time>2021-09-23T08:40:53Z</time>
      </trkpt>
      <trkpt lat="44.86386" lon="5.24805">
        <ele>1396.93</ele>
        <time>2021-09-23T08:41:07Z</time>
      </trkpt>
      <trkpt lat="44.86372" lon="5.2481">
        <ele>1398.86</ele>
        <time>2021-09-23T08:41:22Z</time>
      </trkpt>
      <trkpt lat="44.86354" lon="5.24816">
        <ele>1399.82</ele>
        <time>2021-09-23T08:41:40Z</time>
      </trkpt>
      <trkpt lat="44.8634" lon="5.24821">
        <ele>1401.26</ele>
        <time>2021-09-23T08:41:56Z</time>
      </trkpt>
      <trkpt lat="44.86325" lon="5.24826">
        <ele>1402.7</ele>
        <time>2021-09-23T08:42:12Z</time>
      </trkpt>
      <trkpt lat="44.86311" lon="5.24835">
        <ele>1404.14</ele>
        <time>2021-09-23T08:42:28Z</time>
      </trkpt>
      <trkpt lat="44.86308" lon="5.24838">
        <ele>1406.07</ele>
        <time>2021-09-23T08:42:32Z</time>
      </trkpt>
      <trkpt lat="44.86307" lon="5.2484">
        <ele>1406.07</ele>
        <time>2021-09-23T08:42:35Z</time>
      </trkpt>
      <trkpt lat="44.86296" lon="5.24851">
        <ele>1409.91</ele>
        <time>2021-09-23T08:42:51Z</time>
      </trkpt>
      <trkpt lat="44.86289" lon="5.24861">
        <ele>1412.79</ele>
        <time>2021-09-23T08:43:07Z</time>
      </trkpt>
      <trkpt lat="44.86279" lon="5.24871">
        <ele>1415.2</ele>
        <time>2021-09-23T08:43:23Z</time>
      </trkpt>
      <trkpt lat="44.86272" lon="5.24879">
        <ele>1418.08</ele>
        <time>2021-09-23T08:43:39Z</time>
      </trkpt>
      <trkpt lat="44.86261" lon="5.24888">
        <ele>1420.49</ele>
        <time>2021-09-23T08:43:56Z</time>
      </trkpt>
      <trkpt lat="44.86254" lon="5.24896">
        <ele>1424.33</ele>
        <time>2021-09-23T08:44:10Z</time>
      </trkpt>
      <trkpt lat="44.86248" lon="5.24904">
        <ele>1427.21</ele>
        <time>2021-09-23T08:44:25Z</time>
      </trkpt>
      <trkpt lat="44.8624" lon="5.24913">
        <ele>1429.14</ele>
        <time>2021-09-23T08:44:40Z</time>
      </trkpt>
      <trkpt lat="44.86231" lon="5.24922">
        <ele>1432.02</ele>
        <time>2021-09-23T08:44:57Z</time>
      </trkpt>
      <trkpt lat="44.86222" lon="5.2493">
        <ele>1435.39</ele>
        <time>2021-09-23T08:45:12Z</time>
      </trkpt>
      <trkpt lat="44.86214" lon="5.24943">
        <ele>1437.31</ele>
        <time>2021-09-23T08:45:31Z</time>
      </trkpt>
      <trkpt lat="44.86208" lon="5.24949">
        <ele>1440.67</ele>
        <time>2021-09-23T08:45:41Z</time>
      </trkpt>
      <trkpt lat="44.86199" lon="5.24959">
        <ele>1443.08</ele>
        <time>2021-09-23T08:45:59Z</time>
      </trkpt>
      <trkpt lat="44.86188" lon="5.24969">
        <ele>1446.44</ele>
        <time>2021-09-23T08:46:17Z</time>
      </trkpt>
      <trkpt lat="44.86182" lon="5.24977">
        <ele>1449.32</ele>
        <time>2021-09-23T08:46:31Z</time>
      </trkpt>
      <trkpt lat="44.86181" lon="5.24978">
        <ele>1449.32</ele>
        <time>2021-09-23T08:46:32Z</time>
      </trkpt>
      <trkpt lat="44.86171" lon="5.24989">
        <ele>1452.21</ele>
        <time>2021-09-23T08:46:50Z</time>
      </trkpt>
      <trkpt lat="44.86166" lon="5.24994">
        <ele>1452.69</ele>
        <time>2021-09-23T08:46:58Z</time>
      </trkpt>
      <trkpt lat="44.86164" lon="5.24996">
        <ele>1454.13</ele>
        <time>2021-09-23T08:47:01Z</time>
      </trkpt>
      <trkpt lat="44.86163" lon="5.24998">
        <ele>1455.57</ele>
        <time>2021-09-23T08:47:04Z</time>
      </trkpt>
      <trkpt lat="44.86161" lon="5.25001">
        <ele>1456.53</ele>
        <time>2021-09-23T08:47:08Z</time>
      </trkpt>
      <trkpt lat="44.86156" lon="5.25008">
        <ele>1459.42</ele>
        <time>2021-09-23T08:47:16Z</time>
      </trkpt>
      <trkpt lat="44.86156" lon="5.25009">
        <ele>1459.42</ele>
        <time>2021-09-23T08:47:17Z</time>
      </trkpt>
      <trkpt lat="44.86148" lon="5.25021">
        <ele>1460.86</ele>
        <time>2021-09-23T08:47:34Z</time>
      </trkpt>
      <trkpt lat="44.86147" lon="5.25023">
        <ele>1461.82</ele>
        <time>2021-09-23T08:47:36Z</time>
      </trkpt>
      <trkpt lat="44.86143" lon="5.25028">
        <ele>1463.74</ele>
        <time>2021-09-23T08:47:45Z</time>
      </trkpt>
      <trkpt lat="44.8614" lon="5.25033">
        <ele>1465.19</ele>
        <time>2021-09-23T08:47:51Z</time>
      </trkpt>
      <trkpt lat="44.86133" lon="5.25046">
        <ele>1466.15</ele>
        <time>2021-09-23T08:48:05Z</time>
      </trkpt>
      <trkpt lat="44.86132" lon="5.2506">
        <ele>1468.55</ele>
        <time>2021-09-23T08:48:19Z</time>
      </trkpt>
      <trkpt lat="44.8613" lon="5.2507">
        <ele>1470.47</ele>
        <time>2021-09-23T08:48:34Z</time>
      </trkpt>
      <trkpt lat="44.86128" lon="5.25074">
        <ele>1470.95</ele>
        <time>2021-09-23T08:54:16Z</time>
      </trkpt>
      <trkpt lat="44.86126" lon="5.25082">
        <ele>1469.51</ele>
        <time>2021-09-23T08:54:31Z</time>
      </trkpt>
      <trkpt lat="44.86125" lon="5.25111">
        <ele>1468.07</ele>
        <time>2021-09-23T08:54:49Z</time>
      </trkpt>
      <trkpt lat="44.86121" lon="5.25124">
        <ele>1469.03</ele>
        <time>2021-09-23T08:54:58Z</time>
      </trkpt>
      <trkpt lat="44.86111" lon="5.25144">
        <ele>1469.03</ele>
        <time>2021-09-23T08:55:14Z</time>
      </trkpt>
      <trkpt lat="44.86101" lon="5.25166">
        <ele>1469.99</ele>
        <time>2021-09-23T08:55:30Z</time>
      </trkpt>
      <trkpt lat="44.86087" lon="5.25184">
        <ele>1471.44</ele>
        <time>2021-09-23T08:55:47Z</time>
      </trkpt>
      <trkpt lat="44.86077" lon="5.25201">
        <ele>1471.92</ele>
        <time>2021-09-23T08:56:01Z</time>
      </trkpt>
      <trkpt lat="44.86065" lon="5.25219">
        <ele>1473.36</ele>
        <time>2021-09-23T08:56:17Z</time>
      </trkpt>
      <trkpt lat="44.8605" lon="5.25235">
        <ele>1474.8</ele>
        <time>2021-09-23T08:56:35Z</time>
      </trkpt>
      <trkpt lat="44.86035" lon="5.25248">
        <ele>1474.8</ele>
        <time>2021-09-23T08:56:51Z</time>
      </trkpt>
      <trkpt lat="44.86014" lon="5.25258">
        <ele>1475.76</ele>
        <time>2021-09-23T08:57:10Z</time>
      </trkpt>
      <trkpt lat="44.85999" lon="5.25264">
        <ele>1476.24</ele>
        <time>2021-09-23T08:57:25Z</time>
      </trkpt>
      <trkpt lat="44.8598" lon="5.25266">
        <ele>1476.72</ele>
        <time>2021-09-23T08:57:41Z</time>
      </trkpt>
      <trkpt lat="44.85961" lon="5.25269">
        <ele>1477.2</ele>
        <time>2021-09-23T08:57:58Z</time>
      </trkpt>
      <trkpt lat="44.85938" lon="5.25272">
        <ele>1477.68</ele>
        <time>2021-09-23T08:58:16Z</time>
      </trkpt>
      <trkpt lat="44.85927" lon="5.25272">
        <ele>1476.72</ele>
        <time>2021-09-23T08:58:25Z</time>
      </trkpt>
      <trkpt lat="44.85907" lon="5.25278">
        <ele>1476.24</ele>
        <time>2021-09-23T08:58:42Z</time>
      </trkpt>
      <trkpt lat="44.85889" lon="5.25284">
        <ele>1477.68</ele>
        <time>2021-09-23T08:58:58Z</time>
      </trkpt>
      <trkpt lat="44.85873" lon="5.25289">
        <ele>1480.09</ele>
        <time>2021-09-23T08:59:14Z</time>
      </trkpt>
      <trkpt lat="44.85862" lon="5.25294">
        <ele>1482.01</ele>
        <time>2021-09-23T08:59:27Z</time>
      </trkpt>
      <trkpt lat="44.85849" lon="5.25299">
        <ele>1483.93</ele>
        <time>2021-09-23T08:59:41Z</time>
      </trkpt>
      <trkpt lat="44.85837" lon="5.25302">
        <ele>1485.85</ele>
        <time>2021-09-23T08:59:54Z</time>
      </trkpt>
      <trkpt lat="44.85823" lon="5.25305">
        <ele>1487.78</ele>
        <time>2021-09-23T09:00:07Z</time>
      </trkpt>
      <trkpt lat="44.85812" lon="5.25306">
        <ele>1489.7</ele>
        <time>2021-09-23T09:00:20Z</time>
      </trkpt>
      <trkpt lat="44.85801" lon="5.25309">
        <ele>1492.1</ele>
        <time>2021-09-23T09:00:36Z</time>
      </trkpt>
      <trkpt lat="44.8579" lon="5.25312">
        <ele>1493.55</ele>
        <time>2021-09-23T09:04:22Z</time>
      </trkpt>
      <trkpt lat="44.85788" lon="5.25312">
        <ele>1493.55</ele>
        <time>2021-09-23T09:04:24Z</time>
      </trkpt>
      <trkpt lat="44.85782" lon="5.25312">
        <ele>1495.47</ele>
        <time>2021-09-23T09:04:31Z</time>
      </trkpt>
      <trkpt lat="44.8577" lon="5.25316">
        <ele>1495.95</ele>
        <time>2021-09-23T09:04:44Z</time>
      </trkpt>
      <trkpt lat="44.85754" lon="5.25321">
        <ele>1497.87</ele>
        <time>2021-09-23T09:04:59Z</time>
      </trkpt>
      <trkpt lat="44.85743" lon="5.25324">
        <ele>1498.35</ele>
        <time>2021-09-23T09:05:10Z</time>
      </trkpt>
      <trkpt lat="44.85727" lon="5.25325">
        <ele>1498.83</ele>
        <time>2021-09-23T09:05:24Z</time>
      </trkpt>
      <trkpt lat="44.8571" lon="5.25327">
        <ele>1497.39</ele>
        <time>2021-09-23T09:05:40Z</time>
      </trkpt>
      <trkpt lat="44.85696" lon="5.25333">
        <ele>1496.91</ele>
        <time>2021-09-23T09:05:55Z</time>
      </trkpt>
      <trkpt lat="44.85681" lon="5.25346">
        <ele>1495.47</ele>
        <time>2021-09-23T09:06:12Z</time>
      </trkpt>
      <trkpt lat="44.85669" lon="5.25352">
        <ele>1494.99</ele>
        <time>2021-09-23T09:06:29Z</time>
      </trkpt>
      <trkpt lat="44.85662" lon="5.25357">
        <ele>1494.51</ele>
        <time>2021-09-23T09:06:38Z</time>
      </trkpt>
      <trkpt lat="44.85648" lon="5.2537">
        <ele>1494.51</ele>
        <time>2021-09-23T09:06:55Z</time>
      </trkpt>
      <trkpt lat="44.85645" lon="5.25372">
        <ele>1496.43</ele>
        <time>2021-09-23T09:07:10Z</time>
      </trkpt>
      <trkpt lat="44.85646" lon="5.25372">
        <ele>1494.99</ele>
        <time>2021-09-23T09:07:14Z</time>
      </trkpt>
      <trkpt lat="44.85644" lon="5.25372">
        <ele>1496.91</ele>
        <time>2021-09-23T09:07:39Z</time>
      </trkpt>
      <trkpt lat="44.85644" lon="5.25372">
        <ele>1495.47</ele>
        <time>2021-09-23T09:07:44Z</time>
      </trkpt>
      <trkpt lat="44.85644" lon="5.25371">
        <ele>1495.47</ele>
        <time>2021-09-23T09:07:53Z</time>
      </trkpt>
      <trkpt lat="44.85643" lon="5.25372">
        <ele>1496.43</ele>
        <time>2021-09-23T09:08:05Z</time>
      </trkpt>
      <trkpt lat="44.85643" lon="5.25374">
        <ele>1493.55</ele>
        <time>2021-09-23T09:08:21Z</time>
      </trkpt>
      <trkpt lat="44.85641" lon="5.25378">
        <ele>1494.99</ele>
        <time>2021-09-23T09:08:25Z</time>
      </trkpt>
      <trkpt lat="44.85635" lon="5.2539">
        <ele>1492.1</ele>
        <time>2021-09-23T09:08:35Z</time>
      </trkpt>
      <trkpt lat="44.85626" lon="5.25401">
        <ele>1490.66</ele>
        <time>2021-09-23T09:08:48Z</time>
      </trkpt>
      <trkpt lat="44.85622" lon="5.25404">
        <ele>1492.1</ele>
        <time>2021-09-23T09:08:54Z</time>
      </trkpt>
      <trkpt lat="44.85621" lon="5.25404">
        <ele>1492.1</ele>
        <time>2021-09-23T09:09:10Z</time>
      </trkpt>
      <trkpt lat="44.85617" lon="5.25409">
        <ele>1490.66</ele>
        <time>2021-09-23T09:09:23Z</time>
      </trkpt>
      <trkpt lat="44.85606" lon="5.25428">
        <ele>1488.26</ele>
        <time>2021-09-23T09:09:40Z</time>
      </trkpt>
      <trkpt lat="44.85594" lon="5.25446">
        <ele>1484.89</ele>
        <time>2021-09-23T09:09:56Z</time>
      </trkpt>
      <trkpt lat="44.85592" lon="5.25451">
        <ele>1483.45</ele>
        <time>2021-09-23T09:10:00Z</time>
      </trkpt>
      <trkpt lat="44.85588" lon="5.25457">
        <ele>1482.01</ele>
        <time>2021-09-23T09:10:05Z</time>
      </trkpt>
      <trkpt lat="44.85577" lon="5.25479">
        <ele>1479.61</ele>
        <time>2021-09-23T09:10:22Z</time>
      </trkpt>
      <trkpt lat="44.85567" lon="5.25499">
        <ele>1476.24</ele>
        <time>2021-09-23T09:10:36Z</time>
      </trkpt>
      <trkpt lat="44.85555" lon="5.25519">
        <ele>1473.36</ele>
        <time>2021-09-23T09:10:52Z</time>
      </trkpt>
      <trkpt lat="44.85547" lon="5.25531">
        <ele>1470.95</ele>
        <time>2021-09-23T09:11:02Z</time>
      </trkpt>
      <trkpt lat="44.85538" lon="5.25541">
        <ele>1468.07</ele>
        <time>2021-09-23T09:11:11Z</time>
      </trkpt>
      <trkpt lat="44.85528" lon="5.25553">
        <ele>1464.71</ele>
        <time>2021-09-23T09:11:23Z</time>
      </trkpt>
      <trkpt lat="44.8552" lon="5.25561">
        <ele>1462.3</ele>
        <time>2021-09-23T09:11:32Z</time>
      </trkpt>
      <trkpt lat="44.85513" lon="5.25567">
        <ele>1459.42</ele>
        <time>2021-09-23T09:11:39Z</time>
      </trkpt>
      <trkpt lat="44.85505" lon="5.25575">
        <ele>1456.05</ele>
        <time>2021-09-23T09:11:48Z</time>
      </trkpt>
      <trkpt lat="44.85499" lon="5.25579">
        <ele>1454.61</ele>
        <time>2021-09-23T09:11:54Z</time>
      </trkpt>
      <trkpt lat="44.85484" lon="5.25587">
        <ele>1451.25</ele>
        <time>2021-09-23T09:12:08Z</time>
      </trkpt>
      <trkpt lat="44.85472" lon="5.25592">
        <ele>1448.36</ele>
        <time>2021-09-23T09:12:19Z</time>
      </trkpt>
      <trkpt lat="44.8547" lon="5.25592">
        <ele>1447.4</ele>
        <time>2021-09-23T09:12:21Z</time>
      </trkpt>
      <trkpt lat="44.85465" lon="5.25594">
        <ele>1446.92</ele>
        <time>2021-09-23T09:12:26Z</time>
      </trkpt>
      <trkpt lat="44.85451" lon="5.25609">
        <ele>1443.56</ele>
        <time>2021-09-23T09:12:42Z</time>
      </trkpt>
      <trkpt lat="44.85437" lon="5.25628">
        <ele>1441.15</ele>
        <time>2021-09-23T09:12:58Z</time>
      </trkpt>
      <trkpt lat="44.85422" lon="5.25649">
        <ele>1438.75</ele>
        <time>2021-09-23T09:13:16Z</time>
      </trkpt>
      <trkpt lat="44.85404" lon="5.25673">
        <ele>1436.83</ele>
        <time>2021-09-23T09:13:35Z</time>
      </trkpt>
      <trkpt lat="44.85395" lon="5.25683">
        <ele>1435.39</ele>
        <time>2021-09-23T09:13:45Z</time>
      </trkpt>
      <trkpt lat="44.85376" lon="5.25705">
        <ele>1434.42</ele>
        <time>2021-09-23T09:14:05Z</time>
      </trkpt>
      <trkpt lat="44.85359" lon="5.25725">
        <ele>1433.94</ele>
        <time>2021-09-23T09:14:22Z</time>
      </trkpt>
      <trkpt lat="44.85344" lon="5.2574">
        <ele>1432.98</ele>
        <time>2021-09-23T09:14:38Z</time>
      </trkpt>
      <trkpt lat="44.85342" lon="5.2575">
        <ele>1432.02</ele>
        <time>2021-09-23T09:14:46Z</time>
      </trkpt>
      <trkpt lat="44.85348" lon="5.25765">
        <ele>1429.14</ele>
        <time>2021-09-23T09:14:58Z</time>
      </trkpt>
      <trkpt lat="44.85355" lon="5.2578">
        <ele>1425.77</ele>
        <time>2021-09-23T09:15:09Z</time>
      </trkpt>
      <trkpt lat="44.85361" lon="5.25794">
        <ele>1422.41</ele>
        <time>2021-09-23T09:15:19Z</time>
      </trkpt>
      <trkpt lat="44.85368" lon="5.25808">
        <ele>1419.52</ele>
        <time>2021-09-23T09:15:30Z</time>
      </trkpt>
      <trkpt lat="44.85376" lon="5.25827">
        <ele>1416.16</ele>
        <time>2021-09-23T09:15:43Z</time>
      </trkpt>
      <trkpt lat="44.85386" lon="5.25848">
        <ele>1412.79</ele>
        <time>2021-09-23T09:15:58Z</time>
      </trkpt>
      <trkpt lat="44.85402" lon="5.25877">
        <ele>1409.91</ele>
        <time>2021-09-23T09:16:19Z</time>
      </trkpt>
      <trkpt lat="44.85412" lon="5.25886">
        <ele>1408.95</ele>
        <time>2021-09-23T09:16:28Z</time>
      </trkpt>
      <trkpt lat="44.85429" lon="5.25901">
        <ele>1407.03</ele>
        <time>2021-09-23T09:16:44Z</time>
      </trkpt>
      <trkpt lat="44.8545" lon="5.25917">
        <ele>1405.58</ele>
        <time>2021-09-23T09:17:02Z</time>
      </trkpt>
      <trkpt lat="44.8547" lon="5.25935">
        <ele>1404.14</ele>
        <time>2021-09-23T09:17:21Z</time>
      </trkpt>
      <trkpt lat="44.85472" lon="5.25935">
        <ele>1404.14</ele>
        <time>2021-09-23T09:17:22Z</time>
      </trkpt>
      <trkpt lat="44.85484" lon="5.25945">
        <ele>1404.14</ele>
        <time>2021-09-23T09:17:33Z</time>
      </trkpt>
      <trkpt lat="44.85485" lon="5.25945">
        <ele>1404.14</ele>
        <time>2021-09-23T09:17:34Z</time>
      </trkpt>
      <trkpt lat="44.85497" lon="5.25956">
        <ele>1403.66</ele>
        <time>2021-09-23T09:17:45Z</time>
      </trkpt>
      <trkpt lat="44.85502" lon="5.25958">
        <ele>1403.66</ele>
        <time>2021-09-23T09:17:49Z</time>
      </trkpt>
      <trkpt lat="44.85504" lon="5.2596">
        <ele>1403.66</ele>
        <time>2021-09-23T09:17:51Z</time>
      </trkpt>
      <trkpt lat="44.85516" lon="5.25968">
        <ele>1402.7</ele>
        <time>2021-09-23T09:18:01Z</time>
      </trkpt>
      <trkpt lat="44.85524" lon="5.25974">
        <ele>1402.22</ele>
        <time>2021-09-23T09:18:09Z</time>
      </trkpt>
      <trkpt lat="44.85525" lon="5.25975">
        <ele>1401.74</ele>
        <time>2021-09-23T09:18:10Z</time>
      </trkpt>
      <trkpt lat="44.85535" lon="5.25981">
        <ele>1400.78</ele>
        <time>2021-09-23T09:18:20Z</time>
      </trkpt>
      <trkpt lat="44.85545" lon="5.25993">
        <ele>1402.22</ele>
        <time>2021-09-23T09:18:34Z</time>
      </trkpt>
      <trkpt lat="44.85547" lon="5.25998">
        <ele>1403.18</ele>
        <time>2021-09-23T09:18:54Z</time>
      </trkpt>
      <trkpt lat="44.8555" lon="5.26">
        <ele>1403.66</ele>
        <time>2021-09-23T09:19:09Z</time>
      </trkpt>
      <trkpt lat="44.85558" lon="5.26006">
        <ele>1404.14</ele>
        <time>2021-09-23T09:19:22Z</time>
      </trkpt>
      <trkpt lat="44.8556" lon="5.26008">
        <ele>1404.14</ele>
        <time>2021-09-23T09:19:25Z</time>
      </trkpt>
      <trkpt lat="44.85566" lon="5.26014">
        <ele>1404.62</ele>
        <time>2021-09-23T09:19:32Z</time>
      </trkpt>
      <trkpt lat="44.85573" lon="5.26018">
        <ele>1404.62</ele>
        <time>2021-09-23T09:19:39Z</time>
      </trkpt>
      <trkpt lat="44.85574" lon="5.26019">
        <ele>1404.62</ele>
        <time>2021-09-23T09:19:40Z</time>
      </trkpt>
      <trkpt lat="44.85576" lon="5.26021">
        <ele>1404.62</ele>
        <time>2021-09-23T09:19:42Z</time>
      </trkpt>
      <trkpt lat="44.85587" lon="5.26036">
        <ele>1405.1</ele>
        <time>2021-09-23T09:19:57Z</time>
      </trkpt>
      <trkpt lat="44.85599" lon="5.26047">
        <ele>1404.14</ele>
        <time>2021-09-23T09:20:10Z</time>
      </trkpt>
      <trkpt lat="44.85617" lon="5.26066">
        <ele>1401.74</ele>
        <time>2021-09-23T09:20:28Z</time>
      </trkpt>
      <trkpt lat="44.85632" lon="5.26087">
        <ele>1397.89</ele>
        <time>2021-09-23T09:20:45Z</time>
      </trkpt>
      <trkpt lat="44.85643" lon="5.2612">
        <ele>1395.49</ele>
        <time>2021-09-23T09:21:06Z</time>
      </trkpt>
      <trkpt lat="44.85649" lon="5.26143">
        <ele>1395.49</ele>
        <time>2021-09-23T09:21:20Z</time>
      </trkpt>
      <trkpt lat="44.85656" lon="5.26165">
        <ele>1396.93</ele>
        <time>2021-09-23T09:21:35Z</time>
      </trkpt>
      <trkpt lat="44.85661" lon="5.26183">
        <ele>1398.86</ele>
        <time>2021-09-23T09:21:49Z</time>
      </trkpt>
      <trkpt lat="44.85665" lon="5.26197">
        <ele>1402.22</ele>
        <time>2021-09-23T09:22:03Z</time>
      </trkpt>
      <trkpt lat="44.8567" lon="5.26215">
        <ele>1404.14</ele>
        <time>2021-09-23T09:22:21Z</time>
      </trkpt>
      <trkpt lat="44.85675" lon="5.26233">
        <ele>1407.03</ele>
        <time>2021-09-23T09:22:37Z</time>
      </trkpt>
      <trkpt lat="44.85682" lon="5.26251">
        <ele>1407.03</ele>
        <time>2021-09-23T09:22:51Z</time>
      </trkpt>
      <trkpt lat="44.85685" lon="5.2626">
        <ele>1405.58</ele>
        <time>2021-09-23T09:22:57Z</time>
      </trkpt>
      <trkpt lat="44.85694" lon="5.26286">
        <ele>1404.14</ele>
        <time>2021-09-23T09:23:15Z</time>
      </trkpt>
      <trkpt lat="44.85702" lon="5.26316">
        <ele>1402.7</ele>
        <time>2021-09-23T09:23:35Z</time>
      </trkpt>
      <trkpt lat="44.85708" lon="5.26337">
        <ele>1403.66</ele>
        <time>2021-09-23T09:23:50Z</time>
      </trkpt>
      <trkpt lat="44.85715" lon="5.26359">
        <ele>1404.62</ele>
        <time>2021-09-23T09:24:07Z</time>
      </trkpt>
      <trkpt lat="44.8572" lon="5.26376">
        <ele>1406.55</ele>
        <time>2021-09-23T09:24:22Z</time>
      </trkpt>
      <trkpt lat="44.85722" lon="5.2638">
        <ele>1407.03</ele>
        <time>2021-09-23T09:24:25Z</time>
      </trkpt>
      <trkpt lat="44.85729" lon="5.26401">
        <ele>1408.47</ele>
        <time>2021-09-23T09:24:41Z</time>
      </trkpt>
      <trkpt lat="44.85736" lon="5.2642">
        <ele>1410.87</ele>
        <time>2021-09-23T09:24:57Z</time>
      </trkpt>
      <trkpt lat="44.85741" lon="5.26436">
        <ele>1412.31</ele>
        <time>2021-09-23T09:25:12Z</time>
      </trkpt>
      <trkpt lat="44.85745" lon="5.26451">
        <ele>1413.76</ele>
        <time>2021-09-23T09:25:25Z</time>
      </trkpt>
      <trkpt lat="44.8575" lon="5.26464">
        <ele>1415.68</ele>
        <time>2021-09-23T09:25:37Z</time>
      </trkpt>
      <trkpt lat="44.8575" lon="5.26467">
        <ele>1416.16</ele>
        <time>2021-09-23T09:25:39Z</time>
      </trkpt>
      <trkpt lat="44.85755" lon="5.26485">
        <ele>1418.08</ele>
        <time>2021-09-23T09:25:54Z</time>
      </trkpt>
      <trkpt lat="44.8576" lon="5.26502">
        <ele>1419.52</ele>
        <time>2021-09-23T09:26:09Z</time>
      </trkpt>
      <trkpt lat="44.85766" lon="5.26519">
        <ele>1420.97</ele>
        <time>2021-09-23T09:26:24Z</time>
      </trkpt>
      <trkpt lat="44.85767" lon="5.26522">
        <ele>1421.93</ele>
        <time>2021-09-23T09:26:27Z</time>
      </trkpt>
      <trkpt lat="44.85773" lon="5.26534">
        <ele>1422.89</ele>
        <time>2021-09-23T09:26:39Z</time>
      </trkpt>
      <trkpt lat="44.85777" lon="5.26541">
        <ele>1422.89</ele>
        <time>2021-09-23T09:26:45Z</time>
      </trkpt>
      <trkpt lat="44.85778" lon="5.26544">
        <ele>1423.85</ele>
        <time>2021-09-23T09:26:48Z</time>
      </trkpt>
      <trkpt lat="44.85785" lon="5.26556">
        <ele>1425.29</ele>
        <time>2021-09-23T09:27:01Z</time>
      </trkpt>
      <trkpt lat="44.85786" lon="5.26558">
        <ele>1425.29</ele>
        <time>2021-09-23T09:27:03Z</time>
      </trkpt>
      <trkpt lat="44.8579" lon="5.26567">
        <ele>1425.77</ele>
        <time>2021-09-23T09:27:12Z</time>
      </trkpt>
      <trkpt lat="44.85795" lon="5.26578">
        <ele>1427.7</ele>
        <time>2021-09-23T09:27:24Z</time>
      </trkpt>
      <trkpt lat="44.85801" lon="5.2659">
        <ele>1429.62</ele>
        <time>2021-09-23T09:27:35Z</time>
      </trkpt>
      <trkpt lat="44.85807" lon="5.26605">
        <ele>1431.06</ele>
        <time>2021-09-23T09:27:49Z</time>
      </trkpt>
      <trkpt lat="44.85813" lon="5.26618">
        <ele>1432.98</ele>
        <time>2021-09-23T09:28:02Z</time>
      </trkpt>
      <trkpt lat="44.85819" lon="5.26629">
        <ele>1433.94</ele>
        <time>2021-09-23T09:28:13Z</time>
      </trkpt>
      <trkpt lat="44.85823" lon="5.26638">
        <ele>1435.39</ele>
        <time>2021-09-23T09:28:21Z</time>
      </trkpt>
      <trkpt lat="44.85828" lon="5.26648">
        <ele>1436.83</ele>
        <time>2021-09-23T09:28:32Z</time>
      </trkpt>
      <trkpt lat="44.85832" lon="5.26656">
        <ele>1437.79</ele>
        <time>2021-09-23T09:28:39Z</time>
      </trkpt>
      <trkpt lat="44.85837" lon="5.26668">
        <ele>1440.19</ele>
        <time>2021-09-23T09:28:51Z</time>
      </trkpt>
      <trkpt lat="44.85839" lon="5.26671">
        <ele>1440.19</ele>
        <time>2021-09-23T09:28:54Z</time>
      </trkpt>
      <trkpt lat="44.85841" lon="5.26676">
        <ele>1440.67</ele>
        <time>2021-09-23T09:28:58Z</time>
      </trkpt>
      <trkpt lat="44.85842" lon="5.26679">
        <ele>1440.67</ele>
        <time>2021-09-23T09:29:00Z</time>
      </trkpt>
      <trkpt lat="44.85844" lon="5.26682">
        <ele>1440.67</ele>
        <time>2021-09-23T09:29:03Z</time>
      </trkpt>
      <trkpt lat="44.8585" lon="5.26695">
        <ele>1441.63</ele>
        <time>2021-09-23T09:29:14Z</time>
      </trkpt>
      <trkpt lat="44.85855" lon="5.26707">
        <ele>1442.6</ele>
        <time>2021-09-23T09:29:25Z</time>
      </trkpt>
      <trkpt lat="44.85856" lon="5.26708">
        <ele>1442.6</ele>
        <time>2021-09-23T09:29:26Z</time>
      </trkpt>
      <trkpt lat="44.85863" lon="5.26725">
        <ele>1443.56</ele>
        <time>2021-09-23T09:29:39Z</time>
      </trkpt>
      <trkpt lat="44.85874" lon="5.26747">
        <ele>1442.11</ele>
        <time>2021-09-23T09:29:57Z</time>
      </trkpt>
      <trkpt lat="44.85875" lon="5.26748">
        <ele>1442.11</ele>
        <time>2021-09-23T09:29:58Z</time>
      </trkpt>
      <trkpt lat="44.85887" lon="5.26772">
        <ele>1441.63</ele>
        <time>2021-09-23T09:30:17Z</time>
      </trkpt>
      <trkpt lat="44.85899" lon="5.26795">
        <ele>1440.19</ele>
        <time>2021-09-23T09:30:36Z</time>
      </trkpt>
      <trkpt lat="44.85907" lon="5.26812">
        <ele>1439.71</ele>
        <time>2021-09-23T09:30:51Z</time>
      </trkpt>
      <trkpt lat="44.85906" lon="5.26815">
        <ele>1438.75</ele>
        <time>2021-09-23T09:30:57Z</time>
      </trkpt>
      <trkpt lat="44.85906" lon="5.26817">
        <ele>1438.75</ele>
        <time>2021-09-23T09:30:58Z</time>
      </trkpt>
      <trkpt lat="44.85903" lon="5.26823">
        <ele>1438.75</ele>
        <time>2021-09-23T09:31:04Z</time>
      </trkpt>
      <trkpt lat="44.85902" lon="5.26826">
        <ele>1438.75</ele>
        <time>2021-09-23T09:31:07Z</time>
      </trkpt>
      <trkpt lat="44.85898" lon="5.2683">
        <ele>1438.75</ele>
        <time>2021-09-23T09:31:11Z</time>
      </trkpt>
      <trkpt lat="44.85896" lon="5.26834">
        <ele>1438.27</ele>
        <time>2021-09-23T09:31:23Z</time>
      </trkpt>
      <trkpt lat="44.85896" lon="5.26834">
        <ele>1437.79</ele>
        <time>2021-09-23T09:31:39Z</time>
      </trkpt>
      <trkpt lat="44.85896" lon="5.26834">
        <ele>1439.23</ele>
        <time>2021-09-23T09:31:42Z</time>
      </trkpt>
      <trkpt lat="44.85896" lon="5.26835">
        <ele>1437.31</ele>
        <time>2021-09-23T09:31:47Z</time>
      </trkpt>
      <trkpt lat="44.85896" lon="5.26835">
        <ele>1438.27</ele>
        <time>2021-09-23T09:31:49Z</time>
      </trkpt>
      <trkpt lat="44.85898" lon="5.26834">
        <ele>1439.71</ele>
        <time>2021-09-23T09:32:03Z</time>
      </trkpt>
      <trkpt lat="44.85901" lon="5.26837">
        <ele>1439.71</ele>
        <time>2021-09-23T09:32:07Z</time>
      </trkpt>
      <trkpt lat="44.8591" lon="5.26846">
        <ele>1439.71</ele>
        <time>2021-09-23T09:32:18Z</time>
      </trkpt>
      <trkpt lat="44.8592" lon="5.26856">
        <ele>1439.71</ele>
        <time>2021-09-23T09:32:30Z</time>
      </trkpt>
      <trkpt lat="44.85928" lon="5.26876">
        <ele>1442.11</ele>
        <time>2021-09-23T09:32:46Z</time>
      </trkpt>
      <trkpt lat="44.85928" lon="5.26884">
        <ele>1442.11</ele>
        <time>2021-09-23T09:32:51Z</time>
      </trkpt>
      <trkpt lat="44.85931" lon="5.26903">
        <ele>1445</ele>
        <time>2021-09-23T09:33:06Z</time>
      </trkpt>
      <trkpt lat="44.85939" lon="5.26924">
        <ele>1443.56</ele>
        <time>2021-09-23T09:33:23Z</time>
      </trkpt>
      <trkpt lat="44.85941" lon="5.26931">
        <ele>1445</ele>
        <time>2021-09-23T09:33:30Z</time>
      </trkpt>
      <trkpt lat="44.8595" lon="5.26952">
        <ele>1445</ele>
        <time>2021-09-23T09:33:46Z</time>
      </trkpt>
      <trkpt lat="44.85962" lon="5.26972">
        <ele>1447.4</ele>
        <time>2021-09-23T09:34:03Z</time>
      </trkpt>
      <trkpt lat="44.85974" lon="5.26998">
        <ele>1447.88</ele>
        <time>2021-09-23T09:34:22Z</time>
      </trkpt>
      <trkpt lat="44.85984" lon="5.27015">
        <ele>1447.88</ele>
        <time>2021-09-23T09:34:37Z</time>
      </trkpt>
      <trkpt lat="44.85999" lon="5.27028">
        <ele>1445.48</ele>
        <time>2021-09-23T09:34:54Z</time>
      </trkpt>
      <trkpt lat="44.86012" lon="5.27036">
        <ele>1442.11</ele>
        <time>2021-09-23T09:35:07Z</time>
      </trkpt>
      <trkpt lat="44.86019" lon="5.2704">
        <ele>1441.63</ele>
        <time>2021-09-23T09:35:16Z</time>
      </trkpt>
      <trkpt lat="44.86037" lon="5.27053">
        <ele>1438.75</ele>
        <time>2021-09-23T09:35:33Z</time>
      </trkpt>
      <trkpt lat="44.86056" lon="5.27063">
        <ele>1436.35</ele>
        <time>2021-09-23T09:35:49Z</time>
      </trkpt>
      <trkpt lat="44.86071" lon="5.27073">
        <ele>1434.91</ele>
        <time>2021-09-23T09:36:04Z</time>
      </trkpt>
      <trkpt lat="44.86085" lon="5.27078">
        <ele>1432.98</ele>
        <time>2021-09-23T09:36:16Z</time>
      </trkpt>
      <trkpt lat="44.86104" lon="5.27083">
        <ele>1430.58</ele>
        <time>2021-09-23T09:36:33Z</time>
      </trkpt>
      <trkpt lat="44.8612" lon="5.27087">
        <ele>1429.62</ele>
        <time>2021-09-23T09:36:46Z</time>
      </trkpt>
      <trkpt lat="44.86135" lon="5.27092">
        <ele>1428.18</ele>
        <time>2021-09-23T09:36:58Z</time>
      </trkpt>
      <trkpt lat="44.8615" lon="5.27094">
        <ele>1426.25</ele>
        <time>2021-09-23T09:37:10Z</time>
      </trkpt>
      <trkpt lat="44.86165" lon="5.27096">
        <ele>1424.81</ele>
        <time>2021-09-23T09:37:22Z</time>
      </trkpt>
      <trkpt lat="44.86181" lon="5.27097">
        <ele>1423.37</ele>
        <time>2021-09-23T09:37:35Z</time>
      </trkpt>
      <trkpt lat="44.86199" lon="5.27101">
        <ele>1421.93</ele>
        <time>2021-09-23T09:37:48Z</time>
      </trkpt>
      <trkpt lat="44.86222" lon="5.27105">
        <ele>1419.04</ele>
        <time>2021-09-23T09:38:05Z</time>
      </trkpt>
      <trkpt lat="44.86237" lon="5.27107">
        <ele>1417.6</ele>
        <time>2021-09-23T09:38:17Z</time>
      </trkpt>
      <trkpt lat="44.86261" lon="5.27114">
        <ele>1415.68</ele>
        <time>2021-09-23T09:38:35Z</time>
      </trkpt>
      <trkpt lat="44.8628" lon="5.2712">
        <ele>1414.72</ele>
        <time>2021-09-23T09:38:49Z</time>
      </trkpt>
      <trkpt lat="44.86296" lon="5.27125">
        <ele>1413.28</ele>
        <time>2021-09-23T09:39:02Z</time>
      </trkpt>
      <trkpt lat="44.8631" lon="5.27129">
        <ele>1411.83</ele>
        <time>2021-09-23T09:39:14Z</time>
      </trkpt>
      <trkpt lat="44.86319" lon="5.27128">
        <ele>1410.39</ele>
        <time>2021-09-23T09:39:28Z</time>
      </trkpt>
      <trkpt lat="44.86332" lon="5.2713">
        <ele>1410.87</ele>
        <time>2021-09-23T09:39:43Z</time>
      </trkpt>
      <trkpt lat="44.86351" lon="5.27136">
        <ele>1409.43</ele>
        <time>2021-09-23T09:40:02Z</time>
      </trkpt>
      <trkpt lat="44.86369" lon="5.27141">
        <ele>1408.47</ele>
        <time>2021-09-23T09:40:19Z</time>
      </trkpt>
      <trkpt lat="44.86386" lon="5.27138">
        <ele>1407.03</ele>
        <time>2021-09-23T09:40:35Z</time>
      </trkpt>
      <trkpt lat="44.86397" lon="5.27119">
        <ele>1405.1</ele>
        <time>2021-09-23T09:40:51Z</time>
      </trkpt>
      <trkpt lat="44.86402" lon="5.2709">
        <ele>1403.18</ele>
        <time>2021-09-23T09:41:09Z</time>
      </trkpt>
      <trkpt lat="44.86403" lon="5.27081">
        <ele>1402.7</ele>
        <time>2021-09-23T09:41:15Z</time>
      </trkpt>
      <trkpt lat="44.86404" lon="5.27078">
        <ele>1402.7</ele>
        <time>2021-09-23T09:41:17Z</time>
      </trkpt>
      <trkpt lat="44.86406" lon="5.2707">
        <ele>1401.74</ele>
        <time>2021-09-23T09:41:32Z</time>
      </trkpt>
      <trkpt lat="44.86413" lon="5.27071">
        <ele>1400.78</ele>
        <time>2021-09-23T09:41:46Z</time>
      </trkpt>
      <trkpt lat="44.86422" lon="5.27075">
        <ele>1399.82</ele>
        <time>2021-09-23T09:41:56Z</time>
      </trkpt>
      <trkpt lat="44.86439" lon="5.27082">
        <ele>1398.86</ele>
        <time>2021-09-23T09:42:13Z</time>
      </trkpt>
      <trkpt lat="44.86455" lon="5.27088">
        <ele>1397.89</ele>
        <time>2021-09-23T09:42:27Z</time>
      </trkpt>
      <trkpt lat="44.86469" lon="5.27095">
        <ele>1396.93</ele>
        <time>2021-09-23T09:42:39Z</time>
      </trkpt>
      <trkpt lat="44.86471" lon="5.27096">
        <ele>1396.45</ele>
        <time>2021-09-23T09:42:41Z</time>
      </trkpt>
      <trkpt lat="44.86491" lon="5.27104">
        <ele>1395.01</ele>
        <time>2021-09-23T09:42:58Z</time>
      </trkpt>
      <trkpt lat="44.86507" lon="5.27112">
        <ele>1394.53</ele>
        <time>2021-09-23T09:43:12Z</time>
      </trkpt>
      <trkpt lat="44.86522" lon="5.27123">
        <ele>1394.05</ele>
        <time>2021-09-23T09:43:25Z</time>
      </trkpt>
      <trkpt lat="44.86525" lon="5.27127">
        <ele>1394.05</ele>
        <time>2021-09-23T09:43:29Z</time>
      </trkpt>
      <trkpt lat="44.8654" lon="5.27144">
        <ele>1394.05</ele>
        <time>2021-09-23T09:43:46Z</time>
      </trkpt>
      <trkpt lat="44.86546" lon="5.27151">
        <ele>1395.49</ele>
        <time>2021-09-23T09:43:53Z</time>
      </trkpt>
      <trkpt lat="44.86558" lon="5.27165">
        <ele>1396.93</ele>
        <time>2021-09-23T09:44:06Z</time>
      </trkpt>
      <trkpt lat="44.86574" lon="5.2718">
        <ele>1397.89</ele>
        <time>2021-09-23T09:44:23Z</time>
      </trkpt>
      <trkpt lat="44.86592" lon="5.27192">
        <ele>1397.89</ele>
        <time>2021-09-23T09:44:41Z</time>
      </trkpt>
      <trkpt lat="44.86594" lon="5.27196">
        <ele>1397.89</ele>
        <time>2021-09-23T09:44:54Z</time>
      </trkpt>
      <trkpt lat="44.86607" lon="5.272">
        <ele>1397.89</ele>
        <time>2021-09-23T09:45:07Z</time>
      </trkpt>
      <trkpt lat="44.86618" lon="5.27203">
        <ele>1396.45</ele>
        <time>2021-09-23T09:45:18Z</time>
      </trkpt>
      <trkpt lat="44.86638" lon="5.27207">
        <ele>1395.01</ele>
        <time>2021-09-23T09:45:34Z</time>
      </trkpt>
      <trkpt lat="44.86659" lon="5.27214">
        <ele>1392.61</ele>
        <time>2021-09-23T09:45:52Z</time>
      </trkpt>
      <trkpt lat="44.86679" lon="5.27225">
        <ele>1391.17</ele>
        <time>2021-09-23T09:46:09Z</time>
      </trkpt>
      <trkpt lat="44.86695" lon="5.27246">
        <ele>1388.28</ele>
        <time>2021-09-23T09:46:26Z</time>
      </trkpt>
      <trkpt lat="44.86711" lon="5.27273">
        <ele>1387.32</ele>
        <time>2021-09-23T09:46:46Z</time>
      </trkpt>
      <trkpt lat="44.86727" lon="5.27293">
        <ele>1386.84</ele>
        <time>2021-09-23T09:47:04Z</time>
      </trkpt>
      <trkpt lat="44.86734" lon="5.27298">
        <ele>1386.84</ele>
        <time>2021-09-23T09:47:10Z</time>
      </trkpt>
      <trkpt lat="44.86745" lon="5.27317">
        <ele>1386.84</ele>
        <time>2021-09-23T09:47:26Z</time>
      </trkpt>
      <trkpt lat="44.86748" lon="5.27325">
        <ele>1388.76</ele>
        <time>2021-09-23T09:47:32Z</time>
      </trkpt>
      <trkpt lat="44.86761" lon="5.27341">
        <ele>1389.24</ele>
        <time>2021-09-23T09:47:47Z</time>
      </trkpt>
      <trkpt lat="44.86773" lon="5.27356">
        <ele>1390.2</ele>
        <time>2021-09-23T09:48:01Z</time>
      </trkpt>
      <trkpt lat="44.8678" lon="5.27361">
        <ele>1390.2</ele>
        <time>2021-09-23T09:48:08Z</time>
      </trkpt>
      <trkpt lat="44.86785" lon="5.27368">
        <ele>1390.2</ele>
        <time>2021-09-23T09:48:14Z</time>
      </trkpt>
      <trkpt lat="44.86805" lon="5.27391">
        <ele>1390.68</ele>
        <time>2021-09-23T09:48:35Z</time>
      </trkpt>
      <trkpt lat="44.86823" lon="5.27401">
        <ele>1390.68</ele>
        <time>2021-09-23T09:48:52Z</time>
      </trkpt>
      <trkpt lat="44.86835" lon="5.27403">
        <ele>1389.24</ele>
        <time>2021-09-23T09:49:01Z</time>
      </trkpt>
      <trkpt lat="44.86855" lon="5.27416">
        <ele>1387.32</ele>
        <time>2021-09-23T09:49:19Z</time>
      </trkpt>
      <trkpt lat="44.8687" lon="5.27429">
        <ele>1388.76</ele>
        <time>2021-09-23T09:49:34Z</time>
      </trkpt>
      <trkpt lat="44.86884" lon="5.27442">
        <ele>1390.2</ele>
        <time>2021-09-23T09:49:48Z</time>
      </trkpt>
      <trkpt lat="44.86899" lon="5.27455">
        <ele>1391.65</ele>
        <time>2021-09-23T09:50:03Z</time>
      </trkpt>
      <trkpt lat="44.86919" lon="5.27466">
        <ele>1391.65</ele>
        <time>2021-09-23T09:50:21Z</time>
      </trkpt>
      <trkpt lat="44.86924" lon="5.27469">
        <ele>1391.65</ele>
        <time>2021-09-23T09:50:25Z</time>
      </trkpt>
      <trkpt lat="44.86928" lon="5.2747">
        <ele>1390.68</ele>
        <time>2021-09-23T09:50:29Z</time>
      </trkpt>
      <trkpt lat="44.86949" lon="5.27482">
        <ele>1388.28</ele>
        <time>2021-09-23T09:50:47Z</time>
      </trkpt>
      <trkpt lat="44.86971" lon="5.27498">
        <ele>1387.8</ele>
        <time>2021-09-23T09:51:06Z</time>
      </trkpt>
      <trkpt lat="44.86989" lon="5.27508">
        <ele>1387.8</ele>
        <time>2021-09-23T09:51:22Z</time>
      </trkpt>
      <trkpt lat="44.87011" lon="5.27516">
        <ele>1387.8</ele>
        <time>2021-09-23T09:51:40Z</time>
      </trkpt>
      <trkpt lat="44.87034" lon="5.27526">
        <ele>1388.76</ele>
        <time>2021-09-23T09:51:59Z</time>
      </trkpt>
      <trkpt lat="44.87055" lon="5.27527">
        <ele>1388.76</ele>
        <time>2021-09-23T09:52:15Z</time>
      </trkpt>
      <trkpt lat="44.87076" lon="5.2753">
        <ele>1387.32</ele>
        <time>2021-09-23T09:52:32Z</time>
      </trkpt>
      <trkpt lat="44.87098" lon="5.27534">
        <ele>1386.84</ele>
        <time>2021-09-23T09:52:49Z</time>
      </trkpt>
      <trkpt lat="44.87109" lon="5.2753">
        <ele>1387.32</ele>
        <time>2021-09-23T09:53:00Z</time>
      </trkpt>
      <trkpt lat="44.87114" lon="5.27529">
        <ele>1386.36</ele>
        <time>2021-09-23T09:53:04Z</time>
      </trkpt>
      <trkpt lat="44.87129" lon="5.27523">
        <ele>1384.44</ele>
        <time>2021-09-23T09:53:19Z</time>
      </trkpt>
      <trkpt lat="44.87148" lon="5.27517">
        <ele>1382.99</ele>
        <time>2021-09-23T09:53:35Z</time>
      </trkpt>
      <trkpt lat="44.87163" lon="5.27532">
        <ele>1383.47</ele>
        <time>2021-09-23T09:53:50Z</time>
      </trkpt>
      <trkpt lat="44.87165" lon="5.2754">
        <ele>1384.44</ele>
        <time>2021-09-23T09:53:55Z</time>
      </trkpt>
      <trkpt lat="44.87169" lon="5.27552">
        <ele>1384.92</ele>
        <time>2021-09-23T09:54:04Z</time>
      </trkpt>
      <trkpt lat="44.87172" lon="5.27557">
        <ele>1384.92</ele>
        <time>2021-09-23T09:54:08Z</time>
      </trkpt>
      <trkpt lat="44.87176" lon="5.27574">
        <ele>1386.84</ele>
        <time>2021-09-23T09:54:22Z</time>
      </trkpt>
      <trkpt lat="44.87177" lon="5.27575">
        <ele>1386.84</ele>
        <time>2021-09-23T09:54:23Z</time>
      </trkpt>
      <trkpt lat="44.87185" lon="5.27577">
        <ele>1388.28</ele>
        <time>2021-09-23T09:55:55Z</time>
      </trkpt>
      <trkpt lat="44.87195" lon="5.27586">
        <ele>1389.24</ele>
        <time>2021-09-23T09:56:12Z</time>
      </trkpt>
      <trkpt lat="44.87206" lon="5.27595">
        <ele>1390.68</ele>
        <time>2021-09-23T09:56:26Z</time>
      </trkpt>
      <trkpt lat="44.87218" lon="5.27602">
        <ele>1393.09</ele>
        <time>2021-09-23T09:56:41Z</time>
      </trkpt>
      <trkpt lat="44.87228" lon="5.27607">
        <ele>1395.49</ele>
        <time>2021-09-23T09:56:57Z</time>
      </trkpt>
      <trkpt lat="44.87236" lon="5.27612">
        <ele>1397.89</ele>
        <time>2021-09-23T09:57:08Z</time>
      </trkpt>
      <trkpt lat="44.87239" lon="5.27615">
        <ele>1398.86</ele>
        <time>2021-09-23T09:57:13Z</time>
      </trkpt>
      <trkpt lat="44.87247" lon="5.2762">
        <ele>1400.78</ele>
        <time>2021-09-23T09:57:26Z</time>
      </trkpt>
      <trkpt lat="44.87249" lon="5.27622">
        <ele>1400.78</ele>
        <time>2021-09-23T09:57:29Z</time>
      </trkpt>
      <trkpt lat="44.87256" lon="5.27628">
        <ele>1402.22</ele>
        <time>2021-09-23T09:57:40Z</time>
      </trkpt>
      <trkpt lat="44.87268" lon="5.27631">
        <ele>1403.66</ele>
        <time>2021-09-23T09:57:55Z</time>
      </trkpt>
      <trkpt lat="44.87282" lon="5.27632">
        <ele>1405.58</ele>
        <time>2021-09-23T09:58:09Z</time>
      </trkpt>
      <trkpt lat="44.87296" lon="5.27629">
        <ele>1407.99</ele>
        <time>2021-09-23T09:58:25Z</time>
      </trkpt>
      <trkpt lat="44.87301" lon="5.27627">
        <ele>1408.95</ele>
        <time>2021-09-23T09:58:31Z</time>
      </trkpt>
      <trkpt lat="44.87303" lon="5.27626">
        <ele>1409.43</ele>
        <time>2021-09-23T09:58:33Z</time>
      </trkpt>
      <trkpt lat="44.87318" lon="5.27619">
        <ele>1411.35</ele>
        <time>2021-09-23T09:58:47Z</time>
      </trkpt>
      <trkpt lat="44.87319" lon="5.27618">
        <ele>1411.35</ele>
        <time>2021-09-23T09:58:48Z</time>
      </trkpt>
      <trkpt lat="44.87335" lon="5.27609">
        <ele>1411.83</ele>
        <time>2021-09-23T09:59:04Z</time>
      </trkpt>
      <trkpt lat="44.87349" lon="5.27601">
        <ele>1412.79</ele>
        <time>2021-09-23T09:59:19Z</time>
      </trkpt>
      <trkpt lat="44.87355" lon="5.27601">
        <ele>1413.76</ele>
        <time>2021-09-23T09:59:26Z</time>
      </trkpt>
      <trkpt lat="44.87375" lon="5.27603">
        <ele>1415.68</ele>
        <time>2021-09-23T09:59:42Z</time>
      </trkpt>
      <trkpt lat="44.87394" lon="5.27607">
        <ele>1416.16</ele>
        <time>2021-09-23T09:59:58Z</time>
      </trkpt>
      <trkpt lat="44.87396" lon="5.27607">
        <ele>1416.16</ele>
        <time>2021-09-23T09:59:59Z</time>
      </trkpt>
      <trkpt lat="44.87418" lon="5.27614">
        <ele>1416.64</ele>
        <time>2021-09-23T10:00:18Z</time>
      </trkpt>
      <trkpt lat="44.8744" lon="5.27622">
        <ele>1416.64</ele>
        <time>2021-09-23T10:00:37Z</time>
      </trkpt>
      <trkpt lat="44.87462" lon="5.27629">
        <ele>1416.64</ele>
        <time>2021-09-23T10:00:53Z</time>
      </trkpt>
      <trkpt lat="44.87482" lon="5.27633">
        <ele>1414.72</ele>
        <time>2021-09-23T10:01:09Z</time>
      </trkpt>
      <trkpt lat="44.875" lon="5.27639">
        <ele>1415.2</ele>
        <time>2021-09-23T10:01:25Z</time>
      </trkpt>
      <trkpt lat="44.87514" lon="5.27645">
        <ele>1415.2</ele>
        <time>2021-09-23T10:01:39Z</time>
      </trkpt>
      <trkpt lat="44.87518" lon="5.27647">
        <ele>1415.2</ele>
        <time>2021-09-23T10:01:43Z</time>
      </trkpt>
      <trkpt lat="44.87534" lon="5.27655">
        <ele>1415.2</ele>
        <time>2021-09-23T10:01:57Z</time>
      </trkpt>
      <trkpt lat="44.87548" lon="5.27667">
        <ele>1416.16</ele>
        <time>2021-09-23T10:02:12Z</time>
      </trkpt>
      <trkpt lat="44.87562" lon="5.27681">
        <ele>1417.6</ele>
        <time>2021-09-23T10:02:27Z</time>
      </trkpt>
      <trkpt lat="44.87573" lon="5.27692">
        <ele>1418.56</ele>
        <time>2021-09-23T10:02:40Z</time>
      </trkpt>
      <trkpt lat="44.8759" lon="5.27708">
        <ele>1419.04</ele>
        <time>2021-09-23T10:02:58Z</time>
      </trkpt>
      <trkpt lat="44.87593" lon="5.2771">
        <ele>1419.04</ele>
        <time>2021-09-23T10:03:01Z</time>
      </trkpt>
      <trkpt lat="44.87603" lon="5.27721">
        <ele>1419.04</ele>
        <time>2021-09-23T10:03:14Z</time>
      </trkpt>
      <trkpt lat="44.87606" lon="5.27723">
        <ele>1419.04</ele>
        <time>2021-09-23T10:03:17Z</time>
      </trkpt>
      <trkpt lat="44.87622" lon="5.27739">
        <ele>1419.52</ele>
        <time>2021-09-23T10:03:33Z</time>
      </trkpt>
      <trkpt lat="44.8763" lon="5.27746">
        <ele>1419.52</ele>
        <time>2021-09-23T10:03:40Z</time>
      </trkpt>
      <trkpt lat="44.87634" lon="5.27751">
        <ele>1419.52</ele>
        <time>2021-09-23T10:03:45Z</time>
      </trkpt>
      <trkpt lat="44.87648" lon="5.27771">
        <ele>1419.52</ele>
        <time>2021-09-23T10:04:02Z</time>
      </trkpt>
      <trkpt lat="44.87664" lon="5.27788">
        <ele>1419.52</ele>
        <time>2021-09-23T10:04:18Z</time>
      </trkpt>
      <trkpt lat="44.87681" lon="5.27807">
        <ele>1420</ele>
        <time>2021-09-23T10:04:37Z</time>
      </trkpt>
      <trkpt lat="44.87697" lon="5.27824">
        <ele>1420.49</ele>
        <time>2021-09-23T10:04:54Z</time>
      </trkpt>
      <trkpt lat="44.8771" lon="5.2784">
        <ele>1420.49</ele>
        <time>2021-09-23T10:05:09Z</time>
      </trkpt>
      <trkpt lat="44.87713" lon="5.27845">
        <ele>1422.89</ele>
        <time>2021-09-23T10:05:13Z</time>
      </trkpt>
      <trkpt lat="44.87722" lon="5.27855">
        <ele>1422.89</ele>
        <time>2021-09-23T10:05:24Z</time>
      </trkpt>
      <trkpt lat="44.87739" lon="5.27864">
        <ele>1423.37</ele>
        <time>2021-09-23T10:05:40Z</time>
      </trkpt>
      <trkpt lat="44.87751" lon="5.27869">
        <ele>1423.37</ele>
        <time>2021-09-23T10:05:53Z</time>
      </trkpt>
      <trkpt lat="44.87765" lon="5.27877">
        <ele>1425.77</ele>
        <time>2021-09-23T10:06:08Z</time>
      </trkpt>
      <trkpt lat="44.87777" lon="5.27884">
        <ele>1427.21</ele>
        <time>2021-09-23T10:06:21Z</time>
      </trkpt>
      <trkpt lat="44.87793" lon="5.27893">
        <ele>1427.7</ele>
        <time>2021-09-23T10:06:36Z</time>
      </trkpt>
      <trkpt lat="44.87808" lon="5.279">
        <ele>1428.18</ele>
        <time>2021-09-23T10:06:52Z</time>
      </trkpt>
      <trkpt lat="44.87824" lon="5.27908">
        <ele>1428.66</ele>
        <time>2021-09-23T10:07:07Z</time>
      </trkpt>
      <trkpt lat="44.87844" lon="5.27919">
        <ele>1429.62</ele>
        <time>2021-09-23T10:07:26Z</time>
      </trkpt>
      <trkpt lat="44.87861" lon="5.2793">
        <ele>1429.62</ele>
        <time>2021-09-23T10:07:42Z</time>
      </trkpt>
      <trkpt lat="44.87869" lon="5.27938">
        <ele>1430.58</ele>
        <time>2021-09-23T10:07:51Z</time>
      </trkpt>
      <trkpt lat="44.87877" lon="5.27942">
        <ele>1432.02</ele>
        <time>2021-09-23T10:08:05Z</time>
      </trkpt>
      <trkpt lat="44.87879" lon="5.27936">
        <ele>1430.58</ele>
        <time>2021-09-23T10:08:21Z</time>
      </trkpt>
      <trkpt lat="44.87879" lon="5.27935">
        <ele>1430.58</ele>
        <time>2021-09-23T10:08:22Z</time>
      </trkpt>
      <trkpt lat="44.87886" lon="5.27939">
        <ele>1429.14</ele>
        <time>2021-09-23T10:08:36Z</time>
      </trkpt>
      <trkpt lat="44.87886" lon="5.27932">
        <ele>1429.14</ele>
        <time>2021-09-23T10:08:52Z</time>
      </trkpt>
      <trkpt lat="44.87891" lon="5.27935">
        <ele>1429.62</ele>
        <time>2021-09-23T10:09:07Z</time>
      </trkpt>
      <trkpt lat="44.879" lon="5.27942">
        <ele>1429.62</ele>
        <time>2021-09-23T10:09:19Z</time>
      </trkpt>
      <trkpt lat="44.87915" lon="5.27952">
        <ele>1430.58</ele>
        <time>2021-09-23T10:09:35Z</time>
      </trkpt>
      <trkpt lat="44.8793" lon="5.27966">
        <ele>1432.02</ele>
        <time>2021-09-23T10:09:53Z</time>
      </trkpt>
      <trkpt lat="44.87942" lon="5.27981">
        <ele>1432.98</ele>
        <time>2021-09-23T10:10:09Z</time>
      </trkpt>
      <trkpt lat="44.87953" lon="5.27996">
        <ele>1433.46</ele>
        <time>2021-09-23T10:10:25Z</time>
      </trkpt>
      <trkpt lat="44.87955" lon="5.28002">
        <ele>1433.94</ele>
        <time>2021-09-23T10:10:30Z</time>
      </trkpt>
      <trkpt lat="44.87963" lon="5.28025">
        <ele>1435.39</ele>
        <time>2021-09-23T10:10:49Z</time>
      </trkpt>
      <trkpt lat="44.87966" lon="5.28035">
        <ele>1435.87</ele>
        <time>2021-09-23T10:10:56Z</time>
      </trkpt>
      <trkpt lat="44.87976" lon="5.28056">
        <ele>1435.87</ele>
        <time>2021-09-23T10:11:13Z</time>
      </trkpt>
      <trkpt lat="44.8798" lon="5.28062">
        <ele>1436.83</ele>
        <time>2021-09-23T10:11:19Z</time>
      </trkpt>
      <trkpt lat="44.87983" lon="5.28072">
        <ele>1437.31</ele>
        <time>2021-09-23T10:11:32Z</time>
      </trkpt>
      <trkpt lat="44.87991" lon="5.28078">
        <ele>1437.31</ele>
        <time>2021-09-23T10:11:43Z</time>
      </trkpt>
      <trkpt lat="44.87999" lon="5.28083">
        <ele>1437.31</ele>
        <time>2021-09-23T10:11:52Z</time>
      </trkpt>
      <trkpt lat="44.88015" lon="5.28092">
        <ele>1435.87</ele>
        <time>2021-09-23T10:12:08Z</time>
      </trkpt>
      <trkpt lat="44.88035" lon="5.28104">
        <ele>1432.98</ele>
        <time>2021-09-23T10:12:27Z</time>
      </trkpt>
      <trkpt lat="44.88039" lon="5.28115">
        <ele>1433.46</ele>
        <time>2021-09-23T10:12:43Z</time>
      </trkpt>
      <trkpt lat="44.8804" lon="5.28116">
        <ele>1433.46</ele>
        <time>2021-09-23T10:12:57Z</time>
      </trkpt>
      <trkpt lat="44.88049" lon="5.28117">
        <ele>1431.06</ele>
        <time>2021-09-23T10:13:12Z</time>
      </trkpt>
      <trkpt lat="44.88062" lon="5.28124">
        <ele>1428.18</ele>
        <time>2021-09-23T10:13:29Z</time>
      </trkpt>
      <trkpt lat="44.88064" lon="5.28127">
        <ele>1427.7</ele>
        <time>2021-09-23T10:13:42Z</time>
      </trkpt>
      <trkpt lat="44.88064" lon="5.28127">
        <ele>1429.14</ele>
        <time>2021-09-23T10:13:45Z</time>
      </trkpt>
      <trkpt lat="44.88064" lon="5.28127">
        <ele>1428.18</ele>
        <time>2021-09-23T10:14:05Z</time>
      </trkpt>
      <trkpt lat="44.88064" lon="5.28127">
        <ele>1428.18</ele>
        <time>2021-09-23T10:14:12Z</time>
      </trkpt>
      <trkpt lat="44.88067" lon="5.28128">
        <ele>1427.21</ele>
        <time>2021-09-23T10:14:29Z</time>
      </trkpt>
      <trkpt lat="44.88082" lon="5.28139">
        <ele>1427.21</ele>
        <time>2021-09-23T10:14:46Z</time>
      </trkpt>
      <trkpt lat="44.881" lon="5.28154">
        <ele>1425.77</ele>
        <time>2021-09-23T10:15:04Z</time>
      </trkpt>
      <trkpt lat="44.88115" lon="5.28169">
        <ele>1425.77</ele>
        <time>2021-09-23T10:15:20Z</time>
      </trkpt>
      <trkpt lat="44.88126" lon="5.28182">
        <ele>1425.77</ele>
        <time>2021-09-23T10:15:35Z</time>
      </trkpt>
      <trkpt lat="44.88142" lon="5.28197">
        <ele>1424.33</ele>
        <time>2021-09-23T10:15:51Z</time>
      </trkpt>
      <trkpt lat="44.88144" lon="5.28199">
        <ele>1425.77</ele>
        <time>2021-09-23T10:15:53Z</time>
      </trkpt>
      <trkpt lat="44.88158" lon="5.28213">
        <ele>1426.25</ele>
        <time>2021-09-23T10:16:09Z</time>
      </trkpt>
      <trkpt lat="44.88174" lon="5.28222">
        <ele>1427.7</ele>
        <time>2021-09-23T10:16:26Z</time>
      </trkpt>
      <trkpt lat="44.88189" lon="5.28228">
        <ele>1429.14</ele>
        <time>2021-09-23T10:16:41Z</time>
      </trkpt>
      <trkpt lat="44.88208" lon="5.28234">
        <ele>1430.1</ele>
        <time>2021-09-23T10:16:59Z</time>
      </trkpt>
      <trkpt lat="44.88217" lon="5.28237">
        <ele>1432.98</ele>
        <time>2021-09-23T10:17:14Z</time>
      </trkpt>
      <trkpt lat="44.8823" lon="5.28239">
        <ele>1435.39</ele>
        <time>2021-09-23T10:17:30Z</time>
      </trkpt>
      <trkpt lat="44.88243" lon="5.28244">
        <ele>1438.75</ele>
        <time>2021-09-23T10:17:48Z</time>
      </trkpt>
      <trkpt lat="44.88255" lon="5.28248">
        <ele>1441.15</ele>
        <time>2021-09-23T10:18:06Z</time>
      </trkpt>
      <trkpt lat="44.88267" lon="5.28251">
        <ele>1444.04</ele>
        <time>2021-09-23T10:18:22Z</time>
      </trkpt>
      <trkpt lat="44.88278" lon="5.28251">
        <ele>1445.96</ele>
        <time>2021-09-23T10:18:36Z</time>
      </trkpt>
      <trkpt lat="44.88293" lon="5.28253">
        <ele>1447.88</ele>
        <time>2021-09-23T10:18:54Z</time>
      </trkpt>
      <trkpt lat="44.88304" lon="5.28256">
        <ele>1450.29</ele>
        <time>2021-09-23T10:19:11Z</time>
      </trkpt>
      <trkpt lat="44.88317" lon="5.28255">
        <ele>1451.25</ele>
        <time>2021-09-23T10:19:27Z</time>
      </trkpt>
      <trkpt lat="44.88332" lon="5.2826">
        <ele>1454.13</ele>
        <time>2021-09-23T10:19:44Z</time>
      </trkpt>
      <trkpt lat="44.88345" lon="5.28265">
        <ele>1455.09</ele>
        <time>2021-09-23T10:19:59Z</time>
      </trkpt>
      <trkpt lat="44.88357" lon="5.28272">
        <ele>1456.53</ele>
        <time>2021-09-23T10:20:14Z</time>
      </trkpt>
      <trkpt lat="44.88369" lon="5.28282">
        <ele>1457.5</ele>
        <time>2021-09-23T10:20:30Z</time>
      </trkpt>
      <trkpt lat="44.88381" lon="5.28294">
        <ele>1458.46</ele>
        <time>2021-09-23T10:20:46Z</time>
      </trkpt>
      <trkpt lat="44.88393" lon="5.28307">
        <ele>1459.9</ele>
        <time>2021-09-23T10:21:02Z</time>
      </trkpt>
      <trkpt lat="44.88407" lon="5.28324">
        <ele>1460.86</ele>
        <time>2021-09-23T10:21:21Z</time>
      </trkpt>
      <trkpt lat="44.88412" lon="5.2833">
        <ele>1461.34</ele>
        <time>2021-09-23T10:21:28Z</time>
      </trkpt>
      <trkpt lat="44.88425" lon="5.28343">
        <ele>1463.26</ele>
        <time>2021-09-23T10:21:45Z</time>
      </trkpt>
      <trkpt lat="44.88436" lon="5.28355">
        <ele>1464.23</ele>
        <time>2021-09-23T10:22:00Z</time>
      </trkpt>
      <trkpt lat="44.88449" lon="5.28371">
        <ele>1464.71</ele>
        <time>2021-09-23T10:22:17Z</time>
      </trkpt>
      <trkpt lat="44.88461" lon="5.28388">
        <ele>1464.71</ele>
        <time>2021-09-23T10:22:34Z</time>
      </trkpt>
      <trkpt lat="44.88463" lon="5.28392">
        <ele>1464.71</ele>
        <time>2021-09-23T10:22:38Z</time>
      </trkpt>
      <trkpt lat="44.88481" lon="5.28409">
        <ele>1464.71</ele>
        <time>2021-09-23T10:22:57Z</time>
      </trkpt>
      <trkpt lat="44.88496" lon="5.28425">
        <ele>1465.67</ele>
        <time>2021-09-23T10:23:15Z</time>
      </trkpt>
      <trkpt lat="44.88498" lon="5.28426">
        <ele>1465.67</ele>
        <time>2021-09-23T10:23:17Z</time>
      </trkpt>
      <trkpt lat="44.88515" lon="5.28431">
        <ele>1463.74</ele>
        <time>2021-09-23T10:23:33Z</time>
      </trkpt>
      <trkpt lat="44.88516" lon="5.28431">
        <ele>1463.74</ele>
        <time>2021-09-23T10:23:34Z</time>
      </trkpt>
      <trkpt lat="44.88524" lon="5.28431">
        <ele>1462.3</ele>
        <time>2021-09-23T10:23:41Z</time>
      </trkpt>
      <trkpt lat="44.8853" lon="5.28437">
        <ele>1460.86</ele>
        <time>2021-09-23T10:23:48Z</time>
      </trkpt>
      <trkpt lat="44.88541" lon="5.28451">
        <ele>1460.38</ele>
        <time>2021-09-23T10:24:02Z</time>
      </trkpt>
      <trkpt lat="44.88553" lon="5.28465">
        <ele>1463.26</ele>
        <time>2021-09-23T10:24:19Z</time>
      </trkpt>
      <trkpt lat="44.88555" lon="5.2847">
        <ele>1463.26</ele>
        <time>2021-09-23T10:24:23Z</time>
      </trkpt>
      <trkpt lat="44.88557" lon="5.28472">
        <ele>1463.26</ele>
        <time>2021-09-23T10:24:25Z</time>
      </trkpt>
      <trkpt lat="44.88575" lon="5.28485">
        <ele>1464.23</ele>
        <time>2021-09-23T10:24:43Z</time>
      </trkpt>
      <trkpt lat="44.88589" lon="5.28497">
        <ele>1464.71</ele>
        <time>2021-09-23T10:24:58Z</time>
      </trkpt>
      <trkpt lat="44.88598" lon="5.28508">
        <ele>1465.19</ele>
        <time>2021-09-23T10:25:09Z</time>
      </trkpt>
      <trkpt lat="44.88613" lon="5.28521">
        <ele>1466.63</ele>
        <time>2021-09-23T10:25:25Z</time>
      </trkpt>
      <trkpt lat="44.88622" lon="5.28528">
        <ele>1466.63</ele>
        <time>2021-09-23T10:25:34Z</time>
      </trkpt>
      <trkpt lat="44.88638" lon="5.28539">
        <ele>1467.59</ele>
        <time>2021-09-23T10:25:50Z</time>
      </trkpt>
      <trkpt lat="44.8865" lon="5.28549">
        <ele>1469.99</ele>
        <time>2021-09-23T10:26:04Z</time>
      </trkpt>
      <trkpt lat="44.88651" lon="5.2855">
        <ele>1470.47</ele>
        <time>2021-09-23T10:26:06Z</time>
      </trkpt>
      <trkpt lat="44.88663" lon="5.28565">
        <ele>1471.44</ele>
        <time>2021-09-23T10:26:22Z</time>
      </trkpt>
      <trkpt lat="44.88675" lon="5.28579">
        <ele>1471.92</ele>
        <time>2021-09-23T10:26:38Z</time>
      </trkpt>
      <trkpt lat="44.88687" lon="5.28596">
        <ele>1473.36</ele>
        <time>2021-09-23T10:26:54Z</time>
      </trkpt>
      <trkpt lat="44.88696" lon="5.28612">
        <ele>1473.36</ele>
        <time>2021-09-23T10:27:08Z</time>
      </trkpt>
      <trkpt lat="44.88709" lon="5.28626">
        <ele>1474.8</ele>
        <time>2021-09-23T10:27:23Z</time>
      </trkpt>
      <trkpt lat="44.88723" lon="5.28643">
        <ele>1474.8</ele>
        <time>2021-09-23T10:27:39Z</time>
      </trkpt>
      <trkpt lat="44.88736" lon="5.2866">
        <ele>1475.28</ele>
        <time>2021-09-23T10:27:55Z</time>
      </trkpt>
      <trkpt lat="44.88747" lon="5.28673">
        <ele>1475.76</ele>
        <time>2021-09-23T10:28:09Z</time>
      </trkpt>
      <trkpt lat="44.88759" lon="5.28687">
        <ele>1476.24</ele>
        <time>2021-09-23T10:28:23Z</time>
      </trkpt>
      <trkpt lat="44.88774" lon="5.28702">
        <ele>1477.2</ele>
        <time>2021-09-23T10:28:38Z</time>
      </trkpt>
      <trkpt lat="44.8879" lon="5.28722">
        <ele>1479.61</ele>
        <time>2021-09-23T10:28:56Z</time>
      </trkpt>
      <trkpt lat="44.88805" lon="5.28739">
        <ele>1479.61</ele>
        <time>2021-09-23T10:29:12Z</time>
      </trkpt>
      <trkpt lat="44.8882" lon="5.28753">
        <ele>1479.61</ele>
        <time>2021-09-23T10:29:28Z</time>
      </trkpt>
      <trkpt lat="44.88833" lon="5.28765">
        <ele>1481.53</ele>
        <time>2021-09-23T10:29:41Z</time>
      </trkpt>
      <trkpt lat="44.88847" lon="5.28781">
        <ele>1479.13</ele>
        <time>2021-09-23T10:29:57Z</time>
      </trkpt>
      <trkpt lat="44.88862" lon="5.28798">
        <ele>1479.13</ele>
        <time>2021-09-23T10:30:13Z</time>
      </trkpt>
      <trkpt lat="44.88876" lon="5.28815">
        <ele>1479.13</ele>
        <time>2021-09-23T10:30:30Z</time>
      </trkpt>
      <trkpt lat="44.8889" lon="5.28834">
        <ele>1479.13</ele>
        <time>2021-09-23T10:30:46Z</time>
      </trkpt>
      <trkpt lat="44.88893" lon="5.28837">
        <ele>1479.13</ele>
        <time>2021-09-23T10:30:49Z</time>
      </trkpt>
      <trkpt lat="44.88896" lon="5.28842">
        <ele>1479.13</ele>
        <time>2021-09-23T10:30:53Z</time>
      </trkpt>
      <trkpt lat="44.88908" lon="5.28861">
        <ele>1478.16</ele>
        <time>2021-09-23T10:31:09Z</time>
      </trkpt>
      <trkpt lat="44.88924" lon="5.28876">
        <ele>1476.72</ele>
        <time>2021-09-23T10:31:26Z</time>
      </trkpt>
      <trkpt lat="44.88938" lon="5.28889">
        <ele>1473.84</ele>
        <time>2021-09-23T10:31:43Z</time>
      </trkpt>
      <trkpt lat="44.8894" lon="5.28889">
        <ele>1473.84</ele>
        <time>2021-09-23T10:31:45Z</time>
      </trkpt>
      <trkpt lat="44.88948" lon="5.28888">
        <ele>1472.88</ele>
        <time>2021-09-23T10:31:53Z</time>
      </trkpt>
      <trkpt lat="44.88954" lon="5.28885">
        <ele>1469.51</ele>
        <time>2021-09-23T10:32:00Z</time>
      </trkpt>
      <trkpt lat="44.88957" lon="5.28885">
        <ele>1468.55</ele>
        <time>2021-09-23T10:32:04Z</time>
      </trkpt>
      <trkpt lat="44.88958" lon="5.28887">
        <ele>1466.63</ele>
        <time>2021-09-23T10:32:06Z</time>
      </trkpt>
      <trkpt lat="44.88961" lon="5.28894">
        <ele>1464.23</ele>
        <time>2021-09-23T10:32:13Z</time>
      </trkpt>
      <trkpt lat="44.88965" lon="5.28914">
        <ele>1462.3</ele>
        <time>2021-09-23T10:32:27Z</time>
      </trkpt>
      <trkpt lat="44.88979" lon="5.28935">
        <ele>1459.9</ele>
        <time>2021-09-23T10:32:44Z</time>
      </trkpt>
      <trkpt lat="44.88992" lon="5.28947">
        <ele>1458.94</ele>
        <time>2021-09-23T10:32:59Z</time>
      </trkpt>
      <trkpt lat="44.88994" lon="5.28949">
        <ele>1461.34</ele>
        <time>2021-09-23T10:33:02Z</time>
      </trkpt>
      <trkpt lat="44.89009" lon="5.28958">
        <ele>1458.46</ele>
        <time>2021-09-23T10:33:17Z</time>
      </trkpt>
      <trkpt lat="44.89021" lon="5.28967">
        <ele>1458.46</ele>
        <time>2021-09-23T10:33:30Z</time>
      </trkpt>
      <trkpt lat="44.89026" lon="5.28971">
        <ele>1457.98</ele>
        <time>2021-09-23T10:33:36Z</time>
      </trkpt>
      <trkpt lat="44.89045" lon="5.28981">
        <ele>1456.53</ele>
        <time>2021-09-23T10:33:54Z</time>
      </trkpt>
      <trkpt lat="44.89059" lon="5.28991">
        <ele>1457.98</ele>
        <time>2021-09-23T10:34:08Z</time>
      </trkpt>
      <trkpt lat="44.89078" lon="5.29003">
        <ele>1459.42</ele>
        <time>2021-09-23T10:34:27Z</time>
      </trkpt>
      <trkpt lat="44.89082" lon="5.29005">
        <ele>1459.9</ele>
        <time>2021-09-23T10:34:32Z</time>
      </trkpt>
      <trkpt lat="44.89098" lon="5.29011">
        <ele>1460.38</ele>
        <time>2021-09-23T10:34:48Z</time>
      </trkpt>
      <trkpt lat="44.89112" lon="5.29016">
        <ele>1461.82</ele>
        <time>2021-09-23T10:35:02Z</time>
      </trkpt>
      <trkpt lat="44.89128" lon="5.29021">
        <ele>1463.26</ele>
        <time>2021-09-23T10:35:19Z</time>
      </trkpt>
      <trkpt lat="44.89144" lon="5.29025">
        <ele>1464.23</ele>
        <time>2021-09-23T10:35:34Z</time>
      </trkpt>
      <trkpt lat="44.89159" lon="5.29033">
        <ele>1465.19</ele>
        <time>2021-09-23T10:35:50Z</time>
      </trkpt>
      <trkpt lat="44.89173" lon="5.29039">
        <ele>1466.15</ele>
        <time>2021-09-23T10:36:04Z</time>
      </trkpt>
      <trkpt lat="44.89189" lon="5.29051">
        <ele>1467.11</ele>
        <time>2021-09-23T10:36:21Z</time>
      </trkpt>
      <trkpt lat="44.89205" lon="5.29065">
        <ele>1467.59</ele>
        <time>2021-09-23T10:36:36Z</time>
      </trkpt>
      <trkpt lat="44.89209" lon="5.29069">
        <ele>1468.55</ele>
        <time>2021-09-23T10:36:40Z</time>
      </trkpt>
      <trkpt lat="44.89224" lon="5.29086">
        <ele>1469.03</ele>
        <time>2021-09-23T10:36:56Z</time>
      </trkpt>
      <trkpt lat="44.89235" lon="5.291">
        <ele>1468.07</ele>
        <time>2021-09-23T10:37:09Z</time>
      </trkpt>
      <trkpt lat="44.89249" lon="5.29113">
        <ele>1468.55</ele>
        <time>2021-09-23T10:37:24Z</time>
      </trkpt>
      <trkpt lat="44.89254" lon="5.29118">
        <ele>1470.95</ele>
        <time>2021-09-23T10:37:29Z</time>
      </trkpt>
      <trkpt lat="44.89256" lon="5.2912">
        <ele>1469.03</ele>
        <time>2021-09-23T10:37:31Z</time>
      </trkpt>
      <trkpt lat="44.8927" lon="5.29136">
        <ele>1468.07</ele>
        <time>2021-09-23T10:37:47Z</time>
      </trkpt>
      <trkpt lat="44.89286" lon="5.29152">
        <ele>1466.63</ele>
        <time>2021-09-23T10:38:05Z</time>
      </trkpt>
      <trkpt lat="44.89301" lon="5.29167">
        <ele>1466.15</ele>
        <time>2021-09-23T10:38:21Z</time>
      </trkpt>
      <trkpt lat="44.8931" lon="5.29174">
        <ele>1464.71</ele>
        <time>2021-09-23T10:38:30Z</time>
      </trkpt>
      <trkpt lat="44.89321" lon="5.29184">
        <ele>1464.23</ele>
        <time>2021-09-23T10:38:46Z</time>
      </trkpt>
      <trkpt lat="44.89325" lon="5.29185">
        <ele>1466.63</ele>
        <time>2021-09-23T11:23:05Z</time>
      </trkpt>
      <trkpt lat="44.89328" lon="5.29187">
        <ele>1465.67</ele>
        <time>2021-09-23T11:23:23Z</time>
      </trkpt>
      <trkpt lat="44.89331" lon="5.29187">
        <ele>1464.23</ele>
        <time>2021-09-23T11:23:38Z</time>
      </trkpt>
      <trkpt lat="44.89336" lon="5.29191">
        <ele>1464.23</ele>
        <time>2021-09-23T11:23:49Z</time>
      </trkpt>
      <trkpt lat="44.89343" lon="5.29195">
        <ele>1462.78</ele>
        <time>2021-09-23T11:23:56Z</time>
      </trkpt>
      <trkpt lat="44.8935" lon="5.29195">
        <ele>1461.82</ele>
        <time>2021-09-23T11:24:04Z</time>
      </trkpt>
      <trkpt lat="44.89366" lon="5.29198">
        <ele>1458.46</ele>
        <time>2021-09-23T11:24:18Z</time>
      </trkpt>
      <trkpt lat="44.89381" lon="5.29207">
        <ele>1457.98</ele>
        <time>2021-09-23T11:24:32Z</time>
      </trkpt>
      <trkpt lat="44.89398" lon="5.29218">
        <ele>1456.53</ele>
        <time>2021-09-23T11:24:50Z</time>
      </trkpt>
      <trkpt lat="44.89408" lon="5.2922">
        <ele>1455.09</ele>
        <time>2021-09-23T11:25:30Z</time>
      </trkpt>
      <trkpt lat="44.89412" lon="5.29223">
        <ele>1455.09</ele>
        <time>2021-09-23T11:27:56Z</time>
      </trkpt>
      <trkpt lat="44.89417" lon="5.29229">
        <ele>1455.09</ele>
        <time>2021-09-23T11:28:01Z</time>
      </trkpt>
      <trkpt lat="44.89423" lon="5.29248">
        <ele>1455.57</ele>
        <time>2021-09-23T11:28:16Z</time>
      </trkpt>
      <trkpt lat="44.89424" lon="5.29267">
        <ele>1457.02</ele>
        <time>2021-09-23T11:28:30Z</time>
      </trkpt>
      <trkpt lat="44.89426" lon="5.29288">
        <ele>1459.42</ele>
        <time>2021-09-23T11:28:45Z</time>
      </trkpt>
      <trkpt lat="44.89423" lon="5.29296">
        <ele>1459.9</ele>
        <time>2021-09-23T11:28:57Z</time>
      </trkpt>
      <trkpt lat="44.89423" lon="5.29297">
        <ele>1460.38</ele>
        <time>2021-09-23T11:29:01Z</time>
      </trkpt>
      <trkpt lat="44.89428" lon="5.29299">
        <ele>1460.86</ele>
        <time>2021-09-23T11:29:07Z</time>
      </trkpt>
      <trkpt lat="44.89429" lon="5.29301">
        <ele>1460.86</ele>
        <time>2021-09-23T11:29:09Z</time>
      </trkpt>
      <trkpt lat="44.89435" lon="5.29306">
        <ele>1461.82</ele>
        <time>2021-09-23T11:29:15Z</time>
      </trkpt>
      <trkpt lat="44.89436" lon="5.29308">
        <ele>1462.3</ele>
        <time>2021-09-23T11:29:17Z</time>
      </trkpt>
      <trkpt lat="44.89443" lon="5.29315">
        <ele>1464.71</ele>
        <time>2021-09-23T11:29:26Z</time>
      </trkpt>
      <trkpt lat="44.89453" lon="5.29324">
        <ele>1467.11</ele>
        <time>2021-09-23T11:29:40Z</time>
      </trkpt>
      <trkpt lat="44.89459" lon="5.29331">
        <ele>1469.99</ele>
        <time>2021-09-23T11:29:51Z</time>
      </trkpt>
      <trkpt lat="44.89462" lon="5.29337">
        <ele>1471.44</ele>
        <time>2021-09-23T11:30:00Z</time>
      </trkpt>
      <trkpt lat="44.89465" lon="5.29339">
        <ele>1473.36</ele>
        <time>2021-09-23T11:30:03Z</time>
      </trkpt>
      <trkpt lat="44.89467" lon="5.29339">
        <ele>1472.88</ele>
        <time>2021-09-23T11:30:07Z</time>
      </trkpt>
      <trkpt lat="44.89477" lon="5.29345">
        <ele>1475.76</ele>
        <time>2021-09-23T11:30:21Z</time>
      </trkpt>
      <trkpt lat="44.89489" lon="5.29347">
        <ele>1477.68</ele>
        <time>2021-09-23T11:30:34Z</time>
      </trkpt>
      <trkpt lat="44.89503" lon="5.29345">
        <ele>1480.09</ele>
        <time>2021-09-23T11:30:48Z</time>
      </trkpt>
      <trkpt lat="44.89511" lon="5.29349">
        <ele>1482.49</ele>
        <time>2021-09-23T11:31:02Z</time>
      </trkpt>
      <trkpt lat="44.89522" lon="5.29351">
        <ele>1483.93</ele>
        <time>2021-09-23T11:31:16Z</time>
      </trkpt>
      <trkpt lat="44.89526" lon="5.29356">
        <ele>1485.37</ele>
        <time>2021-09-23T11:31:24Z</time>
      </trkpt>
      <trkpt lat="44.89529" lon="5.29357">
        <ele>1485.85</ele>
        <time>2021-09-23T11:31:28Z</time>
      </trkpt>
      <trkpt lat="44.89543" lon="5.29358">
        <ele>1487.78</ele>
        <time>2021-09-23T11:31:44Z</time>
      </trkpt>
      <trkpt lat="44.89547" lon="5.2936">
        <ele>1488.26</ele>
        <time>2021-09-23T11:31:49Z</time>
      </trkpt>
      <trkpt lat="44.89561" lon="5.29359">
        <ele>1491.62</ele>
        <time>2021-09-23T11:32:03Z</time>
      </trkpt>
      <trkpt lat="44.89566" lon="5.29357">
        <ele>1491.62</ele>
        <time>2021-09-23T11:32:08Z</time>
      </trkpt>
      <trkpt lat="44.89581" lon="5.29356">
        <ele>1493.06</ele>
        <time>2021-09-23T11:32:23Z</time>
      </trkpt>
      <trkpt lat="44.896" lon="5.29354">
        <ele>1494.99</ele>
        <time>2021-09-23T11:32:40Z</time>
      </trkpt>
      <trkpt lat="44.89617" lon="5.29353">
        <ele>1495.95</ele>
        <time>2021-09-23T11:32:55Z</time>
      </trkpt>
      <trkpt lat="44.89629" lon="5.29357">
        <ele>1498.35</ele>
        <time>2021-09-23T11:33:08Z</time>
      </trkpt>
      <trkpt lat="44.89642" lon="5.29362">
        <ele>1500.76</ele>
        <time>2021-09-23T11:33:21Z</time>
      </trkpt>
      <trkpt lat="44.89654" lon="5.29367">
        <ele>1503.16</ele>
        <time>2021-09-23T11:33:35Z</time>
      </trkpt>
      <trkpt lat="44.89664" lon="5.29373">
        <ele>1505.08</ele>
        <time>2021-09-23T11:33:48Z</time>
      </trkpt>
      <trkpt lat="44.89672" lon="5.29377">
        <ele>1507.48</ele>
        <time>2021-09-23T11:34:01Z</time>
      </trkpt>
      <trkpt lat="44.89679" lon="5.29383">
        <ele>1510.85</ele>
        <time>2021-09-23T11:34:12Z</time>
      </trkpt>
      <trkpt lat="44.89687" lon="5.29389">
        <ele>1513.25</ele>
        <time>2021-09-23T11:34:26Z</time>
      </trkpt>
      <trkpt lat="44.89699" lon="5.2939">
        <ele>1515.66</ele>
        <time>2021-09-23T11:34:43Z</time>
      </trkpt>
      <trkpt lat="44.89707" lon="5.29391">
        <ele>1517.1</ele>
        <time>2021-09-23T11:34:56Z</time>
      </trkpt>
      <trkpt lat="44.8972" lon="5.29394">
        <ele>1519.5</ele>
        <time>2021-09-23T11:35:11Z</time>
      </trkpt>
      <trkpt lat="44.89732" lon="5.29397">
        <ele>1521.9</ele>
        <time>2021-09-23T11:35:24Z</time>
      </trkpt>
      <trkpt lat="44.89742" lon="5.29396">
        <ele>1522.87</ele>
        <time>2021-09-23T11:35:33Z</time>
      </trkpt>
      <trkpt lat="44.89753" lon="5.29396">
        <ele>1524.31</ele>
        <time>2021-09-23T11:35:48Z</time>
      </trkpt>
      <trkpt lat="44.89772" lon="5.29395">
        <ele>1525.27</ele>
        <time>2021-09-23T11:36:05Z</time>
      </trkpt>
      <trkpt lat="44.89792" lon="5.294">
        <ele>1526.71</ele>
        <time>2021-09-23T11:36:22Z</time>
      </trkpt>
      <trkpt lat="44.89797" lon="5.29403">
        <ele>1527.19</ele>
        <time>2021-09-23T11:36:27Z</time>
      </trkpt>
      <trkpt lat="44.89817" lon="5.29409">
        <ele>1529.59</ele>
        <time>2021-09-23T11:36:44Z</time>
      </trkpt>
      <trkpt lat="44.8983" lon="5.29416">
        <ele>1532</ele>
        <time>2021-09-23T11:36:59Z</time>
      </trkpt>
      <trkpt lat="44.89832" lon="5.29418">
        <ele>1532.96</ele>
        <time>2021-09-23T11:37:03Z</time>
      </trkpt>
      <trkpt lat="44.8984" lon="5.29425">
        <ele>1534.4</ele>
        <time>2021-09-23T11:37:14Z</time>
      </trkpt>
      <trkpt lat="44.89854" lon="5.2943">
        <ele>1536.8</ele>
        <time>2021-09-23T11:37:27Z</time>
      </trkpt>
      <trkpt lat="44.89866" lon="5.29438">
        <ele>1539.21</ele>
        <time>2021-09-23T11:37:40Z</time>
      </trkpt>
      <trkpt lat="44.89877" lon="5.29448">
        <ele>1541.61</ele>
        <time>2021-09-23T11:37:54Z</time>
      </trkpt>
      <trkpt lat="44.89886" lon="5.29458">
        <ele>1544.98</ele>
        <time>2021-09-23T11:38:08Z</time>
      </trkpt>
      <trkpt lat="44.89895" lon="5.2947">
        <ele>1547.38</ele>
        <time>2021-09-23T11:38:24Z</time>
      </trkpt>
      <trkpt lat="44.89904" lon="5.29479">
        <ele>1550.26</ele>
        <time>2021-09-23T11:38:38Z</time>
      </trkpt>
      <trkpt lat="44.89913" lon="5.29488">
        <ele>1552.67</ele>
        <time>2021-09-23T11:38:53Z</time>
      </trkpt>
      <trkpt lat="44.89925" lon="5.29498">
        <ele>1555.07</ele>
        <time>2021-09-23T11:39:08Z</time>
      </trkpt>
      <trkpt lat="44.89935" lon="5.29507">
        <ele>1557.95</ele>
        <time>2021-09-23T11:39:22Z</time>
      </trkpt>
      <trkpt lat="44.89943" lon="5.29517">
        <ele>1559.4</ele>
        <time>2021-09-23T11:39:36Z</time>
      </trkpt>
      <trkpt lat="44.89943" lon="5.29525">
        <ele>1560.36</ele>
        <time>2021-09-23T11:39:48Z</time>
      </trkpt>
      <trkpt lat="44.89941" lon="5.29526">
        <ele>1560.84</ele>
        <time>2021-09-23T11:39:51Z</time>
      </trkpt>
      <trkpt lat="44.89937" lon="5.29526">
        <ele>1561.8</ele>
        <time>2021-09-23T11:39:55Z</time>
      </trkpt>
      <trkpt lat="44.89932" lon="5.2953">
        <ele>1565.16</ele>
        <time>2021-09-23T11:40:07Z</time>
      </trkpt>
      <trkpt lat="44.89932" lon="5.29531">
        <ele>1565.16</ele>
        <time>2021-09-23T11:40:08Z</time>
      </trkpt>
      <trkpt lat="44.89946" lon="5.29543">
        <ele>1568.05</ele>
        <time>2021-09-23T11:40:24Z</time>
      </trkpt>
      <trkpt lat="44.89955" lon="5.29551">
        <ele>1569.97</ele>
        <time>2021-09-23T11:40:34Z</time>
      </trkpt>
      <trkpt lat="44.89967" lon="5.29561">
        <ele>1571.89</ele>
        <time>2021-09-23T11:40:47Z</time>
      </trkpt>
      <trkpt lat="44.89979" lon="5.29573">
        <ele>1573.33</ele>
        <time>2021-09-23T11:41:01Z</time>
      </trkpt>
      <trkpt lat="44.89984" lon="5.29579">
        <ele>1574.3</ele>
        <time>2021-09-23T11:41:07Z</time>
      </trkpt>
      <trkpt lat="44.89991" lon="5.29586">
        <ele>1574.78</ele>
        <time>2021-09-23T11:41:15Z</time>
      </trkpt>
      <trkpt lat="44.89997" lon="5.29593">
        <ele>1576.22</ele>
        <time>2021-09-23T11:41:22Z</time>
      </trkpt>
      <trkpt lat="44.90001" lon="5.29597">
        <ele>1576.7</ele>
        <time>2021-09-23T11:41:26Z</time>
      </trkpt>
      <trkpt lat="44.90008" lon="5.29603">
        <ele>1577.66</ele>
        <time>2021-09-23T11:41:33Z</time>
      </trkpt>
      <trkpt lat="44.90016" lon="5.29612">
        <ele>1579.1</ele>
        <time>2021-09-23T11:41:41Z</time>
      </trkpt>
      <trkpt lat="44.90018" lon="5.29615">
        <ele>1579.1</ele>
        <time>2021-09-23T11:41:44Z</time>
      </trkpt>
      <trkpt lat="44.90021" lon="5.29618">
        <ele>1579.58</ele>
        <time>2021-09-23T11:41:48Z</time>
      </trkpt>
      <trkpt lat="44.90032" lon="5.29631">
        <ele>1581.51</ele>
        <time>2021-09-23T11:42:00Z</time>
      </trkpt>
      <trkpt lat="44.90037" lon="5.29638">
        <ele>1581.51</ele>
        <time>2021-09-23T11:42:07Z</time>
      </trkpt>
      <trkpt lat="44.90044" lon="5.29644">
        <ele>1582.47</ele>
        <time>2021-09-23T11:42:14Z</time>
      </trkpt>
      <trkpt lat="44.90046" lon="5.29646">
        <ele>1582.47</ele>
        <time>2021-09-23T11:42:16Z</time>
      </trkpt>
      <trkpt lat="44.90051" lon="5.29653">
        <ele>1582.47</ele>
        <time>2021-09-23T11:42:22Z</time>
      </trkpt>
      <trkpt lat="44.9006" lon="5.29664">
        <ele>1585.35</ele>
        <time>2021-09-23T11:42:33Z</time>
      </trkpt>
      <trkpt lat="44.90068" lon="5.29681">
        <ele>1588.72</ele>
        <time>2021-09-23T11:42:47Z</time>
      </trkpt>
      <trkpt lat="44.9007" lon="5.29684">
        <ele>1589.68</ele>
        <time>2021-09-23T11:42:50Z</time>
      </trkpt>
      <trkpt lat="44.90074" lon="5.29688">
        <ele>1590.16</ele>
        <time>2021-09-23T11:42:55Z</time>
      </trkpt>
      <trkpt lat="44.90079" lon="5.29696">
        <ele>1590.64</ele>
        <time>2021-09-23T11:43:03Z</time>
      </trkpt>
      <trkpt lat="44.90091" lon="5.29708">
        <ele>1591.6</ele>
        <time>2021-09-23T11:43:16Z</time>
      </trkpt>
      <trkpt lat="44.90097" lon="5.29714">
        <ele>1592.08</ele>
        <time>2021-09-23T11:43:22Z</time>
      </trkpt>
      <trkpt lat="44.901" lon="5.29717">
        <ele>1592.56</ele>
        <time>2021-09-23T11:43:26Z</time>
      </trkpt>
      <trkpt lat="44.90104" lon="5.29722">
        <ele>1593.04</ele>
        <time>2021-09-23T11:43:31Z</time>
      </trkpt>
      <trkpt lat="44.9011" lon="5.29734">
        <ele>1594</ele>
        <time>2021-09-23T11:43:41Z</time>
      </trkpt>
      <trkpt lat="44.90113" lon="5.2974">
        <ele>1594.96</ele>
        <time>2021-09-23T11:43:46Z</time>
      </trkpt>
      <trkpt lat="44.90117" lon="5.29746">
        <ele>1597.37</ele>
        <time>2021-09-23T11:43:52Z</time>
      </trkpt>
      <trkpt lat="44.90119" lon="5.2975">
        <ele>1598.33</ele>
        <time>2021-09-23T11:43:55Z</time>
      </trkpt>
      <trkpt lat="44.90126" lon="5.29759">
        <ele>1597.85</ele>
        <time>2021-09-23T11:44:03Z</time>
      </trkpt>
      <trkpt lat="44.90139" lon="5.29777">
        <ele>1600.73</ele>
        <time>2021-09-23T11:44:19Z</time>
      </trkpt>
      <trkpt lat="44.90141" lon="5.2978">
        <ele>1600.73</ele>
        <time>2021-09-23T11:44:21Z</time>
      </trkpt>
      <trkpt lat="44.90153" lon="5.29796">
        <ele>1602.66</ele>
        <time>2021-09-23T11:44:37Z</time>
      </trkpt>
      <trkpt lat="44.90159" lon="5.29801">
        <ele>1603.62</ele>
        <time>2021-09-23T11:44:43Z</time>
      </trkpt>
      <trkpt lat="44.90161" lon="5.29804">
        <ele>1603.62</ele>
        <time>2021-09-23T11:44:45Z</time>
      </trkpt>
      <trkpt lat="44.90169" lon="5.29813">
        <ele>1603.62</ele>
        <time>2021-09-23T11:44:53Z</time>
      </trkpt>
      <trkpt lat="44.9018" lon="5.29831">
        <ele>1604.58</ele>
        <time>2021-09-23T11:45:07Z</time>
      </trkpt>
      <trkpt lat="44.90192" lon="5.29848">
        <ele>1605.54</ele>
        <time>2021-09-23T11:45:21Z</time>
      </trkpt>
      <trkpt lat="44.90208" lon="5.29864">
        <ele>1606.5</ele>
        <time>2021-09-23T11:45:36Z</time>
      </trkpt>
      <trkpt lat="44.90216" lon="5.29876">
        <ele>1607.94</ele>
        <time>2021-09-23T11:45:46Z</time>
      </trkpt>
      <trkpt lat="44.90218" lon="5.29882">
        <ele>1609.38</ele>
        <time>2021-09-23T11:45:50Z</time>
      </trkpt>
      <trkpt lat="44.90225" lon="5.29897">
        <ele>1611.31</ele>
        <time>2021-09-23T11:46:04Z</time>
      </trkpt>
      <trkpt lat="44.90229" lon="5.29909">
        <ele>1614.67</ele>
        <time>2021-09-23T11:46:17Z</time>
      </trkpt>
      <trkpt lat="44.90233" lon="5.29914">
        <ele>1615.63</ele>
        <time>2021-09-23T11:46:25Z</time>
      </trkpt>
      <trkpt lat="44.90236" lon="5.29915">
        <ele>1615.63</ele>
        <time>2021-09-23T11:46:28Z</time>
      </trkpt>
      <trkpt lat="44.90243" lon="5.29924">
        <ele>1614.19</ele>
        <time>2021-09-23T11:46:35Z</time>
      </trkpt>
      <trkpt lat="44.90247" lon="5.29928">
        <ele>1613.71</ele>
        <time>2021-09-23T11:46:39Z</time>
      </trkpt>
      <trkpt lat="44.90249" lon="5.29932">
        <ele>1613.23</ele>
        <time>2021-09-23T11:46:42Z</time>
      </trkpt>
      <trkpt lat="44.90258" lon="5.29943">
        <ele>1613.23</ele>
        <time>2021-09-23T11:46:51Z</time>
      </trkpt>
      <trkpt lat="44.9027" lon="5.2996">
        <ele>1615.63</ele>
        <time>2021-09-23T11:47:05Z</time>
      </trkpt>
      <trkpt lat="44.90276" lon="5.29968">
        <ele>1616.11</ele>
        <time>2021-09-23T11:47:12Z</time>
      </trkpt>
      <trkpt lat="44.90278" lon="5.2997">
        <ele>1616.11</ele>
        <time>2021-09-23T11:47:14Z</time>
      </trkpt>
      <trkpt lat="44.90282" lon="5.29979">
        <ele>1618.04</ele>
        <time>2021-09-23T11:47:22Z</time>
      </trkpt>
      <trkpt lat="44.90284" lon="5.29981">
        <ele>1618.52</ele>
        <time>2021-09-23T11:47:24Z</time>
      </trkpt>
      <trkpt lat="44.90287" lon="5.29987">
        <ele>1619.96</ele>
        <time>2021-09-23T11:47:29Z</time>
      </trkpt>
      <trkpt lat="44.90296" lon="5.29997">
        <ele>1622.36</ele>
        <time>2021-09-23T11:47:41Z</time>
      </trkpt>
      <trkpt lat="44.903" lon="5.3">
        <ele>1622.36</ele>
        <time>2021-09-23T11:47:47Z</time>
      </trkpt>
      <trkpt lat="44.90302" lon="5.30001">
        <ele>1622.84</ele>
        <time>2021-09-23T11:47:49Z</time>
      </trkpt>
      <trkpt lat="44.90304" lon="5.30003">
        <ele>1623.32</ele>
        <time>2021-09-23T11:47:52Z</time>
      </trkpt>
      <trkpt lat="44.90311" lon="5.3001">
        <ele>1623.8</ele>
        <time>2021-09-23T11:48:00Z</time>
      </trkpt>
      <trkpt lat="44.90313" lon="5.30012">
        <ele>1624.28</ele>
        <time>2021-09-23T11:48:02Z</time>
      </trkpt>
      <trkpt lat="44.90321" lon="5.30018">
        <ele>1625.73</ele>
        <time>2021-09-23T11:48:11Z</time>
      </trkpt>
      <trkpt lat="44.9033" lon="5.30024">
        <ele>1628.13</ele>
        <time>2021-09-23T11:48:21Z</time>
      </trkpt>
      <trkpt lat="44.90342" lon="5.30034">
        <ele>1629.57</ele>
        <time>2021-09-23T11:48:35Z</time>
      </trkpt>
      <trkpt lat="44.90354" lon="5.30039">
        <ele>1630.53</ele>
        <time>2021-09-23T11:48:45Z</time>
      </trkpt>
      <trkpt lat="44.9036" lon="5.3004">
        <ele>1630.53</ele>
        <time>2021-09-23T11:48:51Z</time>
      </trkpt>
      <trkpt lat="44.90363" lon="5.3004">
        <ele>1631.01</ele>
        <time>2021-09-23T11:48:54Z</time>
      </trkpt>
      <trkpt lat="44.9037" lon="5.30042">
        <ele>1631.98</ele>
        <time>2021-09-23T11:49:00Z</time>
      </trkpt>
      <trkpt lat="44.90378" lon="5.30042">
        <ele>1632.46</ele>
        <time>2021-09-23T11:49:08Z</time>
      </trkpt>
      <trkpt lat="44.90394" lon="5.30044">
        <ele>1633.9</ele>
        <time>2021-09-23T11:49:23Z</time>
      </trkpt>
      <trkpt lat="44.90412" lon="5.30048">
        <ele>1635.34</ele>
        <time>2021-09-23T11:49:38Z</time>
      </trkpt>
      <trkpt lat="44.9043" lon="5.30052">
        <ele>1636.78</ele>
        <time>2021-09-23T11:49:52Z</time>
      </trkpt>
      <trkpt lat="44.90448" lon="5.30059">
        <ele>1637.26</ele>
        <time>2021-09-23T11:50:07Z</time>
      </trkpt>
      <trkpt lat="44.90449" lon="5.30059">
        <ele>1637.74</ele>
        <time>2021-09-23T11:50:08Z</time>
      </trkpt>
      <trkpt lat="44.90465" lon="5.30066">
        <ele>1638.22</ele>
        <time>2021-09-23T11:50:22Z</time>
      </trkpt>
      <trkpt lat="44.90474" lon="5.30071">
        <ele>1639.19</ele>
        <time>2021-09-23T11:50:30Z</time>
      </trkpt>
      <trkpt lat="44.90487" lon="5.30078">
        <ele>1641.11</ele>
        <time>2021-09-23T11:50:44Z</time>
      </trkpt>
      <trkpt lat="44.90489" lon="5.30081">
        <ele>1642.07</ele>
        <time>2021-09-23T11:51:01Z</time>
      </trkpt>
      <trkpt lat="44.90497" lon="5.30086">
        <ele>1643.51</ele>
        <time>2021-09-23T11:54:01Z</time>
      </trkpt>
      <trkpt lat="44.9051" lon="5.30095">
        <ele>1645.43</ele>
        <time>2021-09-23T11:54:16Z</time>
      </trkpt>
      <trkpt lat="44.90521" lon="5.30103">
        <ele>1646.4</ele>
        <time>2021-09-23T11:54:30Z</time>
      </trkpt>
      <trkpt lat="44.90534" lon="5.30113">
        <ele>1648.32</ele>
        <time>2021-09-23T11:54:44Z</time>
      </trkpt>
      <trkpt lat="44.90544" lon="5.30124">
        <ele>1649.76</ele>
        <time>2021-09-23T11:54:56Z</time>
      </trkpt>
      <trkpt lat="44.90556" lon="5.30132">
        <ele>1650.72</ele>
        <time>2021-09-23T11:55:09Z</time>
      </trkpt>
      <trkpt lat="44.90559" lon="5.30136">
        <ele>1651.2</ele>
        <time>2021-09-23T11:55:14Z</time>
      </trkpt>
      <trkpt lat="44.90573" lon="5.30146">
        <ele>1652.64</ele>
        <time>2021-09-23T11:55:28Z</time>
      </trkpt>
      <trkpt lat="44.90581" lon="5.30158">
        <ele>1654.57</ele>
        <time>2021-09-23T11:55:41Z</time>
      </trkpt>
      <trkpt lat="44.9058" lon="5.30175">
        <ele>1657.45</ele>
        <time>2021-09-23T11:55:56Z</time>
      </trkpt>
      <trkpt lat="44.9058" lon="5.30188">
        <ele>1658.41</ele>
        <time>2021-09-23T11:56:10Z</time>
      </trkpt>
      <trkpt lat="44.9058" lon="5.30189">
        <ele>1659.37</ele>
        <time>2021-09-23T11:56:29Z</time>
      </trkpt>
      <trkpt lat="44.9058" lon="5.30193">
        <ele>1659.37</ele>
        <time>2021-09-23T11:56:47Z</time>
      </trkpt>
      <trkpt lat="44.90579" lon="5.30199">
        <ele>1659.37</ele>
        <time>2021-09-23T11:56:56Z</time>
      </trkpt>
      <trkpt lat="44.90575" lon="5.3022">
        <ele>1658.41</ele>
        <time>2021-09-23T11:57:13Z</time>
      </trkpt>
      <trkpt lat="44.90572" lon="5.30234">
        <ele>1657.93</ele>
        <time>2021-09-23T11:57:26Z</time>
      </trkpt>
      <trkpt lat="44.90567" lon="5.3023">
        <ele>1657.45</ele>
        <time>2021-09-23T11:57:48Z</time>
      </trkpt>
      <trkpt lat="44.90568" lon="5.3023">
        <ele>1657.45</ele>
        <time>2021-09-23T11:57:51Z</time>
      </trkpt>
      <trkpt lat="44.90571" lon="5.30226">
        <ele>1657.45</ele>
        <time>2021-09-23T11:57:56Z</time>
      </trkpt>
      <trkpt lat="44.90578" lon="5.30208">
        <ele>1658.89</ele>
        <time>2021-09-23T11:58:09Z</time>
      </trkpt>
      <trkpt lat="44.90578" lon="5.30207">
        <ele>1658.89</ele>
        <time>2021-09-23T11:58:10Z</time>
      </trkpt>
      <trkpt lat="44.90579" lon="5.30204">
        <ele>1660.33</ele>
        <time>2021-09-23T11:58:12Z</time>
      </trkpt>
      <trkpt lat="44.90579" lon="5.30194">
        <ele>1660.33</ele>
        <time>2021-09-23T11:58:25Z</time>
      </trkpt>
      <trkpt lat="44.9058" lon="5.30189">
        <ele>1660.81</ele>
        <time>2021-09-23T12:05:00Z</time>
      </trkpt>
      <trkpt lat="44.90578" lon="5.30179">
        <ele>1660.81</ele>
        <time>2021-09-23T12:05:12Z</time>
      </trkpt>
      <trkpt lat="44.90576" lon="5.30173">
        <ele>1659.37</ele>
        <time>2021-09-23T12:05:17Z</time>
      </trkpt>
      <trkpt lat="44.90568" lon="5.30161">
        <ele>1657.45</ele>
        <time>2021-09-23T12:05:31Z</time>
      </trkpt>
      <trkpt lat="44.90566" lon="5.30156">
        <ele>1656.49</ele>
        <time>2021-09-23T12:05:36Z</time>
      </trkpt>
      <trkpt lat="44.9056" lon="5.3015">
        <ele>1655.53</ele>
        <time>2021-09-23T12:05:44Z</time>
      </trkpt>
      <trkpt lat="44.90554" lon="5.30142">
        <ele>1655.05</ele>
        <time>2021-09-23T12:06:00Z</time>
      </trkpt>
      <trkpt lat="44.90553" lon="5.30141">
        <ele>1655.05</ele>
        <time>2021-09-23T12:06:18Z</time>
      </trkpt>
      <trkpt lat="44.9055" lon="5.30139">
        <ele>1654.57</ele>
        <time>2021-09-23T12:06:41Z</time>
      </trkpt>
      <trkpt lat="44.90538" lon="5.30128">
        <ele>1653.6</ele>
        <time>2021-09-23T12:06:57Z</time>
      </trkpt>
      <trkpt lat="44.90533" lon="5.30124">
        <ele>1653.12</ele>
        <time>2021-09-23T12:07:03Z</time>
      </trkpt>
      <trkpt lat="44.90519" lon="5.30114">
        <ele>1650.72</ele>
        <time>2021-09-23T12:07:18Z</time>
      </trkpt>
      <trkpt lat="44.905" lon="5.30103">
        <ele>1649.76</ele>
        <time>2021-09-23T12:07:35Z</time>
      </trkpt>
      <trkpt lat="44.90485" lon="5.30095">
        <ele>1648.8</ele>
        <time>2021-09-23T12:07:49Z</time>
      </trkpt>
      <trkpt lat="44.90483" lon="5.30095">
        <ele>1648.8</ele>
        <time>2021-09-23T12:07:50Z</time>
      </trkpt>
      <trkpt lat="44.90466" lon="5.30084">
        <ele>1646.88</ele>
        <time>2021-09-23T12:08:05Z</time>
      </trkpt>
      <trkpt lat="44.90443" lon="5.30075">
        <ele>1643.99</ele>
        <time>2021-09-23T12:08:23Z</time>
      </trkpt>
      <trkpt lat="44.90433" lon="5.30069">
        <ele>1643.51</ele>
        <time>2021-09-23T12:08:32Z</time>
      </trkpt>
      <trkpt lat="44.90425" lon="5.30065">
        <ele>1642.55</ele>
        <time>2021-09-23T12:08:39Z</time>
      </trkpt>
      <trkpt lat="44.90411" lon="5.30063">
        <ele>1641.11</ele>
        <time>2021-09-23T12:08:49Z</time>
      </trkpt>
      <trkpt lat="44.90407" lon="5.30061">
        <ele>1640.63</ele>
        <time>2021-09-23T12:08:53Z</time>
      </trkpt>
      <trkpt lat="44.90395" lon="5.30059">
        <ele>1639.67</ele>
        <time>2021-09-23T12:09:02Z</time>
      </trkpt>
      <trkpt lat="44.90369" lon="5.30054">
        <ele>1637.74</ele>
        <time>2021-09-23T12:09:21Z</time>
      </trkpt>
      <trkpt lat="44.90352" lon="5.30046">
        <ele>1634.38</ele>
        <time>2021-09-23T12:09:34Z</time>
      </trkpt>
      <trkpt lat="44.90339" lon="5.30034">
        <ele>1631.49</ele>
        <time>2021-09-23T12:09:47Z</time>
      </trkpt>
      <trkpt lat="44.90325" lon="5.30023">
        <ele>1629.57</ele>
        <time>2021-09-23T12:09:59Z</time>
      </trkpt>
      <trkpt lat="44.90308" lon="5.30011">
        <ele>1627.17</ele>
        <time>2021-09-23T12:10:14Z</time>
      </trkpt>
      <trkpt lat="44.90303" lon="5.30006">
        <ele>1626.69</ele>
        <time>2021-09-23T12:10:19Z</time>
      </trkpt>
      <trkpt lat="44.90297" lon="5.30002">
        <ele>1626.21</ele>
        <time>2021-09-23T12:10:31Z</time>
      </trkpt>
      <trkpt lat="44.90295" lon="5.29999">
        <ele>1625.25</ele>
        <time>2021-09-23T12:10:35Z</time>
      </trkpt>
      <trkpt lat="44.90289" lon="5.29994">
        <ele>1623.8</ele>
        <time>2021-09-23T12:10:41Z</time>
      </trkpt>
      <trkpt lat="44.90287" lon="5.2999">
        <ele>1622.84</ele>
        <time>2021-09-23T12:10:45Z</time>
      </trkpt>
      <trkpt lat="44.90283" lon="5.29985">
        <ele>1621.88</ele>
        <time>2021-09-23T12:10:50Z</time>
      </trkpt>
      <trkpt lat="44.9027" lon="5.29966">
        <ele>1619</ele>
        <time>2021-09-23T12:11:04Z</time>
      </trkpt>
      <trkpt lat="44.90265" lon="5.2996">
        <ele>1618.52</ele>
        <time>2021-09-23T12:11:09Z</time>
      </trkpt>
      <trkpt lat="44.90262" lon="5.29953">
        <ele>1618.04</ele>
        <time>2021-09-23T12:11:13Z</time>
      </trkpt>
      <trkpt lat="44.9026" lon="5.29951">
        <ele>1617.07</ele>
        <time>2021-09-23T12:11:15Z</time>
      </trkpt>
      <trkpt lat="44.90255" lon="5.29946">
        <ele>1616.11</ele>
        <time>2021-09-23T12:11:19Z</time>
      </trkpt>
      <trkpt lat="44.90239" lon="5.29926">
        <ele>1616.11</ele>
        <time>2021-09-23T12:11:35Z</time>
      </trkpt>
      <trkpt lat="44.90235" lon="5.29918">
        <ele>1617.56</ele>
        <time>2021-09-23T12:11:41Z</time>
      </trkpt>
      <trkpt lat="44.90229" lon="5.29912">
        <ele>1616.59</ele>
        <time>2021-09-23T12:11:51Z</time>
      </trkpt>
      <trkpt lat="44.90225" lon="5.29903">
        <ele>1614.67</ele>
        <time>2021-09-23T12:12:04Z</time>
      </trkpt>
      <trkpt lat="44.90224" lon="5.299">
        <ele>1613.71</ele>
        <time>2021-09-23T12:12:08Z</time>
      </trkpt>
      <trkpt lat="44.90223" lon="5.29897">
        <ele>1613.23</ele>
        <time>2021-09-23T12:12:11Z</time>
      </trkpt>
      <trkpt lat="44.90222" lon="5.29891">
        <ele>1611.79</ele>
        <time>2021-09-23T12:12:15Z</time>
      </trkpt>
      <trkpt lat="44.90218" lon="5.29884">
        <ele>1610.35</ele>
        <time>2021-09-23T12:12:20Z</time>
      </trkpt>
      <trkpt lat="44.90206" lon="5.29867">
        <ele>1608.42</ele>
        <time>2021-09-23T12:12:34Z</time>
      </trkpt>
      <trkpt lat="44.90189" lon="5.29849">
        <ele>1608.42</ele>
        <time>2021-09-23T12:12:50Z</time>
      </trkpt>
      <trkpt lat="44.90184" lon="5.29845">
        <ele>1608.42</ele>
        <time>2021-09-23T12:12:54Z</time>
      </trkpt>
      <trkpt lat="44.90181" lon="5.2984">
        <ele>1606.98</ele>
        <time>2021-09-23T12:12:58Z</time>
      </trkpt>
      <trkpt lat="44.90168" lon="5.29822">
        <ele>1606.98</ele>
        <time>2021-09-23T12:13:12Z</time>
      </trkpt>
      <trkpt lat="44.90151" lon="5.29798">
        <ele>1604.1</ele>
        <time>2021-09-23T12:13:30Z</time>
      </trkpt>
      <trkpt lat="44.90136" lon="5.29779">
        <ele>1602.17</ele>
        <time>2021-09-23T12:13:44Z</time>
      </trkpt>
      <trkpt lat="44.90118" lon="5.29755">
        <ele>1599.77</ele>
        <time>2021-09-23T12:14:01Z</time>
      </trkpt>
      <trkpt lat="44.90104" lon="5.29732">
        <ele>1596.89</ele>
        <time>2021-09-23T12:14:17Z</time>
      </trkpt>
      <trkpt lat="44.90089" lon="5.29712">
        <ele>1593.52</ele>
        <time>2021-09-23T12:14:32Z</time>
      </trkpt>
      <trkpt lat="44.90068" lon="5.29689">
        <ele>1592.08</ele>
        <time>2021-09-23T12:14:51Z</time>
      </trkpt>
      <trkpt lat="44.90059" lon="5.2967">
        <ele>1588.72</ele>
        <time>2021-09-23T12:15:03Z</time>
      </trkpt>
      <trkpt lat="44.90044" lon="5.29651">
        <ele>1584.87</ele>
        <time>2021-09-23T12:15:19Z</time>
      </trkpt>
      <trkpt lat="44.90027" lon="5.29633">
        <ele>1582.95</ele>
        <time>2021-09-23T12:15:35Z</time>
      </trkpt>
      <trkpt lat="44.90017" lon="5.2962">
        <ele>1581.51</ele>
        <time>2021-09-23T12:15:45Z</time>
      </trkpt>
      <trkpt lat="44.90012" lon="5.29613">
        <ele>1580.54</ele>
        <time>2021-09-23T12:15:50Z</time>
      </trkpt>
      <trkpt lat="44.9001" lon="5.29611">
        <ele>1579.1</ele>
        <time>2021-09-23T12:15:52Z</time>
      </trkpt>
      <trkpt lat="44.89993" lon="5.29593">
        <ele>1578.14</ele>
        <time>2021-09-23T12:16:07Z</time>
      </trkpt>
      <trkpt lat="44.8999" lon="5.2959">
        <ele>1580.06</ele>
        <time>2021-09-23T12:16:10Z</time>
      </trkpt>
      <trkpt lat="44.89986" lon="5.29587">
        <ele>1576.7</ele>
        <time>2021-09-23T12:16:13Z</time>
      </trkpt>
      <trkpt lat="44.89985" lon="5.29586">
        <ele>1576.7</ele>
        <time>2021-09-23T12:16:14Z</time>
      </trkpt>
      <trkpt lat="44.89967" lon="5.29568">
        <ele>1574.3</ele>
        <time>2021-09-23T12:16:30Z</time>
      </trkpt>
      <trkpt lat="44.89965" lon="5.29565">
        <ele>1573.33</ele>
        <time>2021-09-23T12:16:32Z</time>
      </trkpt>
      <trkpt lat="44.89948" lon="5.29549">
        <ele>1571.41</ele>
        <time>2021-09-23T12:16:47Z</time>
      </trkpt>
      <trkpt lat="44.89932" lon="5.29533">
        <ele>1568.05</ele>
        <time>2021-09-23T12:17:03Z</time>
      </trkpt>
      <trkpt lat="44.89931" lon="5.29531">
        <ele>1567.57</ele>
        <time>2021-09-23T12:17:05Z</time>
      </trkpt>
      <trkpt lat="44.89931" lon="5.29529">
        <ele>1569.49</ele>
        <time>2021-09-23T12:17:07Z</time>
      </trkpt>
      <trkpt lat="44.89933" lon="5.29527">
        <ele>1568.05</ele>
        <time>2021-09-23T12:17:09Z</time>
      </trkpt>
      <trkpt lat="44.89941" lon="5.29527">
        <ele>1566.61</ele>
        <time>2021-09-23T12:17:16Z</time>
      </trkpt>
      <trkpt lat="44.89945" lon="5.29521">
        <ele>1564.2</ele>
        <time>2021-09-23T12:17:27Z</time>
      </trkpt>
      <trkpt lat="44.89942" lon="5.29517">
        <ele>1562.76</ele>
        <time>2021-09-23T12:17:31Z</time>
      </trkpt>
      <trkpt lat="44.89928" lon="5.29504">
        <ele>1558.92</ele>
        <time>2021-09-23T12:17:45Z</time>
      </trkpt>
      <trkpt lat="44.8991" lon="5.29489">
        <ele>1555.07</ele>
        <time>2021-09-23T12:18:03Z</time>
      </trkpt>
      <trkpt lat="44.89903" lon="5.29481">
        <ele>1552.19</ele>
        <time>2021-09-23T12:18:10Z</time>
      </trkpt>
      <trkpt lat="44.89889" lon="5.29468">
        <ele>1548.82</ele>
        <time>2021-09-23T12:18:25Z</time>
      </trkpt>
      <trkpt lat="44.89887" lon="5.29464">
        <ele>1547.86</ele>
        <time>2021-09-23T12:18:28Z</time>
      </trkpt>
      <trkpt lat="44.89885" lon="5.29463">
        <ele>1547.38</ele>
        <time>2021-09-23T12:18:30Z</time>
      </trkpt>
      <trkpt lat="44.8988" lon="5.29456">
        <ele>1545.94</ele>
        <time>2021-09-23T12:18:35Z</time>
      </trkpt>
      <trkpt lat="44.89865" lon="5.29442">
        <ele>1542.57</ele>
        <time>2021-09-23T12:18:48Z</time>
      </trkpt>
      <trkpt lat="44.89849" lon="5.29431">
        <ele>1539.21</ele>
        <time>2021-09-23T12:19:02Z</time>
      </trkpt>
      <trkpt lat="44.89841" lon="5.29429">
        <ele>1537.77</ele>
        <time>2021-09-23T12:19:09Z</time>
      </trkpt>
      <trkpt lat="44.89835" lon="5.29424">
        <ele>1536.8</ele>
        <time>2021-09-23T12:19:14Z</time>
      </trkpt>
      <trkpt lat="44.89821" lon="5.29414">
        <ele>1533.44</ele>
        <time>2021-09-23T12:19:26Z</time>
      </trkpt>
      <trkpt lat="44.89804" lon="5.29406">
        <ele>1531.04</ele>
        <time>2021-09-23T12:19:39Z</time>
      </trkpt>
      <trkpt lat="44.89795" lon="5.29404">
        <ele>1530.56</ele>
        <time>2021-09-23T12:19:46Z</time>
      </trkpt>
      <trkpt lat="44.89767" lon="5.29396">
        <ele>1529.59</ele>
        <time>2021-09-23T12:20:07Z</time>
      </trkpt>
      <trkpt lat="44.89763" lon="5.29396">
        <ele>1527.67</ele>
        <time>2021-09-23T12:20:10Z</time>
      </trkpt>
      <trkpt lat="44.8976" lon="5.29395">
        <ele>1527.67</ele>
        <time>2021-09-23T12:20:13Z</time>
      </trkpt>
      <trkpt lat="44.89752" lon="5.29398">
        <ele>1528.15</ele>
        <time>2021-09-23T12:20:21Z</time>
      </trkpt>
      <trkpt lat="44.8975" lon="5.29398">
        <ele>1526.71</ele>
        <time>2021-09-23T12:20:27Z</time>
      </trkpt>
      <trkpt lat="44.89747" lon="5.29397">
        <ele>1526.71</ele>
        <time>2021-09-23T12:20:30Z</time>
      </trkpt>
      <trkpt lat="44.89725" lon="5.29396">
        <ele>1524.31</ele>
        <time>2021-09-23T12:20:49Z</time>
      </trkpt>
      <trkpt lat="44.89708" lon="5.29392">
        <ele>1520.94</ele>
        <time>2021-09-23T12:21:04Z</time>
      </trkpt>
      <trkpt lat="44.89705" lon="5.29388">
        <ele>1519.98</ele>
        <time>2021-09-23T12:21:11Z</time>
      </trkpt>
      <trkpt lat="44.89693" lon="5.29389">
        <ele>1518.54</ele>
        <time>2021-09-23T12:21:25Z</time>
      </trkpt>
      <trkpt lat="44.89686" lon="5.29387">
        <ele>1515.18</ele>
        <time>2021-09-23T12:21:34Z</time>
      </trkpt>
      <trkpt lat="44.89679" lon="5.29382">
        <ele>1512.29</ele>
        <time>2021-09-23T12:21:44Z</time>
      </trkpt>
      <trkpt lat="44.89667" lon="5.29375">
        <ele>1508.93</ele>
        <time>2021-09-23T12:21:54Z</time>
      </trkpt>
      <trkpt lat="44.89662" lon="5.29372">
        <ele>1507.97</ele>
        <time>2021-09-23T12:21:58Z</time>
      </trkpt>
      <trkpt lat="44.89644" lon="5.29364">
        <ele>1504.6</ele>
        <time>2021-09-23T12:22:11Z</time>
      </trkpt>
      <trkpt lat="44.8964" lon="5.29363">
        <ele>1503.64</ele>
        <time>2021-09-23T12:22:15Z</time>
      </trkpt>
      <trkpt lat="44.89618" lon="5.29356">
        <ele>1500.27</ele>
        <time>2021-09-23T12:22:32Z</time>
      </trkpt>
      <trkpt lat="44.8961" lon="5.29355">
        <ele>1498.83</ele>
        <time>2021-09-23T12:22:38Z</time>
      </trkpt>
      <trkpt lat="44.89583" lon="5.29359">
        <ele>1497.39</ele>
        <time>2021-09-23T12:22:57Z</time>
      </trkpt>
      <trkpt lat="44.89563" lon="5.29361">
        <ele>1495.47</ele>
        <time>2021-09-23T12:23:12Z</time>
      </trkpt>
      <trkpt lat="44.89556" lon="5.29363">
        <ele>1494.51</ele>
        <time>2021-09-23T12:23:17Z</time>
      </trkpt>
      <trkpt lat="44.8954" lon="5.2936">
        <ele>1491.14</ele>
        <time>2021-09-23T12:23:30Z</time>
      </trkpt>
      <trkpt lat="44.89538" lon="5.29359">
        <ele>1490.66</ele>
        <time>2021-09-23T12:23:32Z</time>
      </trkpt>
      <trkpt lat="44.89523" lon="5.29354">
        <ele>1488.26</ele>
        <time>2021-09-23T12:23:48Z</time>
      </trkpt>
      <trkpt lat="44.89513" lon="5.29352">
        <ele>1485.85</ele>
        <time>2021-09-23T12:23:59Z</time>
      </trkpt>
      <trkpt lat="44.89511" lon="5.29351">
        <ele>1484.89</ele>
        <time>2021-09-23T12:24:01Z</time>
      </trkpt>
      <trkpt lat="44.89507" lon="5.29347">
        <ele>1484.41</ele>
        <time>2021-09-23T12:24:06Z</time>
      </trkpt>
      <trkpt lat="44.89489" lon="5.29349">
        <ele>1481.05</ele>
        <time>2021-09-23T12:24:21Z</time>
      </trkpt>
      <trkpt lat="44.89483" lon="5.2935">
        <ele>1480.57</ele>
        <time>2021-09-23T12:24:27Z</time>
      </trkpt>
      <trkpt lat="44.89473" lon="5.29345">
        <ele>1477.68</ele>
        <time>2021-09-23T12:24:38Z</time>
      </trkpt>
      <trkpt lat="44.8946" lon="5.29336">
        <ele>1474.32</ele>
        <time>2021-09-23T12:24:53Z</time>
      </trkpt>
      <trkpt lat="44.89458" lon="5.29333">
        <ele>1473.84</ele>
        <time>2021-09-23T12:24:56Z</time>
      </trkpt>
      <trkpt lat="44.89455" lon="5.2933">
        <ele>1472.88</ele>
        <time>2021-09-23T12:25:00Z</time>
      </trkpt>
      <trkpt lat="44.89445" lon="5.29321">
        <ele>1468.55</ele>
        <time>2021-09-23T12:25:12Z</time>
      </trkpt>
      <trkpt lat="44.8943" lon="5.29305">
        <ele>1465.19</ele>
        <time>2021-09-23T12:25:28Z</time>
      </trkpt>
      <trkpt lat="44.89422" lon="5.29281">
        <ele>1461.82</ele>
        <time>2021-09-23T12:25:42Z</time>
      </trkpt>
      <trkpt lat="44.8942" lon="5.2926">
        <ele>1460.38</ele>
        <time>2021-09-23T12:25:55Z</time>
      </trkpt>
      <trkpt lat="44.89413" lon="5.29252">
        <ele>1460.38</ele>
        <time>2021-09-23T12:26:08Z</time>
      </trkpt>
      <trkpt lat="44.89412" lon="5.2925">
        <ele>1461.34</ele>
        <time>2021-09-23T12:26:13Z</time>
      </trkpt>
      <trkpt lat="44.89411" lon="5.29246">
        <ele>1462.3</ele>
        <time>2021-09-23T12:26:30Z</time>
      </trkpt>
      <trkpt lat="44.89412" lon="5.29244">
        <ele>1460.86</ele>
        <time>2021-09-23T12:26:41Z</time>
      </trkpt>
      <trkpt lat="44.89412" lon="5.29239">
        <ele>1459.9</ele>
        <time>2021-09-23T12:26:48Z</time>
      </trkpt>
      <trkpt lat="44.89408" lon="5.29224">
        <ele>1458.94</ele>
        <time>2021-09-23T12:27:02Z</time>
      </trkpt>
      <trkpt lat="44.89405" lon="5.29219">
        <ele>1457.98</ele>
        <time>2021-09-23T12:27:15Z</time>
      </trkpt>
      <trkpt lat="44.89402" lon="5.29217">
        <ele>1457.98</ele>
        <time>2021-09-23T12:29:35Z</time>
      </trkpt>
      <trkpt lat="44.89401" lon="5.29217">
        <ele>1457.98</ele>
        <time>2021-09-23T12:29:53Z</time>
      </trkpt>
      <trkpt lat="44.89399" lon="5.29211">
        <ele>1457.98</ele>
        <time>2021-09-23T12:30:06Z</time>
      </trkpt>
      <trkpt lat="44.89398" lon="5.29207">
        <ele>1457.98</ele>
        <time>2021-09-23T12:30:10Z</time>
      </trkpt>
      <trkpt lat="44.89395" lon="5.29201">
        <ele>1457.02</ele>
        <time>2021-09-23T12:30:23Z</time>
      </trkpt>
      <trkpt lat="44.89391" lon="5.29189">
        <ele>1457.5</ele>
        <time>2021-09-23T12:30:37Z</time>
      </trkpt>
      <trkpt lat="44.8939" lon="5.29186">
        <ele>1457.5</ele>
        <time>2021-09-23T12:30:40Z</time>
      </trkpt>
      <trkpt lat="44.89381" lon="5.29173">
        <ele>1454.61</ele>
        <time>2021-09-23T12:30:54Z</time>
      </trkpt>
      <trkpt lat="44.89377" lon="5.29169">
        <ele>1456.05</ele>
        <time>2021-09-23T12:31:00Z</time>
      </trkpt>
      <trkpt lat="44.89371" lon="5.29164">
        <ele>1456.05</ele>
        <time>2021-09-23T12:31:07Z</time>
      </trkpt>
      <trkpt lat="44.89358" lon="5.29156">
        <ele>1457.02</ele>
        <time>2021-09-23T12:31:23Z</time>
      </trkpt>
      <trkpt lat="44.89352" lon="5.29144">
        <ele>1457.02</ele>
        <time>2021-09-23T12:31:35Z</time>
      </trkpt>
      <trkpt lat="44.8935" lon="5.29139">
        <ele>1455.57</ele>
        <time>2021-09-23T12:31:38Z</time>
      </trkpt>
      <trkpt lat="44.89348" lon="5.29133">
        <ele>1455.57</ele>
        <time>2021-09-23T12:31:42Z</time>
      </trkpt>
      <trkpt lat="44.89344" lon="5.29127">
        <ele>1455.09</ele>
        <time>2021-09-23T12:31:47Z</time>
      </trkpt>
      <trkpt lat="44.89333" lon="5.29107">
        <ele>1454.13</ele>
        <time>2021-09-23T12:32:03Z</time>
      </trkpt>
      <trkpt lat="44.89324" lon="5.29085">
        <ele>1452.21</ele>
        <time>2021-09-23T12:32:19Z</time>
      </trkpt>
      <trkpt lat="44.89316" lon="5.29071">
        <ele>1451.73</ele>
        <time>2021-09-23T12:32:32Z</time>
      </trkpt>
      <trkpt lat="44.89313" lon="5.29066">
        <ele>1451.73</ele>
        <time>2021-09-23T12:32:36Z</time>
      </trkpt>
      <trkpt lat="44.89308" lon="5.29044">
        <ele>1450.29</ele>
        <time>2021-09-23T12:32:52Z</time>
      </trkpt>
      <trkpt lat="44.89305" lon="5.29037">
        <ele>1449.32</ele>
        <time>2021-09-23T12:32:56Z</time>
      </trkpt>
      <trkpt lat="44.89301" lon="5.29034">
        <ele>1449.81</ele>
        <time>2021-09-23T12:33:01Z</time>
      </trkpt>
      <trkpt lat="44.89296" lon="5.29024">
        <ele>1449.81</ele>
        <time>2021-09-23T12:33:08Z</time>
      </trkpt>
      <trkpt lat="44.8929" lon="5.29002">
        <ele>1448.84</ele>
        <time>2021-09-23T12:33:24Z</time>
      </trkpt>
      <trkpt lat="44.89286" lon="5.28983">
        <ele>1447.4</ele>
        <time>2021-09-23T12:33:38Z</time>
      </trkpt>
      <trkpt lat="44.89286" lon="5.28981">
        <ele>1447.4</ele>
        <time>2021-09-23T12:33:39Z</time>
      </trkpt>
      <trkpt lat="44.89286" lon="5.28977">
        <ele>1446.92</ele>
        <time>2021-09-23T12:33:42Z</time>
      </trkpt>
      <trkpt lat="44.89284" lon="5.28968">
        <ele>1445.48</ele>
        <time>2021-09-23T12:33:47Z</time>
      </trkpt>
      <trkpt lat="44.89275" lon="5.28948">
        <ele>1444.04</ele>
        <time>2021-09-23T12:34:02Z</time>
      </trkpt>
      <trkpt lat="44.89265" lon="5.2893">
        <ele>1443.08</ele>
        <time>2021-09-23T12:34:16Z</time>
      </trkpt>
      <trkpt lat="44.89259" lon="5.28923">
        <ele>1443.08</ele>
        <time>2021-09-23T12:34:23Z</time>
      </trkpt>
      <trkpt lat="44.89242" lon="5.28906">
        <ele>1443.08</ele>
        <time>2021-09-23T12:34:41Z</time>
      </trkpt>
      <trkpt lat="44.89228" lon="5.28891">
        <ele>1443.08</ele>
        <time>2021-09-23T12:34:56Z</time>
      </trkpt>
      <trkpt lat="44.89215" lon="5.28882">
        <ele>1441.63</ele>
        <time>2021-09-23T12:35:09Z</time>
      </trkpt>
      <trkpt lat="44.89211" lon="5.2888">
        <ele>1441.63</ele>
        <time>2021-09-23T12:35:13Z</time>
      </trkpt>
      <trkpt lat="44.89203" lon="5.28879">
        <ele>1441.63</ele>
        <time>2021-09-23T12:35:21Z</time>
      </trkpt>
      <trkpt lat="44.89191" lon="5.2888">
        <ele>1440.67</ele>
        <time>2021-09-23T12:35:33Z</time>
      </trkpt>
      <trkpt lat="44.8918" lon="5.28895">
        <ele>1439.23</ele>
        <time>2021-09-23T12:35:49Z</time>
      </trkpt>
      <trkpt lat="44.89175" lon="5.28901">
        <ele>1440.67</ele>
        <time>2021-09-23T12:36:00Z</time>
      </trkpt>
      <trkpt lat="44.8916" lon="5.28908">
        <ele>1441.63</ele>
        <time>2021-09-23T12:36:14Z</time>
      </trkpt>
      <trkpt lat="44.89158" lon="5.28909">
        <ele>1441.63</ele>
        <time>2021-09-23T12:36:16Z</time>
      </trkpt>
      <trkpt lat="44.89142" lon="5.28903">
        <ele>1439.71</ele>
        <time>2021-09-23T12:36:34Z</time>
      </trkpt>
      <trkpt lat="44.89131" lon="5.28894">
        <ele>1437.79</ele>
        <time>2021-09-23T12:36:47Z</time>
      </trkpt>
      <trkpt lat="44.89118" lon="5.28888">
        <ele>1437.31</ele>
        <time>2021-09-23T12:37:01Z</time>
      </trkpt>
      <trkpt lat="44.8911" lon="5.28881">
        <ele>1436.35</ele>
        <time>2021-09-23T12:37:10Z</time>
      </trkpt>
      <trkpt lat="44.89106" lon="5.28877">
        <ele>1436.35</ele>
        <time>2021-09-23T12:37:14Z</time>
      </trkpt>
      <trkpt lat="44.89094" lon="5.28863">
        <ele>1432.98</ele>
        <time>2021-09-23T12:37:28Z</time>
      </trkpt>
      <trkpt lat="44.89085" lon="5.28845">
        <ele>1432.02</ele>
        <time>2021-09-23T12:37:41Z</time>
      </trkpt>
      <trkpt lat="44.89083" lon="5.28838">
        <ele>1433.46</ele>
        <time>2021-09-23T12:37:45Z</time>
      </trkpt>
      <trkpt lat="44.89083" lon="5.28829">
        <ele>1432.02</ele>
        <time>2021-09-23T12:37:52Z</time>
      </trkpt>
      <trkpt lat="44.89075" lon="5.28811">
        <ele>1431.06</ele>
        <time>2021-09-23T12:38:06Z</time>
      </trkpt>
      <trkpt lat="44.89068" lon="5.28788">
        <ele>1428.18</ele>
        <time>2021-09-23T12:38:19Z</time>
      </trkpt>
      <trkpt lat="44.89058" lon="5.28768">
        <ele>1427.7</ele>
        <time>2021-09-23T12:38:34Z</time>
      </trkpt>
      <trkpt lat="44.89049" lon="5.28745">
        <ele>1426.25</ele>
        <time>2021-09-23T12:38:48Z</time>
      </trkpt>
      <trkpt lat="44.89039" lon="5.28721">
        <ele>1424.81</ele>
        <time>2021-09-23T12:39:03Z</time>
      </trkpt>
      <trkpt lat="44.89034" lon="5.28709">
        <ele>1424.33</ele>
        <time>2021-09-23T12:39:11Z</time>
      </trkpt>
      <trkpt lat="44.89024" lon="5.2869">
        <ele>1424.33</ele>
        <time>2021-09-23T12:39:28Z</time>
      </trkpt>
      <trkpt lat="44.89023" lon="5.28684">
        <ele>1425.77</ele>
        <time>2021-09-23T12:39:32Z</time>
      </trkpt>
      <trkpt lat="44.89022" lon="5.28679">
        <ele>1424.33</ele>
        <time>2021-09-23T12:39:35Z</time>
      </trkpt>
      <trkpt lat="44.89013" lon="5.2865">
        <ele>1422.89</ele>
        <time>2021-09-23T12:39:52Z</time>
      </trkpt>
      <trkpt lat="44.89003" lon="5.28629">
        <ele>1421.45</ele>
        <time>2021-09-23T12:40:08Z</time>
      </trkpt>
      <trkpt lat="44.88998" lon="5.2862">
        <ele>1420.97</ele>
        <time>2021-09-23T12:40:22Z</time>
      </trkpt>
      <trkpt lat="44.88994" lon="5.28603">
        <ele>1420.49</ele>
        <time>2021-09-23T12:40:34Z</time>
      </trkpt>
      <trkpt lat="44.88989" lon="5.28591">
        <ele>1420</ele>
        <time>2021-09-23T12:40:42Z</time>
      </trkpt>
      <trkpt lat="44.88986" lon="5.28587">
        <ele>1419.52</ele>
        <time>2021-09-23T12:40:47Z</time>
      </trkpt>
      <trkpt lat="44.88984" lon="5.28582">
        <ele>1419.52</ele>
        <time>2021-09-23T12:40:50Z</time>
      </trkpt>
      <trkpt lat="44.88978" lon="5.28551">
        <ele>1420.97</ele>
        <time>2021-09-23T12:41:07Z</time>
      </trkpt>
      <trkpt lat="44.88968" lon="5.28521">
        <ele>1419.52</ele>
        <time>2021-09-23T12:41:25Z</time>
      </trkpt>
      <trkpt lat="44.88961" lon="5.28492">
        <ele>1418.08</ele>
        <time>2021-09-23T12:41:41Z</time>
      </trkpt>
      <trkpt lat="44.88957" lon="5.28464">
        <ele>1417.12</ele>
        <time>2021-09-23T12:41:57Z</time>
      </trkpt>
      <trkpt lat="44.8895" lon="5.28437">
        <ele>1417.6</ele>
        <time>2021-09-23T12:42:13Z</time>
      </trkpt>
      <trkpt lat="44.88947" lon="5.28415">
        <ele>1419.52</ele>
        <time>2021-09-23T12:42:28Z</time>
      </trkpt>
      <trkpt lat="44.88947" lon="5.2839">
        <ele>1419.04</ele>
        <time>2021-09-23T12:42:43Z</time>
      </trkpt>
      <trkpt lat="44.88944" lon="5.28372">
        <ele>1418.08</ele>
        <time>2021-09-23T12:42:56Z</time>
      </trkpt>
      <trkpt lat="44.88943" lon="5.28348">
        <ele>1417.12</ele>
        <time>2021-09-23T12:43:11Z</time>
      </trkpt>
      <trkpt lat="44.88933" lon="5.28315">
        <ele>1415.68</ele>
        <time>2021-09-23T12:43:31Z</time>
      </trkpt>
      <trkpt lat="44.8892" lon="5.28294">
        <ele>1412.31</ele>
        <time>2021-09-23T12:43:48Z</time>
      </trkpt>
      <trkpt lat="44.88906" lon="5.28278">
        <ele>1410.87</ele>
        <time>2021-09-23T12:44:03Z</time>
      </trkpt>
      <trkpt lat="44.88896" lon="5.28262">
        <ele>1409.43</ele>
        <time>2021-09-23T12:44:16Z</time>
      </trkpt>
      <trkpt lat="44.88888" lon="5.28243">
        <ele>1407.51</ele>
        <time>2021-09-23T12:44:33Z</time>
      </trkpt>
      <trkpt lat="44.88886" lon="5.28242">
        <ele>1408.95</ele>
        <time>2021-09-23T12:44:52Z</time>
      </trkpt>
      <trkpt lat="44.88886" lon="5.28241">
        <ele>1407.03</ele>
        <time>2021-09-23T12:44:57Z</time>
      </trkpt>
      <trkpt lat="44.88884" lon="5.2824">
        <ele>1407.03</ele>
        <time>2021-09-23T12:45:01Z</time>
      </trkpt>
      <trkpt lat="44.88877" lon="5.28228">
        <ele>1406.07</ele>
        <time>2021-09-23T12:45:13Z</time>
      </trkpt>
      <trkpt lat="44.88875" lon="5.28221">
        <ele>1404.62</ele>
        <time>2021-09-23T12:45:19Z</time>
      </trkpt>
      <trkpt lat="44.88872" lon="5.28207">
        <ele>1401.74</ele>
        <time>2021-09-23T12:45:30Z</time>
      </trkpt>
      <trkpt lat="44.88866" lon="5.28191">
        <ele>1399.34</ele>
        <time>2021-09-23T12:45:43Z</time>
      </trkpt>
      <trkpt lat="44.88861" lon="5.28173">
        <ele>1398.37</ele>
        <time>2021-09-23T12:45:56Z</time>
      </trkpt>
      <trkpt lat="44.88859" lon="5.28167">
        <ele>1397.89</ele>
        <time>2021-09-23T12:46:10Z</time>
      </trkpt>
      <trkpt lat="44.88859" lon="5.28166">
        <ele>1397.89</ele>
        <time>2021-09-23T12:46:50Z</time>
      </trkpt>
      <trkpt lat="44.88862" lon="5.28162">
        <ele>1397.89</ele>
        <time>2021-09-23T12:47:21Z</time>
      </trkpt>
      <trkpt lat="44.88862" lon="5.28156">
        <ele>1397.41</ele>
        <time>2021-09-23T12:47:34Z</time>
      </trkpt>
      <trkpt lat="44.88862" lon="5.28141">
        <ele>1394.05</ele>
        <time>2021-09-23T12:47:48Z</time>
      </trkpt>
      <trkpt lat="44.88862" lon="5.28139">
        <ele>1394.05</ele>
        <time>2021-09-23T12:47:49Z</time>
      </trkpt>
      <trkpt lat="44.88865" lon="5.28123">
        <ele>1390.68</ele>
        <time>2021-09-23T12:48:03Z</time>
      </trkpt>
      <trkpt lat="44.88866" lon="5.28109">
        <ele>1387.8</ele>
        <time>2021-09-23T12:48:16Z</time>
      </trkpt>
      <trkpt lat="44.88867" lon="5.28092">
        <ele>1384.92</ele>
        <time>2021-09-23T12:48:32Z</time>
      </trkpt>
      <trkpt lat="44.88864" lon="5.2807">
        <ele>1381.55</ele>
        <time>2021-09-23T12:48:46Z</time>
      </trkpt>
      <trkpt lat="44.88862" lon="5.28066">
        <ele>1380.59</ele>
        <time>2021-09-23T12:48:50Z</time>
      </trkpt>
      <trkpt lat="44.88857" lon="5.28068">
        <ele>1380.11</ele>
        <time>2021-09-23T12:48:56Z</time>
      </trkpt>
      <trkpt lat="44.8885" lon="5.2806">
        <ele>1377.23</ele>
        <time>2021-09-23T12:49:05Z</time>
      </trkpt>
      <trkpt lat="44.88843" lon="5.28036">
        <ele>1374.34</ele>
        <time>2021-09-23T12:49:20Z</time>
      </trkpt>
      <trkpt lat="44.8884" lon="5.2801">
        <ele>1372.42</ele>
        <time>2021-09-23T12:49:34Z</time>
      </trkpt>
      <trkpt lat="44.88833" lon="5.27987">
        <ele>1369.54</ele>
        <time>2021-09-23T12:49:48Z</time>
      </trkpt>
      <trkpt lat="44.88829" lon="5.27971">
        <ele>1367.13</ele>
        <time>2021-09-23T12:50:01Z</time>
      </trkpt>
      <trkpt lat="44.88829" lon="5.27969">
        <ele>1367.13</ele>
        <time>2021-09-23T12:50:03Z</time>
      </trkpt>
      <trkpt lat="44.88828" lon="5.27944">
        <ele>1364.25</ele>
        <time>2021-09-23T12:50:17Z</time>
      </trkpt>
      <trkpt lat="44.88827" lon="5.27943">
        <ele>1363.77</ele>
        <time>2021-09-23T12:50:18Z</time>
      </trkpt>
      <trkpt lat="44.88819" lon="5.27932">
        <ele>1360.88</ele>
        <time>2021-09-23T12:50:28Z</time>
      </trkpt>
      <trkpt lat="44.88806" lon="5.27921">
        <ele>1358.48</ele>
        <time>2021-09-23T12:50:41Z</time>
      </trkpt>
      <trkpt lat="44.888" lon="5.27912">
        <ele>1357.52</ele>
        <time>2021-09-23T12:50:48Z</time>
      </trkpt>
      <trkpt lat="44.88793" lon="5.27894">
        <ele>1354.15</ele>
        <time>2021-09-23T12:51:00Z</time>
      </trkpt>
      <trkpt lat="44.88789" lon="5.27873">
        <ele>1351.27</ele>
        <time>2021-09-23T12:51:15Z</time>
      </trkpt>
      <trkpt lat="44.88788" lon="5.2787">
        <ele>1350.79</ele>
        <time>2021-09-23T12:51:17Z</time>
      </trkpt>
      <trkpt lat="44.88785" lon="5.27863">
        <ele>1349.83</ele>
        <time>2021-09-23T12:51:32Z</time>
      </trkpt>
      <trkpt lat="44.88789" lon="5.27862">
        <ele>1349.83</ele>
        <time>2021-09-23T12:51:46Z</time>
      </trkpt>
      <trkpt lat="44.8879" lon="5.27862">
        <ele>1349.83</ele>
        <time>2021-09-23T12:51:48Z</time>
      </trkpt>
      <trkpt lat="44.88796" lon="5.27863">
        <ele>1351.27</ele>
        <time>2021-09-23T12:51:55Z</time>
      </trkpt>
      <trkpt lat="44.88808" lon="5.27868">
        <ele>1351.75</ele>
        <time>2021-09-23T12:52:08Z</time>
      </trkpt>
      <trkpt lat="44.88827" lon="5.27871">
        <ele>1352.71</ele>
        <time>2021-09-23T12:52:24Z</time>
      </trkpt>
      <trkpt lat="44.88825" lon="5.27861">
        <ele>1351.27</ele>
        <time>2021-09-23T12:52:39Z</time>
      </trkpt>
      <trkpt lat="44.88824" lon="5.27854">
        <ele>1350.79</ele>
        <time>2021-09-23T12:52:45Z</time>
      </trkpt>
      <trkpt lat="44.88819" lon="5.27829">
        <ele>1348.39</ele>
        <time>2021-09-23T12:53:01Z</time>
      </trkpt>
      <trkpt lat="44.88818" lon="5.27809">
        <ele>1345.98</ele>
        <time>2021-09-23T12:53:15Z</time>
      </trkpt>
      <trkpt lat="44.88818" lon="5.27794">
        <ele>1342.62</ele>
        <time>2021-09-23T12:53:27Z</time>
      </trkpt>
      <trkpt lat="44.88817" lon="5.27783">
        <ele>1340.22</ele>
        <time>2021-09-23T12:53:40Z</time>
      </trkpt>
      <trkpt lat="44.88824" lon="5.27772">
        <ele>1337.81</ele>
        <time>2021-09-23T12:53:54Z</time>
      </trkpt>
      <trkpt lat="44.88836" lon="5.27771">
        <ele>1335.89</ele>
        <time>2021-09-23T12:54:09Z</time>
      </trkpt>
      <trkpt lat="44.88836" lon="5.27766">
        <ele>1335.41</ele>
        <time>2021-09-23T12:54:12Z</time>
      </trkpt>
      <trkpt lat="44.88836" lon="5.27761">
        <ele>1334.93</ele>
        <time>2021-09-23T12:54:17Z</time>
      </trkpt>
      <trkpt lat="44.88833" lon="5.2775">
        <ele>1333.01</ele>
        <time>2021-09-23T12:54:27Z</time>
      </trkpt>
      <trkpt lat="44.88837" lon="5.27731">
        <ele>1329.64</ele>
        <time>2021-09-23T12:54:40Z</time>
      </trkpt>
      <trkpt lat="44.88839" lon="5.27719">
        <ele>1329.64</ele>
        <time>2021-09-23T12:54:53Z</time>
      </trkpt>
      <trkpt lat="44.88831" lon="5.27719">
        <ele>1327.24</ele>
        <time>2021-09-23T13:06:00Z</time>
      </trkpt>
      <trkpt lat="44.88829" lon="5.27719">
        <ele>1326.28</ele>
        <time>2021-09-23T13:06:03Z</time>
      </trkpt>
      <trkpt lat="44.88811" lon="5.27717">
        <ele>1325.8</ele>
        <time>2021-09-23T13:06:20Z</time>
      </trkpt>
      <trkpt lat="44.88808" lon="5.27718">
        <ele>1325.8</ele>
        <time>2021-09-23T13:06:22Z</time>
      </trkpt>
      <trkpt lat="44.88791" lon="5.2773">
        <ele>1327.24</ele>
        <time>2021-09-23T13:06:39Z</time>
      </trkpt>
      <trkpt lat="44.88775" lon="5.2774">
        <ele>1328.2</ele>
        <time>2021-09-23T13:06:56Z</time>
      </trkpt>
      <trkpt lat="44.88767" lon="5.27734">
        <ele>1328.68</ele>
        <time>2021-09-23T13:07:10Z</time>
      </trkpt>
      <trkpt lat="44.88767" lon="5.2773">
        <ele>1327.24</ele>
        <time>2021-09-23T13:07:15Z</time>
      </trkpt>
      <trkpt lat="44.8877" lon="5.27713">
        <ele>1325.8</ele>
        <time>2021-09-23T13:07:33Z</time>
      </trkpt>
      <trkpt lat="44.88765" lon="5.27697">
        <ele>1323.87</ele>
        <time>2021-09-23T13:07:48Z</time>
      </trkpt>
      <trkpt lat="44.88764" lon="5.27696">
        <ele>1323.39</ele>
        <time>2021-09-23T13:07:50Z</time>
      </trkpt>
      <trkpt lat="44.88758" lon="5.2769">
        <ele>1323.39</ele>
        <time>2021-09-23T13:07:56Z</time>
      </trkpt>
      <trkpt lat="44.88757" lon="5.27687">
        <ele>1323.39</ele>
        <time>2021-09-23T13:07:58Z</time>
      </trkpt>
      <trkpt lat="44.8875" lon="5.2768">
        <ele>1322.91</ele>
        <time>2021-09-23T13:08:04Z</time>
      </trkpt>
      <trkpt lat="44.8874" lon="5.2766">
        <ele>1321.95</ele>
        <time>2021-09-23T13:08:18Z</time>
      </trkpt>
      <trkpt lat="44.88727" lon="5.27641">
        <ele>1320.99</ele>
        <time>2021-09-23T13:08:32Z</time>
      </trkpt>
      <trkpt lat="44.88714" lon="5.27625">
        <ele>1320.03</ele>
        <time>2021-09-23T13:08:46Z</time>
      </trkpt>
      <trkpt lat="44.88713" lon="5.27622">
        <ele>1320.03</ele>
        <time>2021-09-23T13:08:48Z</time>
      </trkpt>
      <trkpt lat="44.88698" lon="5.27604">
        <ele>1318.59</ele>
        <time>2021-09-23T13:09:04Z</time>
      </trkpt>
      <trkpt lat="44.88685" lon="5.27581">
        <ele>1317.62</ele>
        <time>2021-09-23T13:09:20Z</time>
      </trkpt>
      <trkpt lat="44.88677" lon="5.27558">
        <ele>1317.62</ele>
        <time>2021-09-23T13:09:34Z</time>
      </trkpt>
      <trkpt lat="44.8867" lon="5.27526">
        <ele>1316.18</ele>
        <time>2021-09-23T13:09:52Z</time>
      </trkpt>
      <trkpt lat="44.88673" lon="5.27515">
        <ele>1315.7</ele>
        <time>2021-09-23T13:09:59Z</time>
      </trkpt>
      <trkpt lat="44.88683" lon="5.27492">
        <ele>1314.74</ele>
        <time>2021-09-23T13:10:15Z</time>
      </trkpt>
      <trkpt lat="44.88694" lon="5.27476">
        <ele>1313.78</ele>
        <time>2021-09-23T13:10:30Z</time>
      </trkpt>
      <trkpt lat="44.88702" lon="5.27458">
        <ele>1312.82</ele>
        <time>2021-09-23T13:10:42Z</time>
      </trkpt>
      <trkpt lat="44.88704" lon="5.27447">
        <ele>1312.34</ele>
        <time>2021-09-23T13:10:50Z</time>
      </trkpt>
      <trkpt lat="44.88704" lon="5.27438">
        <ele>1311.86</ele>
        <time>2021-09-23T13:10:55Z</time>
      </trkpt>
      <trkpt lat="44.88708" lon="5.27429">
        <ele>1310.9</ele>
        <time>2021-09-23T13:11:00Z</time>
      </trkpt>
      <trkpt lat="44.88722" lon="5.27406">
        <ele>1309.93</ele>
        <time>2021-09-23T13:11:14Z</time>
      </trkpt>
      <trkpt lat="44.88737" lon="5.27389">
        <ele>1308.97</ele>
        <time>2021-09-23T13:11:28Z</time>
      </trkpt>
      <trkpt lat="44.88752" lon="5.27369">
        <ele>1307.53</ele>
        <time>2021-09-23T13:11:43Z</time>
      </trkpt>
      <trkpt lat="44.88761" lon="5.27353">
        <ele>1306.57</ele>
        <time>2021-09-23T13:11:57Z</time>
      </trkpt>
      <trkpt lat="44.88759" lon="5.27345">
        <ele>1305.61</ele>
        <time>2021-09-23T13:12:02Z</time>
      </trkpt>
      <trkpt lat="44.88745" lon="5.27324">
        <ele>1304.17</ele>
        <time>2021-09-23T13:12:18Z</time>
      </trkpt>
      <trkpt lat="44.88737" lon="5.27306">
        <ele>1303.2</ele>
        <time>2021-09-23T13:12:32Z</time>
      </trkpt>
      <trkpt lat="44.88729" lon="5.27287">
        <ele>1302.72</ele>
        <time>2021-09-23T13:12:45Z</time>
      </trkpt>
      <trkpt lat="44.88727" lon="5.27283">
        <ele>1302.24</ele>
        <time>2021-09-23T13:12:48Z</time>
      </trkpt>
      <trkpt lat="44.88721" lon="5.27277">
        <ele>1301.76</ele>
        <time>2021-09-23T13:12:54Z</time>
      </trkpt>
      <trkpt lat="44.88714" lon="5.2727">
        <ele>1300.8</ele>
        <time>2021-09-23T13:13:01Z</time>
      </trkpt>
      <trkpt lat="44.88697" lon="5.27248">
        <ele>1299.36</ele>
        <time>2021-09-23T13:13:17Z</time>
      </trkpt>
      <trkpt lat="44.88686" lon="5.27235">
        <ele>1298.4</ele>
        <time>2021-09-23T13:13:28Z</time>
      </trkpt>
      <trkpt lat="44.88678" lon="5.27223">
        <ele>1297.44</ele>
        <time>2021-09-23T13:13:42Z</time>
      </trkpt>
      <trkpt lat="44.88678" lon="5.27219">
        <ele>1297.44</ele>
        <time>2021-09-23T13:14:06Z</time>
      </trkpt>
      <trkpt lat="44.88677" lon="5.27212">
        <ele>1297.44</ele>
        <time>2021-09-23T13:14:11Z</time>
      </trkpt>
      <trkpt lat="44.8868" lon="5.27204">
        <ele>1295.51</ele>
        <time>2021-09-23T13:14:16Z</time>
      </trkpt>
      <trkpt lat="44.88684" lon="5.27182">
        <ele>1293.11</ele>
        <time>2021-09-23T13:14:31Z</time>
      </trkpt>
      <trkpt lat="44.88687" lon="5.2716">
        <ele>1291.67</ele>
        <time>2021-09-23T13:14:46Z</time>
      </trkpt>
      <trkpt lat="44.88689" lon="5.27142">
        <ele>1289.27</ele>
        <time>2021-09-23T13:15:04Z</time>
      </trkpt>
      <trkpt lat="44.88695" lon="5.2712">
        <ele>1286.38</ele>
        <time>2021-09-23T13:15:21Z</time>
      </trkpt>
      <trkpt lat="44.887" lon="5.27096">
        <ele>1283.98</ele>
        <time>2021-09-23T13:15:37Z</time>
      </trkpt>
      <trkpt lat="44.88702" lon="5.27079">
        <ele>1282.06</ele>
        <time>2021-09-23T13:15:52Z</time>
      </trkpt>
      <trkpt lat="44.88708" lon="5.27056">
        <ele>1280.13</ele>
        <time>2021-09-23T13:16:07Z</time>
      </trkpt>
      <trkpt lat="44.88716" lon="5.27028">
        <ele>1277.25</ele>
        <time>2021-09-23T13:16:23Z</time>
      </trkpt>
      <trkpt lat="44.88717" lon="5.2702">
        <ele>1275.81</ele>
        <time>2021-09-23T13:16:28Z</time>
      </trkpt>
      <trkpt lat="44.88718" lon="5.26995">
        <ele>1273.4</ele>
        <time>2021-09-23T13:16:43Z</time>
      </trkpt>
      <trkpt lat="44.88719" lon="5.26979">
        <ele>1270.04</ele>
        <time>2021-09-23T13:16:54Z</time>
      </trkpt>
      <trkpt lat="44.88726" lon="5.26967">
        <ele>1269.08</ele>
        <time>2021-09-23T13:17:09Z</time>
      </trkpt>
      <trkpt lat="44.88726" lon="5.26966">
        <ele>1267.64</ele>
        <time>2021-09-23T13:19:37Z</time>
      </trkpt>
      <trkpt lat="44.8872" lon="5.26947">
        <ele>1267.64</ele>
        <time>2021-09-23T13:19:50Z</time>
      </trkpt>
      <trkpt lat="44.88718" lon="5.26942">
        <ele>1269.08</ele>
        <time>2021-09-23T13:19:53Z</time>
      </trkpt>
      <trkpt lat="44.88713" lon="5.26929">
        <ele>1270.04</ele>
        <time>2021-09-23T13:20:03Z</time>
      </trkpt>
      <trkpt lat="44.88704" lon="5.26909">
        <ele>1271</ele>
        <time>2021-09-23T13:20:18Z</time>
      </trkpt>
      <trkpt lat="44.88702" lon="5.26903">
        <ele>1271.48</ele>
        <time>2021-09-23T13:20:22Z</time>
      </trkpt>
      <trkpt lat="44.88701" lon="5.26885">
        <ele>1273.4</ele>
        <time>2021-09-23T13:20:33Z</time>
      </trkpt>
      <trkpt lat="44.88698" lon="5.26866">
        <ele>1274.85</ele>
        <time>2021-09-23T13:20:46Z</time>
      </trkpt>
      <trkpt lat="44.88695" lon="5.26848">
        <ele>1276.29</ele>
        <time>2021-09-23T13:21:00Z</time>
      </trkpt>
      <trkpt lat="44.88694" lon="5.26827">
        <ele>1278.21</ele>
        <time>2021-09-23T13:21:16Z</time>
      </trkpt>
      <trkpt lat="44.88692" lon="5.26811">
        <ele>1278.21</ele>
        <time>2021-09-23T13:21:29Z</time>
      </trkpt>
      <trkpt lat="44.88694" lon="5.26793">
        <ele>1279.65</ele>
        <time>2021-09-23T13:21:44Z</time>
      </trkpt>
      <trkpt lat="44.88691" lon="5.26778">
        <ele>1282.06</ele>
        <time>2021-09-23T13:21:57Z</time>
      </trkpt>
      <trkpt lat="44.8868" lon="5.26765">
        <ele>1283.02</ele>
        <time>2021-09-23T13:22:12Z</time>
      </trkpt>
      <trkpt lat="44.88673" lon="5.26751">
        <ele>1284.46</ele>
        <time>2021-09-23T13:22:27Z</time>
      </trkpt>
      <trkpt lat="44.88664" lon="5.26739">
        <ele>1286.38</ele>
        <time>2021-09-23T13:22:42Z</time>
      </trkpt>
      <trkpt lat="44.88661" lon="5.26724">
        <ele>1287.34</ele>
        <time>2021-09-23T13:22:55Z</time>
      </trkpt>
      <trkpt lat="44.88657" lon="5.26711">
        <ele>1288.3</ele>
        <time>2021-09-23T13:23:07Z</time>
      </trkpt>
      <trkpt lat="44.88654" lon="5.26698">
        <ele>1289.75</ele>
        <time>2021-09-23T13:23:20Z</time>
      </trkpt>
      <trkpt lat="44.88649" lon="5.26681">
        <ele>1292.15</ele>
        <time>2021-09-23T13:23:35Z</time>
      </trkpt>
      <trkpt lat="44.88643" lon="5.26667">
        <ele>1294.55</ele>
        <time>2021-09-23T13:23:51Z</time>
      </trkpt>
      <trkpt lat="44.88636" lon="5.26649">
        <ele>1296.96</ele>
        <time>2021-09-23T13:24:09Z</time>
      </trkpt>
      <trkpt lat="44.88629" lon="5.26636">
        <ele>1297.92</ele>
        <time>2021-09-23T13:24:22Z</time>
      </trkpt>
      <trkpt lat="44.88619" lon="5.26631">
        <ele>1299.84</ele>
        <time>2021-09-23T13:24:34Z</time>
      </trkpt>
      <trkpt lat="44.88612" lon="5.26627">
        <ele>1302.24</ele>
        <time>2021-09-23T13:24:48Z</time>
      </trkpt>
      <trkpt lat="44.886" lon="5.26619">
        <ele>1304.17</ele>
        <time>2021-09-23T13:25:03Z</time>
      </trkpt>
      <trkpt lat="44.88593" lon="5.26611">
        <ele>1306.57</ele>
        <time>2021-09-23T13:25:16Z</time>
      </trkpt>
      <trkpt lat="44.88588" lon="5.266">
        <ele>1308.49</ele>
        <time>2021-09-23T13:25:29Z</time>
      </trkpt>
      <trkpt lat="44.88584" lon="5.26587">
        <ele>1310.9</ele>
        <time>2021-09-23T13:25:44Z</time>
      </trkpt>
      <trkpt lat="44.88578" lon="5.26573">
        <ele>1313.78</ele>
        <time>2021-09-23T13:26:00Z</time>
      </trkpt>
      <trkpt lat="44.88577" lon="5.26558">
        <ele>1314.74</ele>
        <time>2021-09-23T13:26:15Z</time>
      </trkpt>
      <trkpt lat="44.88574" lon="5.26539">
        <ele>1314.26</ele>
        <time>2021-09-23T13:26:30Z</time>
      </trkpt>
      <trkpt lat="44.88574" lon="5.26536">
        <ele>1314.26</ele>
        <time>2021-09-23T13:26:32Z</time>
      </trkpt>
      <trkpt lat="44.88573" lon="5.2652">
        <ele>1314.26</ele>
        <time>2021-09-23T13:26:41Z</time>
      </trkpt>
      <trkpt lat="44.88572" lon="5.26497">
        <ele>1315.7</ele>
        <time>2021-09-23T13:26:55Z</time>
      </trkpt>
      <trkpt lat="44.88572" lon="5.26493">
        <ele>1316.18</ele>
        <time>2021-09-23T13:26:58Z</time>
      </trkpt>
      <trkpt lat="44.88572" lon="5.26488">
        <ele>1316.18</ele>
        <time>2021-09-23T13:27:01Z</time>
      </trkpt>
      <trkpt lat="44.8857" lon="5.26471">
        <ele>1317.62</ele>
        <time>2021-09-23T13:27:15Z</time>
      </trkpt>
      <trkpt lat="44.88572" lon="5.26461">
        <ele>1317.62</ele>
        <time>2021-09-23T13:27:30Z</time>
      </trkpt>
      <trkpt lat="44.88572" lon="5.2646">
        <ele>1317.62</ele>
        <time>2021-09-23T13:27:51Z</time>
      </trkpt>
      <trkpt lat="44.88572" lon="5.26458">
        <ele>1317.62</ele>
        <time>2021-09-23T13:28:10Z</time>
      </trkpt>
      <trkpt lat="44.88571" lon="5.26455">
        <ele>1317.62</ele>
        <time>2021-09-23T13:28:13Z</time>
      </trkpt>
      <trkpt lat="44.8857" lon="5.26438">
        <ele>1316.18</ele>
        <time>2021-09-23T13:28:23Z</time>
      </trkpt>
      <trkpt lat="44.8857" lon="5.26436">
        <ele>1316.18</ele>
        <time>2021-09-23T13:28:24Z</time>
      </trkpt>
      <trkpt lat="44.8857" lon="5.26428">
        <ele>1315.7</ele>
        <time>2021-09-23T13:28:29Z</time>
      </trkpt>
      <trkpt lat="44.88568" lon="5.26421">
        <ele>1315.22</ele>
        <time>2021-09-23T13:28:33Z</time>
      </trkpt>
      <trkpt lat="44.88558" lon="5.26407">
        <ele>1314.26</ele>
        <time>2021-09-23T13:28:46Z</time>
      </trkpt>
      <trkpt lat="44.88548" lon="5.26386">
        <ele>1312.82</ele>
        <time>2021-09-23T13:29:01Z</time>
      </trkpt>
      <trkpt lat="44.88548" lon="5.26384">
        <ele>1312.82</ele>
        <time>2021-09-23T13:29:04Z</time>
      </trkpt>
      <trkpt lat="44.88541" lon="5.26368">
        <ele>1310.9</ele>
        <time>2021-09-23T13:29:16Z</time>
      </trkpt>
      <trkpt lat="44.88534" lon="5.26352">
        <ele>1308.49</ele>
        <time>2021-09-23T13:29:28Z</time>
      </trkpt>
      <trkpt lat="44.88525" lon="5.26332">
        <ele>1307.05</ele>
        <time>2021-09-23T13:29:41Z</time>
      </trkpt>
      <trkpt lat="44.88519" lon="5.26316">
        <ele>1306.57</ele>
        <time>2021-09-23T13:29:54Z</time>
      </trkpt>
      <trkpt lat="44.88513" lon="5.26295">
        <ele>1304.65</ele>
        <time>2021-09-23T13:30:08Z</time>
      </trkpt>
      <trkpt lat="44.88508" lon="5.26273">
        <ele>1304.17</ele>
        <time>2021-09-23T13:30:20Z</time>
      </trkpt>
      <trkpt lat="44.88502" lon="5.26253">
        <ele>1303.2</ele>
        <time>2021-09-23T13:30:31Z</time>
      </trkpt>
      <trkpt lat="44.88501" lon="5.26251">
        <ele>1302.72</ele>
        <time>2021-09-23T13:30:32Z</time>
      </trkpt>
      <trkpt lat="44.88498" lon="5.26242">
        <ele>1302.72</ele>
        <time>2021-09-23T13:30:37Z</time>
      </trkpt>
      <trkpt lat="44.88489" lon="5.2621">
        <ele>1301.76</ele>
        <time>2021-09-23T13:30:54Z</time>
      </trkpt>
      <trkpt lat="44.88485" lon="5.26191">
        <ele>1301.28</ele>
        <time>2021-09-23T13:31:06Z</time>
      </trkpt>
      <trkpt lat="44.88478" lon="5.26171">
        <ele>1300.8</ele>
        <time>2021-09-23T13:31:19Z</time>
      </trkpt>
      <trkpt lat="44.88472" lon="5.26152">
        <ele>1300.32</ele>
        <time>2021-09-23T13:31:31Z</time>
      </trkpt>
      <trkpt lat="44.88464" lon="5.26135">
        <ele>1300.32</ele>
        <time>2021-09-23T13:31:42Z</time>
      </trkpt>
      <trkpt lat="44.88457" lon="5.26109">
        <ele>1299.36</ele>
        <time>2021-09-23T13:31:56Z</time>
      </trkpt>
      <trkpt lat="44.88448" lon="5.26093">
        <ele>1298.4</ele>
        <time>2021-09-23T13:32:10Z</time>
      </trkpt>
      <trkpt lat="44.88441" lon="5.26085">
        <ele>1298.4</ele>
        <time>2021-09-23T13:32:17Z</time>
      </trkpt>
      <trkpt lat="44.88424" lon="5.26061">
        <ele>1296.96</ele>
        <time>2021-09-23T13:32:33Z</time>
      </trkpt>
      <trkpt lat="44.88423" lon="5.2606">
        <ele>1296.96</ele>
        <time>2021-09-23T13:32:34Z</time>
      </trkpt>
      <trkpt lat="44.8841" lon="5.2604">
        <ele>1296.48</ele>
        <time>2021-09-23T13:32:49Z</time>
      </trkpt>
      <trkpt lat="44.88395" lon="5.26023">
        <ele>1295.03</ele>
        <time>2021-09-23T13:33:02Z</time>
      </trkpt>
      <trkpt lat="44.88394" lon="5.26022">
        <ele>1294.55</ele>
        <time>2021-09-23T13:33:03Z</time>
      </trkpt>
      <trkpt lat="44.88392" lon="5.26017">
        <ele>1294.07</ele>
        <time>2021-09-23T13:33:07Z</time>
      </trkpt>
      <trkpt lat="44.88381" lon="5.26">
        <ele>1292.63</ele>
        <time>2021-09-23T13:33:21Z</time>
      </trkpt>
      <trkpt lat="44.88367" lon="5.25983">
        <ele>1291.67</ele>
        <time>2021-09-23T13:33:35Z</time>
      </trkpt>
      <trkpt lat="44.8835" lon="5.25973">
        <ele>1290.23</ele>
        <time>2021-09-23T13:33:51Z</time>
      </trkpt>
      <trkpt lat="44.88345" lon="5.25968">
        <ele>1290.23</ele>
        <time>2021-09-23T13:33:55Z</time>
      </trkpt>
      <trkpt lat="44.8833" lon="5.25953">
        <ele>1288.78</ele>
        <time>2021-09-23T13:34:09Z</time>
      </trkpt>
      <trkpt lat="44.88315" lon="5.25932">
        <ele>1288.3</ele>
        <time>2021-09-23T13:34:25Z</time>
      </trkpt>
      <trkpt lat="44.88304" lon="5.25909">
        <ele>1287.34</ele>
        <time>2021-09-23T13:34:39Z</time>
      </trkpt>
      <trkpt lat="44.88293" lon="5.2589">
        <ele>1284.94</ele>
        <time>2021-09-23T13:34:53Z</time>
      </trkpt>
      <trkpt lat="44.88281" lon="5.2587">
        <ele>1283.5</ele>
        <time>2021-09-23T13:35:08Z</time>
      </trkpt>
      <trkpt lat="44.88275" lon="5.25856">
        <ele>1283.02</ele>
        <time>2021-09-23T13:35:16Z</time>
      </trkpt>
      <trkpt lat="44.88269" lon="5.25826">
        <ele>1280.13</ele>
        <time>2021-09-23T13:35:34Z</time>
      </trkpt>
      <trkpt lat="44.88259" lon="5.25807">
        <ele>1277.25</ele>
        <time>2021-09-23T13:35:47Z</time>
      </trkpt>
      <trkpt lat="44.88258" lon="5.25806">
        <ele>1277.25</ele>
        <time>2021-09-23T13:35:48Z</time>
      </trkpt>
      <trkpt lat="44.88242" lon="5.25799">
        <ele>1273.88</ele>
        <time>2021-09-23T13:36:04Z</time>
      </trkpt>
      <trkpt lat="44.88231" lon="5.25796">
        <ele>1270.52</ele>
        <time>2021-09-23T13:36:15Z</time>
      </trkpt>
      <trkpt lat="44.88221" lon="5.25787">
        <ele>1267.64</ele>
        <time>2021-09-23T13:36:27Z</time>
      </trkpt>
      <trkpt lat="44.88217" lon="5.25776">
        <ele>1264.27</ele>
        <time>2021-09-23T13:36:38Z</time>
      </trkpt>
      <trkpt lat="44.88212" lon="5.25762">
        <ele>1260.91</ele>
        <time>2021-09-23T13:36:49Z</time>
      </trkpt>
      <trkpt lat="44.88203" lon="5.25747">
        <ele>1258.02</ele>
        <time>2021-09-23T13:37:01Z</time>
      </trkpt>
      <trkpt lat="44.88192" lon="5.25732">
        <ele>1254.18</ele>
        <time>2021-09-23T13:37:13Z</time>
      </trkpt>
      <trkpt lat="44.88181" lon="5.25723">
        <ele>1252.25</ele>
        <time>2021-09-23T13:37:27Z</time>
      </trkpt>
      <trkpt lat="44.88181" lon="5.25721">
        <ele>1252.25</ele>
        <time>2021-09-23T13:37:47Z</time>
      </trkpt>
      <trkpt lat="44.88172" lon="5.25716">
        <ele>1251.77</ele>
        <time>2021-09-23T13:38:01Z</time>
      </trkpt>
      <trkpt lat="44.88166" lon="5.25703">
        <ele>1249.85</ele>
        <time>2021-09-23T13:38:13Z</time>
      </trkpt>
      <trkpt lat="44.88165" lon="5.25681">
        <ele>1249.37</ele>
        <time>2021-09-23T13:38:30Z</time>
      </trkpt>
      <trkpt lat="44.88168" lon="5.25678">
        <ele>1249.37</ele>
        <time>2021-09-23T13:38:46Z</time>
      </trkpt>
      <trkpt lat="44.88169" lon="5.25671">
        <ele>1250.81</ele>
        <time>2021-09-23T13:39:06Z</time>
      </trkpt>
      <trkpt lat="44.88178" lon="5.25661">
        <ele>1252.74</ele>
        <time>2021-09-23T13:39:21Z</time>
      </trkpt>
      <trkpt lat="44.88183" lon="5.25654">
        <ele>1255.14</ele>
        <time>2021-09-23T13:39:36Z</time>
      </trkpt>
      <trkpt lat="44.88192" lon="5.2565">
        <ele>1257.06</ele>
        <time>2021-09-23T13:39:47Z</time>
      </trkpt>
      <trkpt lat="44.88198" lon="5.25647">
        <ele>1258.02</ele>
        <time>2021-09-23T13:39:55Z</time>
      </trkpt>
      <trkpt lat="44.88202" lon="5.25644">
        <ele>1258.5</ele>
        <time>2021-09-23T13:40:00Z</time>
      </trkpt>
      <trkpt lat="44.88206" lon="5.25643">
        <ele>1258.5</ele>
        <time>2021-09-23T13:40:04Z</time>
      </trkpt>
      <trkpt lat="44.8821" lon="5.25635">
        <ele>1259.94</ele>
        <time>2021-09-23T13:40:10Z</time>
      </trkpt>
      <trkpt lat="44.88219" lon="5.25621">
        <ele>1260.91</ele>
        <time>2021-09-23T13:40:23Z</time>
      </trkpt>
      <trkpt lat="44.88227" lon="5.25603">
        <ele>1260.91</ele>
        <time>2021-09-23T13:40:37Z</time>
      </trkpt>
      <trkpt lat="44.88227" lon="5.25597">
        <ele>1259.46</ele>
        <time>2021-09-23T13:40:41Z</time>
      </trkpt>
      <trkpt lat="44.88229" lon="5.25579">
        <ele>1256.58</ele>
        <time>2021-09-23T13:40:54Z</time>
      </trkpt>
      <trkpt lat="44.88223" lon="5.25561">
        <ele>1253.22</ele>
        <time>2021-09-23T13:41:07Z</time>
      </trkpt>
      <trkpt lat="44.88222" lon="5.25542">
        <ele>1251.29</ele>
        <time>2021-09-23T13:41:18Z</time>
      </trkpt>
      <trkpt lat="44.88217" lon="5.25522">
        <ele>1246.97</ele>
        <time>2021-09-23T13:41:31Z</time>
      </trkpt>
      <trkpt lat="44.88211" lon="5.25493">
        <ele>1243.6</ele>
        <time>2021-09-23T13:41:44Z</time>
      </trkpt>
      <trkpt lat="44.88206" lon="5.25467">
        <ele>1240.24</ele>
        <time>2021-09-23T13:41:57Z</time>
      </trkpt>
      <trkpt lat="44.88196" lon="5.25456">
        <ele>1237.35</ele>
        <time>2021-09-23T13:42:11Z</time>
      </trkpt>
      <trkpt lat="44.88191" lon="5.25448">
        <ele>1236.39</ele>
        <time>2021-09-23T13:42:16Z</time>
      </trkpt>
      <trkpt lat="44.88184" lon="5.25441">
        <ele>1234.95</ele>
        <time>2021-09-23T13:42:23Z</time>
      </trkpt>
      <trkpt lat="44.88174" lon="5.25423">
        <ele>1233.03</ele>
        <time>2021-09-23T13:42:32Z</time>
      </trkpt>
      <trkpt lat="44.88162" lon="5.25406">
        <ele>1230.62</ele>
        <time>2021-09-23T13:42:46Z</time>
      </trkpt>
      <trkpt lat="44.88152" lon="5.25396">
        <ele>1228.7</ele>
        <time>2021-09-23T13:43:00Z</time>
      </trkpt>
      <trkpt lat="44.88138" lon="5.25378">
        <ele>1226.78</ele>
        <time>2021-09-23T13:43:14Z</time>
      </trkpt>
      <trkpt lat="44.88133" lon="5.25372">
        <ele>1226.78</ele>
        <time>2021-09-23T13:43:18Z</time>
      </trkpt>
      <trkpt lat="44.88121" lon="5.25345">
        <ele>1224.38</ele>
        <time>2021-09-23T13:43:30Z</time>
      </trkpt>
      <trkpt lat="44.8811" lon="5.25325">
        <ele>1222.45</ele>
        <time>2021-09-23T13:43:43Z</time>
      </trkpt>
      <trkpt lat="44.88099" lon="5.25307">
        <ele>1220.05</ele>
        <time>2021-09-23T13:43:56Z</time>
      </trkpt>
      <trkpt lat="44.88091" lon="5.25284">
        <ele>1219.09</ele>
        <time>2021-09-23T13:44:08Z</time>
      </trkpt>
      <trkpt lat="44.8808" lon="5.2526">
        <ele>1217.17</ele>
        <time>2021-09-23T13:44:23Z</time>
      </trkpt>
      <trkpt lat="44.88073" lon="5.25239">
        <ele>1214.76</ele>
        <time>2021-09-23T13:44:37Z</time>
      </trkpt>
      <trkpt lat="44.88073" lon="5.25238">
        <ele>1214.76</ele>
        <time>2021-09-23T13:44:38Z</time>
      </trkpt>
      <trkpt lat="44.88071" lon="5.25224">
        <ele>1214.28</ele>
        <time>2021-09-23T13:44:43Z</time>
      </trkpt>
      <trkpt lat="44.88064" lon="5.25198">
        <ele>1213.32</ele>
        <time>2021-09-23T13:44:59Z</time>
      </trkpt>
      <trkpt lat="44.88061" lon="5.2519">
        <ele>1212.36</ele>
        <time>2021-09-23T13:45:12Z</time>
      </trkpt>
      <trkpt lat="44.88059" lon="5.25178">
        <ele>1212.36</ele>
        <time>2021-09-23T13:45:26Z</time>
      </trkpt>
      <trkpt lat="44.88053" lon="5.25156">
        <ele>1210.44</ele>
        <time>2021-09-23T13:45:42Z</time>
      </trkpt>
      <trkpt lat="44.88051" lon="5.25133">
        <ele>1208.03</ele>
        <time>2021-09-23T13:45:56Z</time>
      </trkpt>
      <trkpt lat="44.88053" lon="5.25109">
        <ele>1206.59</ele>
        <time>2021-09-23T13:46:09Z</time>
      </trkpt>
      <trkpt lat="44.88052" lon="5.25088">
        <ele>1203.71</ele>
        <time>2021-09-23T13:46:25Z</time>
      </trkpt>
      <trkpt lat="44.88051" lon="5.25071">
        <ele>1202.27</ele>
        <time>2021-09-23T13:46:34Z</time>
      </trkpt>
      <trkpt lat="44.88055" lon="5.25037">
        <ele>1200.34</ele>
        <time>2021-09-23T13:46:50Z</time>
      </trkpt>
      <trkpt lat="44.88061" lon="5.25008">
        <ele>1199.86</ele>
        <time>2021-09-23T13:47:06Z</time>
      </trkpt>
      <trkpt lat="44.88067" lon="5.24983">
        <ele>1198.9</ele>
        <time>2021-09-23T13:47:24Z</time>
      </trkpt>
      <trkpt lat="44.8807" lon="5.24976">
        <ele>1198.9</ele>
        <time>2021-09-23T13:47:41Z</time>
      </trkpt>
      <trkpt lat="44.88074" lon="5.24967">
        <ele>1198.9</ele>
        <time>2021-09-23T13:52:09Z</time>
      </trkpt>
      <trkpt lat="44.88085" lon="5.24949">
        <ele>1197.94</ele>
        <time>2021-09-23T13:52:24Z</time>
      </trkpt>
      <trkpt lat="44.88086" lon="5.24948">
        <ele>1197.94</ele>
        <time>2021-09-23T13:52:25Z</time>
      </trkpt>
      <trkpt lat="44.88092" lon="5.24928">
        <ele>1197.94</ele>
        <time>2021-09-23T13:52:41Z</time>
      </trkpt>
      <trkpt lat="44.88093" lon="5.24917">
        <ele>1197.94</ele>
        <time>2021-09-23T13:52:48Z</time>
      </trkpt>
      <trkpt lat="44.88098" lon="5.24893">
        <ele>1199.38</ele>
        <time>2021-09-23T13:53:03Z</time>
      </trkpt>
      <trkpt lat="44.88097" lon="5.2489">
        <ele>1199.38</ele>
        <time>2021-09-23T13:53:05Z</time>
      </trkpt>
      <trkpt lat="44.88101" lon="5.24882">
        <ele>1199.38</ele>
        <time>2021-09-23T13:53:11Z</time>
      </trkpt>
      <trkpt lat="44.88107" lon="5.24864">
        <ele>1199.38</ele>
        <time>2021-09-23T13:53:23Z</time>
      </trkpt>
      <trkpt lat="44.88118" lon="5.24837">
        <ele>1200.34</ele>
        <time>2021-09-23T13:53:42Z</time>
      </trkpt>
      <trkpt lat="44.88127" lon="5.24819">
        <ele>1200.82</ele>
        <time>2021-09-23T13:53:55Z</time>
      </trkpt>
      <trkpt lat="44.88134" lon="5.24808">
        <ele>1201.3</ele>
        <time>2021-09-23T13:54:04Z</time>
      </trkpt>
      <trkpt lat="44.88148" lon="5.24791">
        <ele>1202.27</ele>
        <time>2021-09-23T13:54:20Z</time>
      </trkpt>
      <trkpt lat="44.88161" lon="5.24774">
        <ele>1204.19</ele>
        <time>2021-09-23T13:54:36Z</time>
      </trkpt>
      <trkpt lat="44.88173" lon="5.24762">
        <ele>1206.11</ele>
        <time>2021-09-23T13:54:50Z</time>
      </trkpt>
      <trkpt lat="44.88184" lon="5.2475">
        <ele>1207.55</ele>
        <time>2021-09-23T13:55:04Z</time>
      </trkpt>
      <trkpt lat="44.88197" lon="5.24739">
        <ele>1208.51</ele>
        <time>2021-09-23T13:55:19Z</time>
      </trkpt>
      <trkpt lat="44.88204" lon="5.24732">
        <ele>1209.96</ele>
        <time>2021-09-23T13:55:27Z</time>
      </trkpt>
      <trkpt lat="44.88217" lon="5.24724">
        <ele>1210.92</ele>
        <time>2021-09-23T13:55:40Z</time>
      </trkpt>
      <trkpt lat="44.88228" lon="5.24714">
        <ele>1212.36</ele>
        <time>2021-09-23T13:55:53Z</time>
      </trkpt>
      <trkpt lat="44.8824" lon="5.24702">
        <ele>1213.8</ele>
        <time>2021-09-23T13:56:07Z</time>
      </trkpt>
      <trkpt lat="44.88247" lon="5.2469">
        <ele>1215.24</ele>
        <time>2021-09-23T13:56:18Z</time>
      </trkpt>
      <trkpt lat="44.88257" lon="5.24676">
        <ele>1216.69</ele>
        <time>2021-09-23T13:56:31Z</time>
      </trkpt>
      <trkpt lat="44.88271" lon="5.24665">
        <ele>1217.65</ele>
        <time>2021-09-23T13:56:45Z</time>
      </trkpt>
      <trkpt lat="44.88281" lon="5.24654">
        <ele>1219.09</ele>
        <time>2021-09-23T13:56:57Z</time>
      </trkpt>
      <trkpt lat="44.8829" lon="5.24643">
        <ele>1220.05</ele>
        <time>2021-09-23T13:57:09Z</time>
      </trkpt>
      <trkpt lat="44.88292" lon="5.24641">
        <ele>1220.53</ele>
        <time>2021-09-23T13:57:11Z</time>
      </trkpt>
      <trkpt lat="44.88292" lon="5.24634">
        <ele>1221.01</ele>
        <time>2021-09-23T13:58:10Z</time>
      </trkpt>
      <trkpt lat="44.88292" lon="5.24633">
        <ele>1221.01</ele>
        <time>2021-09-23T13:58:11Z</time>
      </trkpt>
      <trkpt lat="44.88317" lon="5.2463">
        <ele>1221.49</ele>
        <time>2021-09-23T13:58:28Z</time>
      </trkpt>
      <trkpt lat="44.88345" lon="5.24634">
        <ele>1222.45</ele>
        <time>2021-09-23T13:58:47Z</time>
      </trkpt>
      <trkpt lat="44.88353" lon="5.24636">
        <ele>1222.45</ele>
        <time>2021-09-23T13:58:52Z</time>
      </trkpt>
      <trkpt lat="44.88376" lon="5.24639">
        <ele>1222.45</ele>
        <time>2021-09-23T13:59:08Z</time>
      </trkpt>
      <trkpt lat="44.88382" lon="5.24636">
        <ele>1222.45</ele>
        <time>2021-09-23T13:59:13Z</time>
      </trkpt>
      <trkpt lat="44.88394" lon="5.24622">
        <ele>1223.42</ele>
        <time>2021-09-23T13:59:28Z</time>
      </trkpt>
      <trkpt lat="44.88409" lon="5.24617">
        <ele>1225.34</ele>
        <time>2021-09-23T13:59:44Z</time>
      </trkpt>
      <trkpt lat="44.88414" lon="5.24617">
        <ele>1225.34</ele>
        <time>2021-09-23T14:00:05Z</time>
      </trkpt>
      <trkpt lat="44.88414" lon="5.24616">
        <ele>1225.34</ele>
        <time>2021-09-23T14:00:26Z</time>
      </trkpt>
      <trkpt lat="44.88419" lon="5.24616">
        <ele>1225.34</ele>
        <time>2021-09-23T14:00:41Z</time>
      </trkpt>
      <trkpt lat="44.8842" lon="5.24612">
        <ele>1225.34</ele>
        <time>2021-09-23T14:00:59Z</time>
      </trkpt>
      <trkpt lat="44.88421" lon="5.24608">
        <ele>1225.82</ele>
        <time>2021-09-23T14:01:14Z</time>
      </trkpt>
      <trkpt lat="44.8842" lon="5.24594">
        <ele>1228.22</ele>
        <time>2021-09-23T14:01:27Z</time>
      </trkpt>
      <trkpt lat="44.88423" lon="5.24585">
        <ele>1231.11</ele>
        <time>2021-09-23T14:01:42Z</time>
      </trkpt>
      <trkpt lat="44.88423" lon="5.24584">
        <ele>1231.11</ele>
        <time>2021-09-23T14:01:43Z</time>
      </trkpt>
      <trkpt lat="44.88423" lon="5.24573">
        <ele>1232.55</ele>
        <time>2021-09-23T14:01:50Z</time>
      </trkpt>
      <trkpt lat="44.88425" lon="5.2456">
        <ele>1233.99</ele>
        <time>2021-09-23T14:01:58Z</time>
      </trkpt>
      <trkpt lat="44.8843" lon="5.24541">
        <ele>1235.91</ele>
        <time>2021-09-23T14:02:10Z</time>
      </trkpt>
      <trkpt lat="44.8843" lon="5.2452">
        <ele>1238.32</ele>
        <time>2021-09-23T14:02:23Z</time>
      </trkpt>
      <trkpt lat="44.88429" lon="5.24518">
        <ele>1238.8</ele>
        <time>2021-09-23T14:02:24Z</time>
      </trkpt>
      <trkpt lat="44.88429" lon="5.24496">
        <ele>1240.24</ele>
        <time>2021-09-23T14:02:39Z</time>
      </trkpt>
      <trkpt lat="44.88427" lon="5.24477">
        <ele>1242.64</ele>
        <time>2021-09-23T14:02:52Z</time>
      </trkpt>
      <trkpt lat="44.88427" lon="5.24462">
        <ele>1243.6</ele>
        <time>2021-09-23T14:03:02Z</time>
      </trkpt>
      <trkpt lat="44.88423" lon="5.24443">
        <ele>1246.49</ele>
        <time>2021-09-23T14:03:17Z</time>
      </trkpt>
      <trkpt lat="44.88421" lon="5.24427">
        <ele>1248.89</ele>
        <time>2021-09-23T14:03:29Z</time>
      </trkpt>
      <trkpt lat="44.88419" lon="5.24408">
        <ele>1251.29</ele>
        <time>2021-09-23T14:03:43Z</time>
      </trkpt>
      <trkpt lat="44.88418" lon="5.24392">
        <ele>1253.22</ele>
        <time>2021-09-23T14:03:55Z</time>
      </trkpt>
      <trkpt lat="44.88416" lon="5.24376">
        <ele>1255.14</ele>
        <time>2021-09-23T14:04:09Z</time>
      </trkpt>
      <trkpt lat="44.88415" lon="5.2436">
        <ele>1258.02</ele>
        <time>2021-09-23T14:04:23Z</time>
      </trkpt>
      <trkpt lat="44.88414" lon="5.24345">
        <ele>1260.43</ele>
        <time>2021-09-23T14:04:37Z</time>
      </trkpt>
      <trkpt lat="44.88415" lon="5.24332">
        <ele>1262.83</ele>
        <time>2021-09-23T14:04:50Z</time>
      </trkpt>
      <trkpt lat="44.88418" lon="5.24319">
        <ele>1266.19</ele>
        <time>2021-09-23T14:05:06Z</time>
      </trkpt>
      <trkpt lat="44.88422" lon="5.24308">
        <ele>1269.56</ele>
        <time>2021-09-23T14:05:20Z</time>
      </trkpt>
      <trkpt lat="44.88427" lon="5.24298">
        <ele>1272.92</ele>
        <time>2021-09-23T14:05:36Z</time>
      </trkpt>
      <trkpt lat="44.88436" lon="5.24291">
        <ele>1275.81</ele>
        <time>2021-09-23T14:05:52Z</time>
      </trkpt>
      <trkpt lat="44.88436" lon="5.24281">
        <ele>1278.21</ele>
        <time>2021-09-23T14:06:06Z</time>
      </trkpt>
      <trkpt lat="44.88437" lon="5.24269">
        <ele>1281.57</ele>
        <time>2021-09-23T14:06:22Z</time>
      </trkpt>
      <trkpt lat="44.88438" lon="5.24259">
        <ele>1284.46</ele>
        <time>2021-09-23T14:06:37Z</time>
      </trkpt>
      <trkpt lat="44.88444" lon="5.24256">
        <ele>1287.34</ele>
        <time>2021-09-23T14:06:51Z</time>
      </trkpt>
      <trkpt lat="44.88449" lon="5.24253">
        <ele>1289.27</ele>
        <time>2021-09-23T14:07:07Z</time>
      </trkpt>
      <trkpt lat="44.88444" lon="5.24251">
        <ele>1289.75</ele>
        <time>2021-09-23T14:07:29Z</time>
      </trkpt>
      <trkpt lat="44.88443" lon="5.24246">
        <ele>1290.71</ele>
        <time>2021-09-23T14:07:49Z</time>
      </trkpt>
      <trkpt lat="44.88445" lon="5.24239">
        <ele>1294.07</ele>
        <time>2021-09-23T14:08:02Z</time>
      </trkpt>
      <trkpt lat="44.88444" lon="5.24228">
        <ele>1296.48</ele>
        <time>2021-09-23T14:08:18Z</time>
      </trkpt>
      <trkpt lat="44.88444" lon="5.24224">
        <ele>1295.99</ele>
        <time>2021-09-23T14:13:52Z</time>
      </trkpt>
      <trkpt lat="44.88444" lon="5.24222">
        <ele>1295.99</ele>
        <time>2021-09-23T14:14:16Z</time>
      </trkpt>
      <trkpt lat="44.88439" lon="5.24222">
        <ele>1295.99</ele>
        <time>2021-09-23T14:14:47Z</time>
      </trkpt>
      <trkpt lat="44.88437" lon="5.24215">
        <ele>1296.48</ele>
        <time>2021-09-23T14:15:09Z</time>
      </trkpt>
      <trkpt lat="44.88434" lon="5.24204">
        <ele>1299.36</ele>
        <time>2021-09-23T14:15:26Z</time>
      </trkpt>
      <trkpt lat="44.88426" lon="5.24196">
        <ele>1302.24</ele>
        <time>2021-09-23T14:15:43Z</time>
      </trkpt>
      <trkpt lat="44.8842" lon="5.24186">
        <ele>1304.17</ele>
        <time>2021-09-23T14:15:57Z</time>
      </trkpt>
      <trkpt lat="44.88411" lon="5.24182">
        <ele>1306.57</ele>
        <time>2021-09-23T14:16:12Z</time>
      </trkpt>
      <trkpt lat="44.88402" lon="5.24174">
        <ele>1309.45</ele>
        <time>2021-09-23T14:16:27Z</time>
      </trkpt>
      <trkpt lat="44.88395" lon="5.24168">
        <ele>1311.38</ele>
        <time>2021-09-23T14:16:43Z</time>
      </trkpt>
      <trkpt lat="44.88407" lon="5.24162">
        <ele>1314.26</ele>
        <time>2021-09-23T14:17:01Z</time>
      </trkpt>
      <trkpt lat="44.88419" lon="5.24161">
        <ele>1314.74</ele>
        <time>2021-09-23T14:17:16Z</time>
      </trkpt>
      <trkpt lat="44.88427" lon="5.24156">
        <ele>1315.22</ele>
        <time>2021-09-23T14:17:30Z</time>
      </trkpt>
      <trkpt lat="44.88415" lon="5.2415">
        <ele>1318.1</ele>
        <time>2021-09-23T14:17:48Z</time>
      </trkpt>
      <trkpt lat="44.88405" lon="5.24143">
        <ele>1320.99</ele>
        <time>2021-09-23T14:18:05Z</time>
      </trkpt>
      <trkpt lat="44.88396" lon="5.2414">
        <ele>1323.39</ele>
        <time>2021-09-23T14:18:19Z</time>
      </trkpt>
      <trkpt lat="44.88396" lon="5.24133">
        <ele>1325.31</ele>
        <time>2021-09-23T14:18:33Z</time>
      </trkpt>
      <trkpt lat="44.88405" lon="5.24127">
        <ele>1327.72</ele>
        <time>2021-09-23T14:18:48Z</time>
      </trkpt>
      <trkpt lat="44.88418" lon="5.2412">
        <ele>1330.12</ele>
        <time>2021-09-23T14:19:04Z</time>
      </trkpt>
      <trkpt lat="44.88424" lon="5.24118">
        <ele>1331.56</ele>
        <time>2021-09-23T14:19:15Z</time>
      </trkpt>
      <trkpt lat="44.88435" lon="5.24113">
        <ele>1334.45</ele>
        <time>2021-09-23T14:19:32Z</time>
      </trkpt>
      <trkpt lat="44.88448" lon="5.24107">
        <ele>1337.33</ele>
        <time>2021-09-23T14:19:52Z</time>
      </trkpt>
      <trkpt lat="44.88447" lon="5.24104">
        <ele>1337.33</ele>
        <time>2021-09-23T14:19:55Z</time>
      </trkpt>
      <trkpt lat="44.88436" lon="5.24096">
        <ele>1339.25</ele>
        <time>2021-09-23T14:20:11Z</time>
      </trkpt>
      <trkpt lat="44.88433" lon="5.24096">
        <ele>1339.73</ele>
        <time>2021-09-23T14:20:28Z</time>
      </trkpt>
      <trkpt lat="44.88423" lon="5.2409">
        <ele>1341.18</ele>
        <time>2021-09-23T14:20:44Z</time>
      </trkpt>
      <trkpt lat="44.88409" lon="5.24082">
        <ele>1344.06</ele>
        <time>2021-09-23T14:21:00Z</time>
      </trkpt>
      <trkpt lat="44.88404" lon="5.2408">
        <ele>1345.5</ele>
        <time>2021-09-23T14:21:07Z</time>
      </trkpt>
      <trkpt lat="44.88393" lon="5.24072">
        <ele>1347.43</ele>
        <time>2021-09-23T14:21:20Z</time>
      </trkpt>
      <trkpt lat="44.88384" lon="5.24061">
        <ele>1349.83</ele>
        <time>2021-09-23T14:21:35Z</time>
      </trkpt>
      <trkpt lat="44.88402" lon="5.24059">
        <ele>1349.83</ele>
        <time>2021-09-23T14:21:51Z</time>
      </trkpt>
      <trkpt lat="44.88411" lon="5.24059">
        <ele>1349.83</ele>
        <time>2021-09-23T14:21:59Z</time>
      </trkpt>
      <trkpt lat="44.88424" lon="5.24058">
        <ele>1351.27</ele>
        <time>2021-09-23T14:22:15Z</time>
      </trkpt>
      <trkpt lat="44.88425" lon="5.24057">
        <ele>1351.27</ele>
        <time>2021-09-23T14:22:18Z</time>
      </trkpt>
      <trkpt lat="44.8843" lon="5.24052">
        <ele>1352.23</ele>
        <time>2021-09-23T14:22:26Z</time>
      </trkpt>
      <trkpt lat="44.88432" lon="5.24045">
        <ele>1353.19</ele>
        <time>2021-09-23T14:22:41Z</time>
      </trkpt>
      <trkpt lat="44.88433" lon="5.24042">
        <ele>1353.19</ele>
        <time>2021-09-23T14:22:43Z</time>
      </trkpt>
      <trkpt lat="44.88433" lon="5.24037">
        <ele>1353.67</ele>
        <time>2021-09-23T14:22:46Z</time>
      </trkpt>
      <trkpt lat="44.88433" lon="5.24031">
        <ele>1353.67</ele>
        <time>2021-09-23T14:22:50Z</time>
      </trkpt>
      <trkpt lat="44.88436" lon="5.24023">
        <ele>1354.63</ele>
        <time>2021-09-23T14:22:56Z</time>
      </trkpt>
      <trkpt lat="44.88443" lon="5.24006">
        <ele>1357.52</ele>
        <time>2021-09-23T14:23:10Z</time>
      </trkpt>
      <trkpt lat="44.88447" lon="5.24001">
        <ele>1358.96</ele>
        <time>2021-09-23T14:23:17Z</time>
      </trkpt>
      <trkpt lat="44.88452" lon="5.23987">
        <ele>1361.84</ele>
        <time>2021-09-23T14:23:31Z</time>
      </trkpt>
      <trkpt lat="44.88455" lon="5.23974">
        <ele>1364.73</ele>
        <time>2021-09-23T14:23:47Z</time>
      </trkpt>
      <trkpt lat="44.88457" lon="5.23957">
        <ele>1368.09</ele>
        <time>2021-09-23T14:24:03Z</time>
      </trkpt>
      <trkpt lat="44.88457" lon="5.2394">
        <ele>1370.02</ele>
        <time>2021-09-23T14:24:17Z</time>
      </trkpt>
      <trkpt lat="44.88461" lon="5.23928">
        <ele>1372.42</ele>
        <time>2021-09-23T14:24:34Z</time>
      </trkpt>
      <trkpt lat="44.88463" lon="5.23921">
        <ele>1374.82</ele>
        <time>2021-09-23T14:33:20Z</time>
      </trkpt>
      <trkpt lat="44.88466" lon="5.23916">
        <ele>1373.86</ele>
        <time>2021-09-23T14:33:40Z</time>
      </trkpt>
      <trkpt lat="44.88474" lon="5.23906">
        <ele>1371.94</ele>
        <time>2021-09-23T14:33:54Z</time>
      </trkpt>
      <trkpt lat="44.88477" lon="5.23902">
        <ele>1370.98</ele>
        <time>2021-09-23T14:33:59Z</time>
      </trkpt>
      <trkpt lat="44.8849" lon="5.23891">
        <ele>1369.05</ele>
        <time>2021-09-23T14:34:14Z</time>
      </trkpt>
      <trkpt lat="44.88503" lon="5.23887">
        <ele>1368.57</ele>
        <time>2021-09-23T14:34:28Z</time>
      </trkpt>
      <trkpt lat="44.8851" lon="5.23879">
        <ele>1367.13</ele>
        <time>2021-09-23T14:34:38Z</time>
      </trkpt>
      <trkpt lat="44.88516" lon="5.23873">
        <ele>1367.13</ele>
        <time>2021-09-23T14:34:44Z</time>
      </trkpt>
      <trkpt lat="44.8852" lon="5.2387">
        <ele>1367.13</ele>
        <time>2021-09-23T14:34:48Z</time>
      </trkpt>
      <trkpt lat="44.88524" lon="5.23869">
        <ele>1367.13</ele>
        <time>2021-09-23T14:34:52Z</time>
      </trkpt>
      <trkpt lat="44.88536" lon="5.23866">
        <ele>1368.57</ele>
        <time>2021-09-23T14:35:04Z</time>
      </trkpt>
      <trkpt lat="44.88548" lon="5.2386">
        <ele>1369.54</ele>
        <time>2021-09-23T14:35:19Z</time>
      </trkpt>
      <trkpt lat="44.88559" lon="5.2385">
        <ele>1369.54</ele>
        <time>2021-09-23T14:35:36Z</time>
      </trkpt>
      <trkpt lat="44.88573" lon="5.23842">
        <ele>1370.98</ele>
        <time>2021-09-23T14:35:48Z</time>
      </trkpt>
      <trkpt lat="44.8859" lon="5.2383">
        <ele>1371.46</ele>
        <time>2021-09-23T14:36:02Z</time>
      </trkpt>
      <trkpt lat="44.886" lon="5.23822">
        <ele>1372.42</ele>
        <time>2021-09-23T14:36:17Z</time>
      </trkpt>
      <trkpt lat="44.88615" lon="5.23813">
        <ele>1373.86</ele>
        <time>2021-09-23T14:36:30Z</time>
      </trkpt>
      <trkpt lat="44.88628" lon="5.23803">
        <ele>1375.3</ele>
        <time>2021-09-23T14:36:44Z</time>
      </trkpt>
      <trkpt lat="44.8864" lon="5.23794">
        <ele>1378.67</ele>
        <time>2021-09-23T14:36:58Z</time>
      </trkpt>
      <trkpt lat="44.88653" lon="5.23784">
        <ele>1381.55</ele>
        <time>2021-09-23T14:37:14Z</time>
      </trkpt>
      <trkpt lat="44.88661" lon="5.23781">
        <ele>1382.99</ele>
        <time>2021-09-23T14:37:28Z</time>
      </trkpt>
      <trkpt lat="44.88674" lon="5.23773">
        <ele>1385.4</ele>
        <time>2021-09-23T14:37:43Z</time>
      </trkpt>
      <trkpt lat="44.88677" lon="5.2377">
        <ele>1386.36</ele>
        <time>2021-09-23T14:37:48Z</time>
      </trkpt>
      <trkpt lat="44.88688" lon="5.23759">
        <ele>1388.28</ele>
        <time>2021-09-23T14:38:01Z</time>
      </trkpt>
      <trkpt lat="44.88701" lon="5.23749">
        <ele>1389.72</ele>
        <time>2021-09-23T14:38:15Z</time>
      </trkpt>
      <trkpt lat="44.88717" lon="5.23742">
        <ele>1390.68</ele>
        <time>2021-09-23T14:38:31Z</time>
      </trkpt>
      <trkpt lat="44.88728" lon="5.23742">
        <ele>1390.68</ele>
        <time>2021-09-23T14:38:46Z</time>
      </trkpt>
      <trkpt lat="44.88729" lon="5.23741">
        <ele>1390.68</ele>
        <time>2021-09-23T14:38:47Z</time>
      </trkpt>
      <trkpt lat="44.88732" lon="5.23737">
        <ele>1390.68</ele>
        <time>2021-09-23T14:38:51Z</time>
      </trkpt>
      <trkpt lat="44.88743" lon="5.23731">
        <ele>1389.72</ele>
        <time>2021-09-23T14:39:05Z</time>
      </trkpt>
      <trkpt lat="44.88749" lon="5.23732">
        <ele>1389.24</ele>
        <time>2021-09-23T14:39:19Z</time>
      </trkpt>
      <trkpt lat="44.8875" lon="5.23729">
        <ele>1389.24</ele>
        <time>2021-09-23T14:39:23Z</time>
      </trkpt>
      <trkpt lat="44.88755" lon="5.23719">
        <ele>1388.28</ele>
        <time>2021-09-23T14:39:31Z</time>
      </trkpt>
      <trkpt lat="44.88773" lon="5.23711">
        <ele>1387.32</ele>
        <time>2021-09-23T14:39:47Z</time>
      </trkpt>
      <trkpt lat="44.88789" lon="5.23709">
        <ele>1387.32</ele>
        <time>2021-09-23T14:40:03Z</time>
      </trkpt>
      <trkpt lat="44.88796" lon="5.23701">
        <ele>1385.88</ele>
        <time>2021-09-23T14:40:14Z</time>
      </trkpt>
      <trkpt lat="44.88818" lon="5.23694">
        <ele>1385.4</ele>
        <time>2021-09-23T14:40:33Z</time>
      </trkpt>
      <trkpt lat="44.88825" lon="5.23694">
        <ele>1384.44</ele>
        <time>2021-09-23T14:40:40Z</time>
      </trkpt>
      <trkpt lat="44.88838" lon="5.23685">
        <ele>1383.96</ele>
        <time>2021-09-23T14:40:54Z</time>
      </trkpt>
      <trkpt lat="44.8885" lon="5.23681">
        <ele>1383.47</ele>
        <time>2021-09-23T14:41:03Z</time>
      </trkpt>
      <trkpt lat="44.88862" lon="5.23682">
        <ele>1386.84</ele>
        <time>2021-09-23T14:41:18Z</time>
      </trkpt>
      <trkpt lat="44.88875" lon="5.23681">
        <ele>1388.76</ele>
        <time>2021-09-23T14:41:31Z</time>
      </trkpt>
      <trkpt lat="44.88889" lon="5.23678">
        <ele>1389.72</ele>
        <time>2021-09-23T14:41:45Z</time>
      </trkpt>
      <trkpt lat="44.88904" lon="5.23676">
        <ele>1391.65</ele>
        <time>2021-09-23T14:41:59Z</time>
      </trkpt>
      <trkpt lat="44.88918" lon="5.23674">
        <ele>1392.61</ele>
        <time>2021-09-23T14:42:12Z</time>
      </trkpt>
      <trkpt lat="44.88936" lon="5.23667">
        <ele>1393.09</ele>
        <time>2021-09-23T14:42:28Z</time>
      </trkpt>
      <trkpt lat="44.88954" lon="5.23658">
        <ele>1394.05</ele>
        <time>2021-09-23T14:42:45Z</time>
      </trkpt>
      <trkpt lat="44.88972" lon="5.23652">
        <ele>1393.09</ele>
        <time>2021-09-23T14:43:00Z</time>
      </trkpt>
      <trkpt lat="44.88985" lon="5.23648">
        <ele>1392.61</ele>
        <time>2021-09-23T14:43:13Z</time>
      </trkpt>
      <trkpt lat="44.88996" lon="5.23646">
        <ele>1393.09</ele>
        <time>2021-09-23T14:46:26Z</time>
      </trkpt>
      <trkpt lat="44.89004" lon="5.23645">
        <ele>1393.57</ele>
        <time>2021-09-23T14:46:40Z</time>
      </trkpt>
      <trkpt lat="44.89015" lon="5.23646">
        <ele>1393.57</ele>
        <time>2021-09-23T14:46:53Z</time>
      </trkpt>
      <trkpt lat="44.89031" lon="5.23633">
        <ele>1391.65</ele>
        <time>2021-09-23T14:47:10Z</time>
      </trkpt>
      <trkpt lat="44.89048" lon="5.23635">
        <ele>1391.65</ele>
        <time>2021-09-23T14:47:26Z</time>
      </trkpt>
      <trkpt lat="44.89049" lon="5.23635">
        <ele>1391.65</ele>
        <time>2021-09-23T14:47:27Z</time>
      </trkpt>
      <trkpt lat="44.89056" lon="5.23635">
        <ele>1391.17</ele>
        <time>2021-09-23T14:47:31Z</time>
      </trkpt>
      <trkpt lat="44.89073" lon="5.23626">
        <ele>1389.72</ele>
        <time>2021-09-23T14:47:46Z</time>
      </trkpt>
      <trkpt lat="44.8909" lon="5.23617">
        <ele>1388.76</ele>
        <time>2021-09-23T14:48:02Z</time>
      </trkpt>
      <trkpt lat="44.891" lon="5.23615">
        <ele>1387.32</ele>
        <time>2021-09-23T14:48:11Z</time>
      </trkpt>
      <trkpt lat="44.89117" lon="5.23608">
        <ele>1386.36</ele>
        <time>2021-09-23T14:48:27Z</time>
      </trkpt>
      <trkpt lat="44.8912" lon="5.23607">
        <ele>1387.8</ele>
        <time>2021-09-23T14:48:30Z</time>
      </trkpt>
      <trkpt lat="44.89135" lon="5.23607">
        <ele>1389.24</ele>
        <time>2021-09-23T14:48:44Z</time>
      </trkpt>
      <trkpt lat="44.89158" lon="5.23604">
        <ele>1388.76</ele>
        <time>2021-09-23T14:49:03Z</time>
      </trkpt>
      <trkpt lat="44.89182" lon="5.23594">
        <ele>1388.76</ele>
        <time>2021-09-23T14:49:22Z</time>
      </trkpt>
      <trkpt lat="44.89204" lon="5.23592">
        <ele>1390.2</ele>
        <time>2021-09-23T14:49:39Z</time>
      </trkpt>
      <trkpt lat="44.89219" lon="5.23589">
        <ele>1390.2</ele>
        <time>2021-09-23T14:49:52Z</time>
      </trkpt>
      <trkpt lat="44.89221" lon="5.23588">
        <ele>1390.2</ele>
        <time>2021-09-23T14:49:54Z</time>
      </trkpt>
      <trkpt lat="44.89223" lon="5.23587">
        <ele>1390.2</ele>
        <time>2021-09-23T14:49:56Z</time>
      </trkpt>
      <trkpt lat="44.89225" lon="5.23585">
        <ele>1388.28</ele>
        <time>2021-09-23T14:49:58Z</time>
      </trkpt>
      <trkpt lat="44.89242" lon="5.23582">
        <ele>1386.36</ele>
        <time>2021-09-23T14:50:12Z</time>
      </trkpt>
      <trkpt lat="44.89262" lon="5.23581">
        <ele>1384.44</ele>
        <time>2021-09-23T14:50:30Z</time>
      </trkpt>
      <trkpt lat="44.89266" lon="5.2358">
        <ele>1384.44</ele>
        <time>2021-09-23T14:50:44Z</time>
      </trkpt>
      <trkpt lat="44.89281" lon="5.23575">
        <ele>1383.47</ele>
        <time>2021-09-23T14:51:00Z</time>
      </trkpt>
      <trkpt lat="44.89296" lon="5.23568">
        <ele>1382.51</ele>
        <time>2021-09-23T14:51:14Z</time>
      </trkpt>
      <trkpt lat="44.89318" lon="5.23564">
        <ele>1380.11</ele>
        <time>2021-09-23T14:51:31Z</time>
      </trkpt>
      <trkpt lat="44.89331" lon="5.23562">
        <ele>1379.15</ele>
        <time>2021-09-23T14:51:42Z</time>
      </trkpt>
      <trkpt lat="44.89353" lon="5.23558">
        <ele>1376.75</ele>
        <time>2021-09-23T14:51:59Z</time>
      </trkpt>
      <trkpt lat="44.89363" lon="5.23557">
        <ele>1375.78</ele>
        <time>2021-09-23T14:52:09Z</time>
      </trkpt>
      <trkpt lat="44.89385" lon="5.23557">
        <ele>1374.82</ele>
        <time>2021-09-23T14:52:26Z</time>
      </trkpt>
      <trkpt lat="44.89403" lon="5.23556">
        <ele>1372.9</ele>
        <time>2021-09-23T14:52:40Z</time>
      </trkpt>
      <trkpt lat="44.8942" lon="5.23555">
        <ele>1371.94</ele>
        <time>2021-09-23T14:52:56Z</time>
      </trkpt>
      <trkpt lat="44.89425" lon="5.23552">
        <ele>1370.02</ele>
        <time>2021-09-23T14:53:04Z</time>
      </trkpt>
      <trkpt lat="44.89443" lon="5.23547">
        <ele>1368.09</ele>
        <time>2021-09-23T14:53:19Z</time>
      </trkpt>
      <trkpt lat="44.89445" lon="5.23546">
        <ele>1368.09</ele>
        <time>2021-09-23T14:53:21Z</time>
      </trkpt>
      <trkpt lat="44.89459" lon="5.23539">
        <ele>1365.21</ele>
        <time>2021-09-23T14:53:33Z</time>
      </trkpt>
      <trkpt lat="44.89472" lon="5.23531">
        <ele>1361.36</ele>
        <time>2021-09-23T14:53:48Z</time>
      </trkpt>
      <trkpt lat="44.89489" lon="5.23523">
        <ele>1358.48</ele>
        <time>2021-09-23T14:54:02Z</time>
      </trkpt>
      <trkpt lat="44.89506" lon="5.23517">
        <ele>1355.6</ele>
        <time>2021-09-23T14:54:16Z</time>
      </trkpt>
      <trkpt lat="44.8952" lon="5.2351">
        <ele>1352.23</ele>
        <time>2021-09-23T14:54:27Z</time>
      </trkpt>
      <trkpt lat="44.8954" lon="5.23503">
        <ele>1351.75</ele>
        <time>2021-09-23T14:54:43Z</time>
      </trkpt>
      <trkpt lat="44.89558" lon="5.23495">
        <ele>1349.83</ele>
        <time>2021-09-23T14:54:59Z</time>
      </trkpt>
      <trkpt lat="44.89569" lon="5.23487">
        <ele>1347.43</ele>
        <time>2021-09-23T14:55:12Z</time>
      </trkpt>
      <trkpt lat="44.89587" lon="5.2348">
        <ele>1344.54</ele>
        <time>2021-09-23T14:55:28Z</time>
      </trkpt>
      <trkpt lat="44.89588" lon="5.2348">
        <ele>1343.58</ele>
        <time>2021-09-23T14:55:29Z</time>
      </trkpt>
      <trkpt lat="44.89597" lon="5.23472">
        <ele>1340.22</ele>
        <time>2021-09-23T14:55:38Z</time>
      </trkpt>
      <trkpt lat="44.89606" lon="5.23463">
        <ele>1337.33</ele>
        <time>2021-09-23T14:55:47Z</time>
      </trkpt>
      <trkpt lat="44.89607" lon="5.23463">
        <ele>1337.33</ele>
        <time>2021-09-23T14:55:48Z</time>
      </trkpt>
      <trkpt lat="44.89626" lon="5.23454">
        <ele>1333.01</ele>
        <time>2021-09-23T14:56:05Z</time>
      </trkpt>
      <trkpt lat="44.89642" lon="5.23445">
        <ele>1329.64</ele>
        <time>2021-09-23T14:56:19Z</time>
      </trkpt>
      <trkpt lat="44.89655" lon="5.23436">
        <ele>1326.28</ele>
        <time>2021-09-23T14:56:29Z</time>
      </trkpt>
      <trkpt lat="44.89665" lon="5.2343">
        <ele>1323.39</ele>
        <time>2021-09-23T14:56:38Z</time>
      </trkpt>
      <trkpt lat="44.89667" lon="5.23427">
        <ele>1322.43</ele>
        <time>2021-09-23T14:56:41Z</time>
      </trkpt>
      <trkpt lat="44.89684" lon="5.23418">
        <ele>1319.55</ele>
        <time>2021-09-23T14:56:56Z</time>
      </trkpt>
      <trkpt lat="44.89703" lon="5.2341">
        <ele>1316.66</ele>
        <time>2021-09-23T14:57:14Z</time>
      </trkpt>
      <trkpt lat="44.89707" lon="5.23406">
        <ele>1314.74</ele>
        <time>2021-09-23T14:57:26Z</time>
      </trkpt>
      <trkpt lat="44.89718" lon="5.23398">
        <ele>1311.38</ele>
        <time>2021-09-23T14:57:42Z</time>
      </trkpt>
      <trkpt lat="44.89724" lon="5.23395">
        <ele>1309.93</ele>
        <time>2021-09-23T14:57:57Z</time>
      </trkpt>
      <trkpt lat="44.89725" lon="5.23394">
        <ele>1309.45</ele>
        <time>2021-09-23T14:57:59Z</time>
      </trkpt>
      <trkpt lat="44.89737" lon="5.2339">
        <ele>1308.01</ele>
        <time>2021-09-23T14:58:11Z</time>
      </trkpt>
      <trkpt lat="44.89761" lon="5.23386">
        <ele>1308.01</ele>
        <time>2021-09-23T14:58:31Z</time>
      </trkpt>
      <trkpt lat="44.89769" lon="5.23383">
        <ele>1308.01</ele>
        <time>2021-09-23T14:58:46Z</time>
      </trkpt>
      <trkpt lat="44.89772" lon="5.23383">
        <ele>1308.01</ele>
        <time>2021-09-23T14:59:01Z</time>
      </trkpt>
      <trkpt lat="44.89775" lon="5.23382">
        <ele>1309.45</ele>
        <time>2021-09-23T14:59:15Z</time>
      </trkpt>
      <trkpt lat="44.89777" lon="5.23378">
        <ele>1308.97</ele>
        <time>2021-09-23T15:02:10Z</time>
      </trkpt>
      <trkpt lat="44.8978" lon="5.23375">
        <ele>1308.97</ele>
        <time>2021-09-23T15:02:27Z</time>
      </trkpt>
      <trkpt lat="44.89781" lon="5.23378">
        <ele>1308.97</ele>
        <time>2021-09-23T15:02:56Z</time>
      </trkpt>
      <trkpt lat="44.89782" lon="5.23379">
        <ele>1308.97</ele>
        <time>2021-09-23T15:03:17Z</time>
      </trkpt>
      <trkpt lat="44.89798" lon="5.23356">
        <ele>1309.93</ele>
        <time>2021-09-23T15:03:34Z</time>
      </trkpt>
      <trkpt lat="44.8981" lon="5.23337">
        <ele>1311.38</ele>
        <time>2021-09-23T15:03:50Z</time>
      </trkpt>
      <trkpt lat="44.89819" lon="5.23314">
        <ele>1313.3</ele>
        <time>2021-09-23T15:04:06Z</time>
      </trkpt>
    </trkseg>
  </trk>
</gpx>